<?xml version="1.0" encoding="UTF-8" standalone="no" ?>
<gpx xmlns="http://www.topografix.com/GPX/1/1" xmlns:xsi="http://www.w3.org/2001/XMLSchema-instance" xsi:schemaLocation="http://www.topografix.com/GPX/1/1 http://www.topografix.com/GPX/1/1/gpx.xsd" version="1.1" creator="VisuGPX - https://www.visugpx.com">
  <metadata>
    <name>Sommets du Chalvet et du Cougulet</name>
    <desc><![CDATA[Départ de la chapelle Saint-Jean. 
Une randonnée sans grande difficulté si ce n'est la première partie avec une bonne pente pour atteindre le premier sommet à 1547m.
Passage au trou du Chalvet. Toujours de beaux paysages.
]]></desc>
  </metadata>
  <trk>
    <name><![CDATA[Chalvet et Cougulet 15km 850m]]></name>
    <extensions>
      <line xmlns="http://www.topografix.com/GPX/gpx_style/0/2">
        <color>0000FF</color>
        <width>4</width>
      </line>
    </extensions>
    <trkseg>
      <trkpt lat="43.97123" lon="6.50081">
        <ele>1034.7</ele>
        <time>2021-08-27T08:00:00.000Z</time>
      </trkpt>
      <trkpt lat="43.97123" lon="6.5008">
        <ele>1034.8</ele>
        <time>2021-08-27T08:00:02.867Z</time>
      </trkpt>
      <trkpt lat="43.97136" lon="6.50084">
        <ele>1035.4</ele>
        <time>2021-08-27T08:00:26.158Z</time>
      </trkpt>
      <trkpt lat="43.97143" lon="6.50079">
        <ele>1038.1</ele>
        <time>2021-08-27T08:00:57.511Z</time>
      </trkpt>
      <trkpt lat="43.97129" lon="6.50072">
        <ele>1038.7</ele>
        <time>2021-08-27T08:01:21.877Z</time>
      </trkpt>
      <trkpt lat="43.97126" lon="6.50069">
        <ele>1039.3</ele>
        <time>2021-08-27T08:01:36.601Z</time>
      </trkpt>
      <trkpt lat="43.97125" lon="6.50071">
        <ele>1038.7</ele>
        <time>2021-08-27T08:01:36.988Z</time>
      </trkpt>
      <trkpt lat="43.97127" lon="6.5007">
        <ele>1039.1</ele>
        <time>2021-08-27T08:01:45.455Z</time>
      </trkpt>
      <trkpt lat="43.97128" lon="6.50079">
        <ele>1036.1</ele>
        <time>2021-08-27T08:01:46.905Z</time>
      </trkpt>
      <trkpt lat="43.97127" lon="6.50086">
        <ele>1033.7</ele>
        <time>2021-08-27T08:01:48.042Z</time>
      </trkpt>
      <trkpt lat="43.97127" lon="6.50083">
        <ele>1034.6</ele>
        <time>2021-08-27T08:01:56.642Z</time>
      </trkpt>
      <trkpt lat="43.97124" lon="6.50072">
        <ele>1037.9</ele>
        <time>2021-08-27T08:02:30.366Z</time>
      </trkpt>
      <trkpt lat="43.97123" lon="6.50069">
        <ele>1038.8</ele>
        <time>2021-08-27T08:02:39.844Z</time>
      </trkpt>
      <trkpt lat="43.97124" lon="6.50067">
        <ele>1039.5</ele>
        <time>2021-08-27T08:02:46.826Z</time>
      </trkpt>
      <trkpt lat="43.97123" lon="6.50067">
        <ele>1039.6</ele>
        <time>2021-08-27T08:02:49.512Z</time>
      </trkpt>
      <trkpt lat="43.97122" lon="6.50066">
        <ele>1039.9</ele>
        <time>2021-08-27T08:02:54.420Z</time>
      </trkpt>
      <trkpt lat="43.97122" lon="6.50063">
        <ele>1041</ele>
        <time>2021-08-27T08:03:03.020Z</time>
      </trkpt>
      <trkpt lat="43.97122" lon="6.50055">
        <ele>1043.6</ele>
        <time>2021-08-27T08:03:25.955Z</time>
      </trkpt>
      <trkpt lat="43.97121" lon="6.50041">
        <ele>1048.5</ele>
        <time>2021-08-27T08:04:06.288Z</time>
      </trkpt>
      <trkpt lat="43.97118" lon="6.50026">
        <ele>1053.7</ele>
        <time>2021-08-27T08:04:50.921Z</time>
      </trkpt>
      <trkpt lat="43.97113" lon="6.50015">
        <ele>1056.7</ele>
        <time>2021-08-27T08:05:28.219Z</time>
      </trkpt>
      <trkpt lat="43.97102" lon="6.50011">
        <ele>1056.4</ele>
        <time>2021-08-27T08:05:31.537Z</time>
      </trkpt>
      <trkpt lat="43.97093" lon="6.50016">
        <ele>1053.2</ele>
        <time>2021-08-27T08:05:33.681Z</time>
      </trkpt>
      <trkpt lat="43.97089" lon="6.50021">
        <ele>1050.5</ele>
        <time>2021-08-27T08:05:34.871Z</time>
      </trkpt>
      <trkpt lat="43.97085" lon="6.50026">
        <ele>1048</ele>
        <time>2021-08-27T08:05:36.062Z</time>
      </trkpt>
      <trkpt lat="43.97082" lon="6.50035">
        <ele>1044.6</ele>
        <time>2021-08-27T08:05:37.641Z</time>
      </trkpt>
      <trkpt lat="43.97078" lon="6.50034">
        <ele>1044.9</ele>
        <time>2021-08-27T08:05:46.337Z</time>
      </trkpt>
      <trkpt lat="43.9707" lon="6.50031">
        <ele>1045.3</ele>
        <time>2021-08-27T08:06:01.133Z</time>
      </trkpt>
      <trkpt lat="43.97063" lon="6.50029">
        <ele>1045.7</ele>
        <time>2021-08-27T08:06:14.564Z</time>
      </trkpt>
      <trkpt lat="43.97055" lon="6.50026">
        <ele>1046</ele>
        <time>2021-08-27T08:06:27.367Z</time>
      </trkpt>
      <trkpt lat="43.97046" lon="6.50023">
        <ele>1046.8</ele>
        <time>2021-08-27T08:06:49.322Z</time>
      </trkpt>
      <trkpt lat="43.97038" lon="6.5002">
        <ele>1047.5</ele>
        <time>2021-08-27T08:07:08.653Z</time>
      </trkpt>
      <trkpt lat="43.9703" lon="6.50017">
        <ele>1048</ele>
        <time>2021-08-27T08:07:24.704Z</time>
      </trkpt>
      <trkpt lat="43.97023" lon="6.50011">
        <ele>1049.7</ele>
        <time>2021-08-27T08:07:57.467Z</time>
      </trkpt>
      <trkpt lat="43.97017" lon="6.50007">
        <ele>1051.3</ele>
        <time>2021-08-27T08:08:23.976Z</time>
      </trkpt>
      <trkpt lat="43.97013" lon="6.50003">
        <ele>1052.3</ele>
        <time>2021-08-27T08:08:43.608Z</time>
      </trkpt>
      <trkpt lat="43.97006" lon="6.49999">
        <ele>1053.7</ele>
        <time>2021-08-27T08:09:13.758Z</time>
      </trkpt>
      <trkpt lat="43.96997" lon="6.49999">
        <ele>1053.5</ele>
        <time>2021-08-27T08:09:16.509Z</time>
      </trkpt>
      <trkpt lat="43.96988" lon="6.5">
        <ele>1052.6</ele>
        <time>2021-08-27T08:09:18.506Z</time>
      </trkpt>
      <trkpt lat="43.9698" lon="6.5">
        <ele>1052.4</ele>
        <time>2021-08-27T08:09:20.876Z</time>
      </trkpt>
      <trkpt lat="43.96972" lon="6.50001">
        <ele>1052.1</ele>
        <time>2021-08-27T08:09:22.969Z</time>
      </trkpt>
      <trkpt lat="43.96965" lon="6.50001">
        <ele>1051.9</ele>
        <time>2021-08-27T08:09:24.964Z</time>
      </trkpt>
      <trkpt lat="43.96955" lon="6.50001">
        <ele>1051.6</ele>
        <time>2021-08-27T08:09:27.770Z</time>
      </trkpt>
      <trkpt lat="43.96945" lon="6.49997">
        <ele>1052.7</ele>
        <time>2021-08-27T08:09:57.363Z</time>
      </trkpt>
      <trkpt lat="43.96936" lon="6.49994">
        <ele>1054</ele>
        <time>2021-08-27T08:10:34.232Z</time>
      </trkpt>
      <trkpt lat="43.96926" lon="6.49991">
        <ele>1054.5</ele>
        <time>2021-08-27T08:10:52.571Z</time>
      </trkpt>
      <trkpt lat="43.96921" lon="6.49987">
        <ele>1055.9</ele>
        <time>2021-08-27T08:11:15.554Z</time>
      </trkpt>
      <trkpt lat="43.96916" lon="6.49985">
        <ele>1056.5</ele>
        <time>2021-08-27T08:11:31.979Z</time>
      </trkpt>
      <trkpt lat="43.9691" lon="6.4998">
        <ele>1056.4</ele>
        <time>2021-08-27T08:11:34.330Z</time>
      </trkpt>
      <trkpt lat="43.96904" lon="6.49974">
        <ele>1056.9</ele>
        <time>2021-08-27T08:11:49.424Z</time>
      </trkpt>
      <trkpt lat="43.96899" lon="6.49968">
        <ele>1057.7</ele>
        <time>2021-08-27T08:12:11.757Z</time>
      </trkpt>
      <trkpt lat="43.96892" lon="6.49962">
        <ele>1057.6</ele>
        <time>2021-08-27T08:12:14.598Z</time>
      </trkpt>
      <trkpt lat="43.96886" lon="6.49954">
        <ele>1057.8</ele>
        <time>2021-08-27T08:12:25.612Z</time>
      </trkpt>
      <trkpt lat="43.96881" lon="6.4995">
        <ele>1057.7</ele>
        <time>2021-08-27T08:12:27.480Z</time>
      </trkpt>
      <trkpt lat="43.96877" lon="6.49944">
        <ele>1058.2</ele>
        <time>2021-08-27T08:12:41.266Z</time>
      </trkpt>
      <trkpt lat="43.96871" lon="6.49938">
        <ele>1057.8</ele>
        <time>2021-08-27T08:12:42.922Z</time>
      </trkpt>
      <trkpt lat="43.96867" lon="6.4993">
        <ele>1058.3</ele>
        <time>2021-08-27T08:12:57.637Z</time>
      </trkpt>
      <trkpt lat="43.96861" lon="6.49924">
        <ele>1058.1</ele>
        <time>2021-08-27T08:12:59.778Z</time>
      </trkpt>
      <trkpt lat="43.96857" lon="6.49915">
        <ele>1058.9</ele>
        <time>2021-08-27T08:13:21.290Z</time>
      </trkpt>
      <trkpt lat="43.96861" lon="6.49913">
        <ele>1060.8</ele>
        <time>2021-08-27T08:13:38.224Z</time>
      </trkpt>
      <trkpt lat="43.96869" lon="6.49917">
        <ele>1063.1</ele>
        <time>2021-08-27T08:14:12.093Z</time>
      </trkpt>
      <trkpt lat="43.96875" lon="6.49924">
        <ele>1063.2</ele>
        <time>2021-08-27T08:14:21.255Z</time>
      </trkpt>
      <trkpt lat="43.96882" lon="6.49928">
        <ele>1064.8</ele>
        <time>2021-08-27T08:14:51.406Z</time>
      </trkpt>
      <trkpt lat="43.96889" lon="6.49931">
        <ele>1066.2</ele>
        <time>2021-08-27T08:15:20.586Z</time>
      </trkpt>
      <trkpt lat="43.96899" lon="6.49935">
        <ele>1068.8</ele>
        <time>2021-08-27T08:16:02.039Z</time>
      </trkpt>
      <trkpt lat="43.96906" lon="6.49936">
        <ele>1071</ele>
        <time>2021-08-27T08:16:30.070Z</time>
      </trkpt>
      <trkpt lat="43.96915" lon="6.4994">
        <ele>1072.7</ele>
        <time>2021-08-27T08:17:07.711Z</time>
      </trkpt>
      <trkpt lat="43.96923" lon="6.49942">
        <ele>1073.1</ele>
        <time>2021-08-27T08:17:22.314Z</time>
      </trkpt>
      <trkpt lat="43.9693" lon="6.49941">
        <ele>1074.1</ele>
        <time>2021-08-27T08:17:50.345Z</time>
      </trkpt>
      <trkpt lat="43.96937" lon="6.49936">
        <ele>1076.8</ele>
        <time>2021-08-27T08:18:21.698Z</time>
      </trkpt>
      <trkpt lat="43.96946" lon="6.4994">
        <ele>1076.2</ele>
        <time>2021-08-27T08:18:23.660Z</time>
      </trkpt>
      <trkpt lat="43.96954" lon="6.49941">
        <ele>1076.9</ele>
        <time>2021-08-27T08:18:42.832Z</time>
      </trkpt>
      <trkpt lat="43.9696" lon="6.4994">
        <ele>1077.8</ele>
        <time>2021-08-27T08:19:06.904Z</time>
      </trkpt>
      <trkpt lat="43.96969" lon="6.49939">
        <ele>1079</ele>
        <time>2021-08-27T08:19:42.599Z</time>
      </trkpt>
      <trkpt lat="43.96976" lon="6.49938">
        <ele>1080.5</ele>
        <time>2021-08-27T08:20:10.630Z</time>
      </trkpt>
      <trkpt lat="43.96984" lon="6.49934">
        <ele>1082.9</ele>
        <time>2021-08-27T08:20:44.498Z</time>
      </trkpt>
      <trkpt lat="43.96992" lon="6.49928">
        <ele>1086.5</ele>
        <time>2021-08-27T08:21:20.712Z</time>
      </trkpt>
      <trkpt lat="43.97001" lon="6.49926">
        <ele>1088.7</ele>
        <time>2021-08-27T08:21:57.019Z</time>
      </trkpt>
      <trkpt lat="43.97005" lon="6.49926">
        <ele>1089.2</ele>
        <time>2021-08-27T08:22:11.222Z</time>
      </trkpt>
      <trkpt lat="43.96998" lon="6.49922">
        <ele>1090.1</ele>
        <time>2021-08-27T08:22:36.140Z</time>
      </trkpt>
      <trkpt lat="43.96992" lon="6.49924">
        <ele>1088.6</ele>
        <time>2021-08-27T08:22:37.506Z</time>
      </trkpt>
      <trkpt lat="43.96986" lon="6.49927">
        <ele>1086.5</ele>
        <time>2021-08-27T08:22:38.916Z</time>
      </trkpt>
      <trkpt lat="43.9698" lon="6.49926">
        <ele>1086.1</ele>
        <time>2021-08-27T08:22:40.145Z</time>
      </trkpt>
      <trkpt lat="43.96971" lon="6.49924">
        <ele>1086.1</ele>
        <time>2021-08-27T08:22:49.558Z</time>
      </trkpt>
      <trkpt lat="43.96964" lon="6.49919">
        <ele>1087.1</ele>
        <time>2021-08-27T08:23:18.264Z</time>
      </trkpt>
      <trkpt lat="43.96959" lon="6.49915">
        <ele>1088.3</ele>
        <time>2021-08-27T08:23:41.246Z</time>
      </trkpt>
      <trkpt lat="43.9695" lon="6.49908">
        <ele>1089.5</ele>
        <time>2021-08-27T08:24:14.195Z</time>
      </trkpt>
      <trkpt lat="43.96945" lon="6.49905">
        <ele>1089.5</ele>
        <time>2021-08-27T08:24:19.819Z</time>
      </trkpt>
      <trkpt lat="43.96939" lon="6.49901">
        <ele>1090.1</ele>
        <time>2021-08-27T08:24:36.128Z</time>
      </trkpt>
      <trkpt lat="43.96932" lon="6.49894">
        <ele>1091</ele>
        <time>2021-08-27T08:25:00.317Z</time>
      </trkpt>
      <trkpt lat="43.96925" lon="6.49887">
        <ele>1091.8</ele>
        <time>2021-08-27T08:25:21.953Z</time>
      </trkpt>
      <trkpt lat="43.9692" lon="6.49881">
        <ele>1092.4</ele>
        <time>2021-08-27T08:25:38.239Z</time>
      </trkpt>
      <trkpt lat="43.96909" lon="6.49874">
        <ele>1090.5</ele>
        <time>2021-08-27T08:25:40.916Z</time>
      </trkpt>
      <trkpt lat="43.96902" lon="6.49868">
        <ele>1089.4</ele>
        <time>2021-08-27T08:25:42.735Z</time>
      </trkpt>
      <trkpt lat="43.96899" lon="6.4986">
        <ele>1090</ele>
        <time>2021-08-27T08:25:58.972Z</time>
      </trkpt>
      <trkpt lat="43.96898" lon="6.49848">
        <ele>1092.9</ele>
        <time>2021-08-27T08:26:33.605Z</time>
      </trkpt>
      <trkpt lat="43.96896" lon="6.49838">
        <ele>1094.6</ele>
        <time>2021-08-27T08:27:03.361Z</time>
      </trkpt>
      <trkpt lat="43.96897" lon="6.49829">
        <ele>1098</ele>
        <time>2021-08-27T08:27:29.469Z</time>
      </trkpt>
      <trkpt lat="43.96901" lon="6.49834">
        <ele>1098</ele>
        <time>2021-08-27T08:27:35.026Z</time>
      </trkpt>
      <trkpt lat="43.96905" lon="6.49842">
        <ele>1097.6</ele>
        <time>2021-08-27T08:27:36.559Z</time>
      </trkpt>
      <trkpt lat="43.96909" lon="6.49848">
        <ele>1097.7</ele>
        <time>2021-08-27T08:27:43.758Z</time>
      </trkpt>
      <trkpt lat="43.96914" lon="6.49852">
        <ele>1098.8</ele>
        <time>2021-08-27T08:28:06.741Z</time>
      </trkpt>
      <trkpt lat="43.9692" lon="6.49854">
        <ele>1100.1</ele>
        <time>2021-08-27T08:28:31.320Z</time>
      </trkpt>
      <trkpt lat="43.96928" lon="6.49856">
        <ele>1101.6</ele>
        <time>2021-08-27T08:29:03.699Z</time>
      </trkpt>
      <trkpt lat="43.96938" lon="6.49858">
        <ele>1103.4</ele>
        <time>2021-08-27T08:29:43.945Z</time>
      </trkpt>
      <trkpt lat="43.96943" lon="6.4986">
        <ele>1104</ele>
        <time>2021-08-27T08:30:00.370Z</time>
      </trkpt>
      <trkpt lat="43.96951" lon="6.49862">
        <ele>1105.3</ele>
        <time>2021-08-27T08:30:32.749Z</time>
      </trkpt>
      <trkpt lat="43.96959" lon="6.49859">
        <ele>1108.3</ele>
        <time>2021-08-27T08:31:05.757Z</time>
      </trkpt>
      <trkpt lat="43.9697" lon="6.49861">
        <ele>1109.7</ele>
        <time>2021-08-27T08:31:45.764Z</time>
      </trkpt>
      <trkpt lat="43.96976" lon="6.49864">
        <ele>1110.3</ele>
        <time>2021-08-27T08:32:01.958Z</time>
      </trkpt>
      <trkpt lat="43.96987" lon="6.49869">
        <ele>1110.9</ele>
        <time>2021-08-27T08:32:23.113Z</time>
      </trkpt>
      <trkpt lat="43.96995" lon="6.49871">
        <ele>1111.5</ele>
        <time>2021-08-27T08:32:40.506Z</time>
      </trkpt>
      <trkpt lat="43.97002" lon="6.49874">
        <ele>1111.8</ele>
        <time>2021-08-27T08:32:52.613Z</time>
      </trkpt>
      <trkpt lat="43.97011" lon="6.4987">
        <ele>1114.5</ele>
        <time>2021-08-27T08:33:30.253Z</time>
      </trkpt>
      <trkpt lat="43.97004" lon="6.49874">
        <ele>1111.9</ele>
        <time>2021-08-27T08:33:31.928Z</time>
      </trkpt>
      <trkpt lat="43.96999" lon="6.4987">
        <ele>1112.8</ele>
        <time>2021-08-27T08:33:54.911Z</time>
      </trkpt>
      <trkpt lat="43.96992" lon="6.49866">
        <ele>1113.3</ele>
        <time>2021-08-27T08:34:10.186Z</time>
      </trkpt>
      <trkpt lat="43.96986" lon="6.49861">
        <ele>1113.8</ele>
        <time>2021-08-27T08:34:24.888Z</time>
      </trkpt>
      <trkpt lat="43.9698" lon="6.49855">
        <ele>1114.7</ele>
        <time>2021-08-27T08:34:50.080Z</time>
      </trkpt>
      <trkpt lat="43.96975" lon="6.4985">
        <ele>1115.3</ele>
        <time>2021-08-27T08:35:06.215Z</time>
      </trkpt>
      <trkpt lat="43.96969" lon="6.49844">
        <ele>1116</ele>
        <time>2021-08-27T08:35:25.093Z</time>
      </trkpt>
      <trkpt lat="43.96963" lon="6.49839">
        <ele>1116.3</ele>
        <time>2021-08-27T08:35:36.992Z</time>
      </trkpt>
      <trkpt lat="43.96958" lon="6.49835">
        <ele>1116.4</ele>
        <time>2021-08-27T08:35:44.075Z</time>
      </trkpt>
      <trkpt lat="43.96952" lon="6.49832">
        <ele>1116</ele>
        <time>2021-08-27T08:35:45.407Z</time>
      </trkpt>
      <trkpt lat="43.96947" lon="6.49828">
        <ele>1116</ele>
        <time>2021-08-27T08:35:51.365Z</time>
      </trkpt>
      <trkpt lat="43.96939" lon="6.49826">
        <ele>1114.2</ele>
        <time>2021-08-27T08:35:53.163Z</time>
      </trkpt>
      <trkpt lat="43.96932" lon="6.49823">
        <ele>1113.3</ele>
        <time>2021-08-27T08:35:54.784Z</time>
      </trkpt>
      <trkpt lat="43.96932" lon="6.4982">
        <ele>1114.3</ele>
        <time>2021-08-27T08:36:03.385Z</time>
      </trkpt>
      <trkpt lat="43.96936" lon="6.49818">
        <ele>1116.2</ele>
        <time>2021-08-27T08:36:20.319Z</time>
      </trkpt>
      <trkpt lat="43.96942" lon="6.49816">
        <ele>1118.8</ele>
        <time>2021-08-27T08:36:44.898Z</time>
      </trkpt>
      <trkpt lat="43.96947" lon="6.49815">
        <ele>1120.8</ele>
        <time>2021-08-27T08:37:05.021Z</time>
      </trkpt>
      <trkpt lat="43.96954" lon="6.49814">
        <ele>1123.3</ele>
        <time>2021-08-27T08:37:33.052Z</time>
      </trkpt>
      <trkpt lat="43.96961" lon="6.49816">
        <ele>1124.6</ele>
        <time>2021-08-27T08:38:01.520Z</time>
      </trkpt>
      <trkpt lat="43.96972" lon="6.49818">
        <ele>1127.2</ele>
        <time>2021-08-27T08:38:45.712Z</time>
      </trkpt>
      <trkpt lat="43.96981" lon="6.4982">
        <ele>1129.2</ele>
        <time>2021-08-27T08:39:22.018Z</time>
      </trkpt>
      <trkpt lat="43.9699" lon="6.49822">
        <ele>1131.2</ele>
        <time>2021-08-27T08:39:58.325Z</time>
      </trkpt>
      <trkpt lat="43.96997" lon="6.49826">
        <ele>1131.6</ele>
        <time>2021-08-27T08:40:12.253Z</time>
      </trkpt>
      <trkpt lat="43.97004" lon="6.49829">
        <ele>1131.6</ele>
        <time>2021-08-27T08:40:19.819Z</time>
      </trkpt>
      <trkpt lat="43.97011" lon="6.49831">
        <ele>1131.7</ele>
        <time>2021-08-27T08:40:28.284Z</time>
      </trkpt>
      <trkpt lat="43.97019" lon="6.49835">
        <ele>1131.3</ele>
        <time>2021-08-27T08:40:30.308Z</time>
      </trkpt>
      <trkpt lat="43.9702" lon="6.49837">
        <ele>1130.6</ele>
        <time>2021-08-27T08:40:30.696Z</time>
      </trkpt>
      <trkpt lat="43.97013" lon="6.49835">
        <ele>1130.3</ele>
        <time>2021-08-27T08:40:32.478Z</time>
      </trkpt>
      <trkpt lat="43.97007" lon="6.49831">
        <ele>1131.3</ele>
        <time>2021-08-27T08:40:58.987Z</time>
      </trkpt>
      <trkpt lat="43.97002" lon="6.49826">
        <ele>1132.6</ele>
        <time>2021-08-27T08:41:23.527Z</time>
      </trkpt>
      <trkpt lat="43.96997" lon="6.49819">
        <ele>1134.7</ele>
        <time>2021-08-27T08:41:51.801Z</time>
      </trkpt>
      <trkpt lat="43.96992" lon="6.49814">
        <ele>1135.2</ele>
        <time>2021-08-27T08:42:05.780Z</time>
      </trkpt>
      <trkpt lat="43.96985" lon="6.49807">
        <ele>1136.5</ele>
        <time>2021-08-27T08:42:40.135Z</time>
      </trkpt>
      <trkpt lat="43.96979" lon="6.49801">
        <ele>1136.9</ele>
        <time>2021-08-27T08:42:53.854Z</time>
      </trkpt>
      <trkpt lat="43.96974" lon="6.49794">
        <ele>1138.1</ele>
        <time>2021-08-27T08:43:22.128Z</time>
      </trkpt>
      <trkpt lat="43.96969" lon="6.4979">
        <ele>1138.1</ele>
        <time>2021-08-27T08:43:28.087Z</time>
      </trkpt>
      <trkpt lat="43.9696" lon="6.49784">
        <ele>1137.5</ele>
        <time>2021-08-27T08:43:30.216Z</time>
      </trkpt>
      <trkpt lat="43.96957" lon="6.4978">
        <ele>1137.8</ele>
        <time>2021-08-27T08:43:38.999Z</time>
      </trkpt>
      <trkpt lat="43.9695" lon="6.49777">
        <ele>1136.6</ele>
        <time>2021-08-27T08:43:40.620Z</time>
      </trkpt>
      <trkpt lat="43.96943" lon="6.49776">
        <ele>1134.4</ele>
        <time>2021-08-27T08:43:42.176Z</time>
      </trkpt>
      <trkpt lat="43.9694" lon="6.4977">
        <ele>1135.8</ele>
        <time>2021-08-27T08:44:03.122Z</time>
      </trkpt>
      <trkpt lat="43.96943" lon="6.49768">
        <ele>1137.6</ele>
        <time>2021-08-27T08:44:16.377Z</time>
      </trkpt>
      <trkpt lat="43.9695" lon="6.49766">
        <ele>1140.7</ele>
        <time>2021-08-27T08:44:44.844Z</time>
      </trkpt>
      <trkpt lat="43.96958" lon="6.49764">
        <ele>1144.4</ele>
        <time>2021-08-27T08:45:17.224Z</time>
      </trkpt>
      <trkpt lat="43.96961" lon="6.49767">
        <ele>1144.6</ele>
        <time>2021-08-27T08:45:24.083Z</time>
      </trkpt>
      <trkpt lat="43.96961" lon="6.4977">
        <ele>1143.6</ele>
        <time>2021-08-27T08:45:24.561Z</time>
      </trkpt>
      <trkpt lat="43.96953" lon="6.49768">
        <ele>1141.3</ele>
        <time>2021-08-27T08:45:26.359Z</time>
      </trkpt>
      <trkpt lat="43.96956" lon="6.49769">
        <ele>1142.1</ele>
        <time>2021-08-27T08:45:38.649Z</time>
      </trkpt>
      <trkpt lat="43.96957" lon="6.49769">
        <ele>1142.2</ele>
        <time>2021-08-27T08:45:41.334Z</time>
      </trkpt>
      <trkpt lat="43.96963" lon="6.49769">
        <ele>1144.6</ele>
        <time>2021-08-27T08:46:05.235Z</time>
      </trkpt>
      <trkpt lat="43.96975" lon="6.4977">
        <ele>1148.8</ele>
        <time>2021-08-27T08:46:53.123Z</time>
      </trkpt>
      <trkpt lat="43.96982" lon="6.49774">
        <ele>1149.4</ele>
        <time>2021-08-27T08:47:10.034Z</time>
      </trkpt>
      <trkpt lat="43.9699" lon="6.49777">
        <ele>1151.3</ele>
        <time>2021-08-27T08:47:43.042Z</time>
      </trkpt>
      <trkpt lat="43.96998" lon="6.4978">
        <ele>1152.4</ele>
        <time>2021-08-27T08:48:15.727Z</time>
      </trkpt>
      <trkpt lat="43.97009" lon="6.49788">
        <ele>1152</ele>
        <time>2021-08-27T08:48:19.133Z</time>
      </trkpt>
      <trkpt lat="43.97017" lon="6.49792">
        <ele>1152.2</ele>
        <time>2021-08-27T08:48:30.325Z</time>
      </trkpt>
      <trkpt lat="43.97026" lon="6.49796">
        <ele>1152</ele>
        <time>2021-08-27T08:48:33.248Z</time>
      </trkpt>
      <trkpt lat="43.97035" lon="6.49803">
        <ele>1150.6</ele>
        <time>2021-08-27T08:48:35.530Z</time>
      </trkpt>
      <trkpt lat="43.97042" lon="6.49808">
        <ele>1149.4</ele>
        <time>2021-08-27T08:48:37.271Z</time>
      </trkpt>
      <trkpt lat="43.97049" lon="6.49813">
        <ele>1147.8</ele>
        <time>2021-08-27T08:48:39.013Z</time>
      </trkpt>
      <trkpt lat="43.97055" lon="6.49817">
        <ele>1146.8</ele>
        <time>2021-08-27T08:48:40.485Z</time>
      </trkpt>
      <trkpt lat="43.97064" lon="6.49819">
        <ele>1147.1</ele>
        <time>2021-08-27T08:48:53.961Z</time>
      </trkpt>
      <trkpt lat="43.97074" lon="6.49819">
        <ele>1149.1</ele>
        <time>2021-08-27T08:49:33.795Z</time>
      </trkpt>
      <trkpt lat="43.97081" lon="6.49816">
        <ele>1152.2</ele>
        <time>2021-08-27T08:50:02.976Z</time>
      </trkpt>
      <trkpt lat="43.97079" lon="6.49816">
        <ele>1152.1</ele>
        <time>2021-08-27T08:50:03.440Z</time>
      </trkpt>
      <trkpt lat="43.97074" lon="6.49818">
        <ele>1150.1</ele>
        <time>2021-08-27T08:50:04.591Z</time>
      </trkpt>
      <trkpt lat="43.97068" lon="6.49814">
        <ele>1150.9</ele>
        <time>2021-08-27T08:50:26.847Z</time>
      </trkpt>
      <trkpt lat="43.97066" lon="6.49813">
        <ele>1151.4</ele>
        <time>2021-08-27T08:50:35.315Z</time>
      </trkpt>
      <trkpt lat="43.97058" lon="6.49805">
        <ele>1154.2</ele>
        <time>2021-08-27T08:51:14.577Z</time>
      </trkpt>
      <trkpt lat="43.97052" lon="6.49797">
        <ele>1157.4</ele>
        <time>2021-08-27T08:51:47.702Z</time>
      </trkpt>
      <trkpt lat="43.97047" lon="6.4979">
        <ele>1160</ele>
        <time>2021-08-27T08:52:15.977Z</time>
      </trkpt>
      <trkpt lat="43.97042" lon="6.49785">
        <ele>1161.6</ele>
        <time>2021-08-27T08:52:40.516Z</time>
      </trkpt>
      <trkpt lat="43.97039" lon="6.49778">
        <ele>1164.3</ele>
        <time>2021-08-27T08:53:03.873Z</time>
      </trkpt>
      <trkpt lat="43.97033" lon="6.4977">
        <ele>1166.9</ele>
        <time>2021-08-27T08:53:36.998Z</time>
      </trkpt>
      <trkpt lat="43.97029" lon="6.49765">
        <ele>1168.9</ele>
        <time>2021-08-27T08:53:58.431Z</time>
      </trkpt>
      <trkpt lat="43.97026" lon="6.49759">
        <ele>1171.1</ele>
        <time>2021-08-27T08:54:19.376Z</time>
      </trkpt>
      <trkpt lat="43.97021" lon="6.4975">
        <ele>1173.5</ele>
        <time>2021-08-27T08:54:51.972Z</time>
      </trkpt>
      <trkpt lat="43.97017" lon="6.49745">
        <ele>1174.8</ele>
        <time>2021-08-27T08:55:13.404Z</time>
      </trkpt>
      <trkpt lat="43.97013" lon="6.49739">
        <ele>1175.7</ele>
        <time>2021-08-27T08:55:36.852Z</time>
      </trkpt>
      <trkpt lat="43.97006" lon="6.49734">
        <ele>1175.3</ele>
        <time>2021-08-27T08:55:38.665Z</time>
      </trkpt>
      <trkpt lat="43.97" lon="6.49728">
        <ele>1176</ele>
        <time>2021-08-27T08:55:57.542Z</time>
      </trkpt>
      <trkpt lat="43.96994" lon="6.49723">
        <ele>1175.7</ele>
        <time>2021-08-27T08:55:59.272Z</time>
      </trkpt>
      <trkpt lat="43.9699" lon="6.49715">
        <ele>1177.4</ele>
        <time>2021-08-27T08:56:27.199Z</time>
      </trkpt>
      <trkpt lat="43.96983" lon="6.49708">
        <ele>1177.6</ele>
        <time>2021-08-27T08:56:38.508Z</time>
      </trkpt>
      <trkpt lat="43.96978" lon="6.49701">
        <ele>1178.2</ele>
        <time>2021-08-27T08:56:55.074Z</time>
      </trkpt>
      <trkpt lat="43.96973" lon="6.49697">
        <ele>1178.1</ele>
        <time>2021-08-27T08:56:56.941Z</time>
      </trkpt>
      <trkpt lat="43.96967" lon="6.49693">
        <ele>1177.4</ele>
        <time>2021-08-27T08:56:58.414Z</time>
      </trkpt>
      <trkpt lat="43.9696" lon="6.49688">
        <ele>1176.8</ele>
        <time>2021-08-27T08:57:00.155Z</time>
      </trkpt>
      <trkpt lat="43.96953" lon="6.49681">
        <ele>1177.2</ele>
        <time>2021-08-27T08:57:15.368Z</time>
      </trkpt>
      <trkpt lat="43.96946" lon="6.49675">
        <ele>1177.1</ele>
        <time>2021-08-27T08:57:18.209Z</time>
      </trkpt>
      <trkpt lat="43.9694" lon="6.4967">
        <ele>1176.5</ele>
        <time>2021-08-27T08:57:19.756Z</time>
      </trkpt>
      <trkpt lat="43.96933" lon="6.49663">
        <ele>1176.9</ele>
        <time>2021-08-27T08:57:34.970Z</time>
      </trkpt>
      <trkpt lat="43.96931" lon="6.49658">
        <ele>1178.4</ele>
        <time>2021-08-27T08:57:51.370Z</time>
      </trkpt>
      <trkpt lat="43.96931" lon="6.49656">
        <ele>1178.8</ele>
        <time>2021-08-27T08:57:57.104Z</time>
      </trkpt>
      <trkpt lat="43.96929" lon="6.49655">
        <ele>1178.7</ele>
        <time>2021-08-27T08:57:57.610Z</time>
      </trkpt>
      <trkpt lat="43.96926" lon="6.4965">
        <ele>1179.7</ele>
        <time>2021-08-27T08:58:16.272Z</time>
      </trkpt>
      <trkpt lat="43.96923" lon="6.49646">
        <ele>1180.3</ele>
        <time>2021-08-27T08:58:32.835Z</time>
      </trkpt>
      <trkpt lat="43.96917" lon="6.49641">
        <ele>1180.3</ele>
        <time>2021-08-27T08:58:40.061Z</time>
      </trkpt>
      <trkpt lat="43.96912" lon="6.49634">
        <ele>1181.5</ele>
        <time>2021-08-27T08:59:08.335Z</time>
      </trkpt>
      <trkpt lat="43.96906" lon="6.4963">
        <ele>1181.6</ele>
        <time>2021-08-27T08:59:16.305Z</time>
      </trkpt>
      <trkpt lat="43.96901" lon="6.49623">
        <ele>1182.7</ele>
        <time>2021-08-27T08:59:44.580Z</time>
      </trkpt>
      <trkpt lat="43.96894" lon="6.49618">
        <ele>1182.7</ele>
        <time>2021-08-27T08:59:52.708Z</time>
      </trkpt>
      <trkpt lat="43.9689" lon="6.4961">
        <ele>1184.8</ele>
        <time>2021-08-27T09:00:20.636Z</time>
      </trkpt>
      <trkpt lat="43.96886" lon="6.49602">
        <ele>1187.1</ele>
        <time>2021-08-27T09:00:48.563Z</time>
      </trkpt>
      <trkpt lat="43.96883" lon="6.49596">
        <ele>1188.9</ele>
        <time>2021-08-27T09:01:09.509Z</time>
      </trkpt>
      <trkpt lat="43.96878" lon="6.49588">
        <ele>1190.6</ele>
        <time>2021-08-27T09:01:39.886Z</time>
      </trkpt>
      <trkpt lat="43.96872" lon="6.49584">
        <ele>1190</ele>
        <time>2021-08-27T09:01:41.358Z</time>
      </trkpt>
      <trkpt lat="43.96865" lon="6.49576">
        <ele>1191.2</ele>
        <time>2021-08-27T09:02:16.929Z</time>
      </trkpt>
      <trkpt lat="43.96859" lon="6.49571">
        <ele>1191.2</ele>
        <time>2021-08-27T09:02:24.155Z</time>
      </trkpt>
      <trkpt lat="43.96855" lon="6.49561">
        <ele>1193.2</ele>
        <time>2021-08-27T09:02:56.955Z</time>
      </trkpt>
      <trkpt lat="43.9685" lon="6.49555">
        <ele>1193.7</ele>
        <time>2021-08-27T09:03:11.299Z</time>
      </trkpt>
      <trkpt lat="43.96846" lon="6.4955">
        <ele>1194.3</ele>
        <time>2021-08-27T09:03:27.575Z</time>
      </trkpt>
      <trkpt lat="43.96842" lon="6.49542">
        <ele>1196</ele>
        <time>2021-08-27T09:03:55.503Z</time>
      </trkpt>
      <trkpt lat="43.96838" lon="6.49535">
        <ele>1197.1</ele>
        <time>2021-08-27T09:04:21.128Z</time>
      </trkpt>
      <trkpt lat="43.96833" lon="6.49528">
        <ele>1197.7</ele>
        <time>2021-08-27T09:04:37.694Z</time>
      </trkpt>
      <trkpt lat="43.96829" lon="6.49519">
        <ele>1199.5</ele>
        <time>2021-08-27T09:05:08.020Z</time>
      </trkpt>
      <trkpt lat="43.96823" lon="6.4951">
        <ele>1201.1</ele>
        <time>2021-08-27T09:05:43.192Z</time>
      </trkpt>
      <trkpt lat="43.96819" lon="6.49503">
        <ele>1202.4</ele>
        <time>2021-08-27T09:06:08.817Z</time>
      </trkpt>
      <trkpt lat="43.96815" lon="6.49496">
        <ele>1203.9</ele>
        <time>2021-08-27T09:06:34.442Z</time>
      </trkpt>
      <trkpt lat="43.9681" lon="6.49491">
        <ele>1204.4</ele>
        <time>2021-08-27T09:06:48.421Z</time>
      </trkpt>
      <trkpt lat="43.96805" lon="6.49486">
        <ele>1205</ele>
        <time>2021-08-27T09:07:04.557Z</time>
      </trkpt>
      <trkpt lat="43.96801" lon="6.49478">
        <ele>1206.9</ele>
        <time>2021-08-27T09:07:32.484Z</time>
      </trkpt>
      <trkpt lat="43.96797" lon="6.49473">
        <ele>1207.8</ele>
        <time>2021-08-27T09:07:53.918Z</time>
      </trkpt>
      <trkpt lat="43.96792" lon="6.49471">
        <ele>1206.9</ele>
        <time>2021-08-27T09:07:55.069Z</time>
      </trkpt>
      <trkpt lat="43.96786" lon="6.49467">
        <ele>1206.4</ele>
        <time>2021-08-27T09:07:56.541Z</time>
      </trkpt>
      <trkpt lat="43.9678" lon="6.49461">
        <ele>1206.1</ele>
        <time>2021-08-27T09:07:58.408Z</time>
      </trkpt>
      <trkpt lat="43.96773" lon="6.49456">
        <ele>1205.7</ele>
        <time>2021-08-27T09:08:00.221Z</time>
      </trkpt>
      <trkpt lat="43.96769" lon="6.49452">
        <ele>1205.4</ele>
        <time>2021-08-27T09:08:01.266Z</time>
      </trkpt>
      <trkpt lat="43.96765" lon="6.49446">
        <ele>1206.3</ele>
        <time>2021-08-27T09:08:24.714Z</time>
      </trkpt>
      <trkpt lat="43.96761" lon="6.49434">
        <ele>1208.8</ele>
        <time>2021-08-27T09:09:02.629Z</time>
      </trkpt>
      <trkpt lat="43.96759" lon="6.49425">
        <ele>1211.4</ele>
        <time>2021-08-27T09:09:29.634Z</time>
      </trkpt>
      <trkpt lat="43.96759" lon="6.49416">
        <ele>1213.9</ele>
        <time>2021-08-27T09:09:55.437Z</time>
      </trkpt>
      <trkpt lat="43.96759" lon="6.49407">
        <ele>1216</ele>
        <time>2021-08-27T09:10:21.241Z</time>
      </trkpt>
      <trkpt lat="43.96756" lon="6.49396">
        <ele>1217</ele>
        <time>2021-08-27T09:10:48.852Z</time>
      </trkpt>
      <trkpt lat="43.96754" lon="6.49382">
        <ele>1218.6</ele>
        <time>2021-08-27T09:11:29.774Z</time>
      </trkpt>
      <trkpt lat="43.96754" lon="6.49373">
        <ele>1220.5</ele>
        <time>2021-08-27T09:11:55.577Z</time>
      </trkpt>
      <trkpt lat="43.96753" lon="6.49373">
        <ele>1219.9</ele>
        <time>2021-08-27T09:11:55.799Z</time>
      </trkpt>
      <trkpt lat="43.96751" lon="6.49367">
        <ele>1220</ele>
        <time>2021-08-27T09:12:01.885Z</time>
      </trkpt>
      <trkpt lat="43.96752" lon="6.49355">
        <ele>1222.7</ele>
        <time>2021-08-27T09:12:36.519Z</time>
      </trkpt>
      <trkpt lat="43.96752" lon="6.49344">
        <ele>1225</ele>
        <time>2021-08-27T09:13:08.057Z</time>
      </trkpt>
      <trkpt lat="43.96751" lon="6.49335">
        <ele>1226.3</ele>
        <time>2021-08-27T09:13:34.166Z</time>
      </trkpt>
      <trkpt lat="43.96749" lon="6.49325">
        <ele>1227.7</ele>
        <time>2021-08-27T09:14:03.922Z</time>
      </trkpt>
      <trkpt lat="43.96746" lon="6.49313">
        <ele>1229.2</ele>
        <time>2021-08-27T09:14:40.343Z</time>
      </trkpt>
      <trkpt lat="43.96743" lon="6.49305">
        <ele>1229.2</ele>
        <time>2021-08-27T09:14:47.049Z</time>
      </trkpt>
      <trkpt lat="43.96741" lon="6.49302">
        <ele>1229</ele>
        <time>2021-08-27T09:14:47.700Z</time>
      </trkpt>
      <trkpt lat="43.96745" lon="6.49304">
        <ele>1230.8</ele>
        <time>2021-08-27T09:15:04.634Z</time>
      </trkpt>
      <trkpt lat="43.96748" lon="6.49306">
        <ele>1232.2</ele>
        <time>2021-08-27T09:15:17.889Z</time>
      </trkpt>
      <trkpt lat="43.96752" lon="6.49311">
        <ele>1232.9</ele>
        <time>2021-08-27T09:15:38.336Z</time>
      </trkpt>
      <trkpt lat="43.96755" lon="6.49315">
        <ele>1233.6</ele>
        <time>2021-08-27T09:15:54.899Z</time>
      </trkpt>
      <trkpt lat="43.96757" lon="6.4932">
        <ele>1233.5</ele>
        <time>2021-08-27T09:15:56.128Z</time>
      </trkpt>
      <trkpt lat="43.9676" lon="6.49325">
        <ele>1234.3</ele>
        <time>2021-08-27T09:16:14.791Z</time>
      </trkpt>
      <trkpt lat="43.96765" lon="6.49331">
        <ele>1235.5</ele>
        <time>2021-08-27T09:16:41.109Z</time>
      </trkpt>
      <trkpt lat="43.96769" lon="6.49341">
        <ele>1235.7</ele>
        <time>2021-08-27T09:16:52.046Z</time>
      </trkpt>
      <trkpt lat="43.96773" lon="6.49351">
        <ele>1235.6</ele>
        <time>2021-08-27T09:16:54.890Z</time>
      </trkpt>
      <trkpt lat="43.96776" lon="6.49363">
        <ele>1234.2</ele>
        <time>2021-08-27T09:16:56.913Z</time>
      </trkpt>
      <trkpt lat="43.96776" lon="6.49372">
        <ele>1232.2</ele>
        <time>2021-08-27T09:16:58.346Z</time>
      </trkpt>
      <trkpt lat="43.96779" lon="6.49377">
        <ele>1232.5</ele>
        <time>2021-08-27T09:17:07.663Z</time>
      </trkpt>
      <trkpt lat="43.96785" lon="6.49384">
        <ele>1233.8</ele>
        <time>2021-08-27T09:17:38.873Z</time>
      </trkpt>
      <trkpt lat="43.9679" lon="6.49389">
        <ele>1235.2</ele>
        <time>2021-08-27T09:18:03.412Z</time>
      </trkpt>
      <trkpt lat="43.96795" lon="6.49391">
        <ele>1236.8</ele>
        <time>2021-08-27T09:18:24.139Z</time>
      </trkpt>
      <trkpt lat="43.96801" lon="6.49396">
        <ele>1238.5</ele>
        <time>2021-08-27T09:18:52.009Z</time>
      </trkpt>
      <trkpt lat="43.96809" lon="6.49401">
        <ele>1241</ele>
        <time>2021-08-27T09:19:26.952Z</time>
      </trkpt>
      <trkpt lat="43.96813" lon="6.49407">
        <ele>1241</ele>
        <time>2021-08-27T09:19:33.031Z</time>
      </trkpt>
      <trkpt lat="43.9682" lon="6.49416">
        <ele>1241.3</ele>
        <time>2021-08-27T09:19:46.867Z</time>
      </trkpt>
      <trkpt lat="43.96825" lon="6.49423">
        <ele>1240.5</ele>
        <time>2021-08-27T09:19:48.438Z</time>
      </trkpt>
      <trkpt lat="43.9683" lon="6.49432">
        <ele>1238.4</ele>
        <time>2021-08-27T09:19:50.248Z</time>
      </trkpt>
      <trkpt lat="43.96832" lon="6.49435">
        <ele>1237.8</ele>
        <time>2021-08-27T09:19:50.899Z</time>
      </trkpt>
      <trkpt lat="43.96832" lon="6.49437">
        <ele>1236.9</ele>
        <time>2021-08-27T09:19:51.218Z</time>
      </trkpt>
      <trkpt lat="43.96833" lon="6.49435">
        <ele>1238.4</ele>
        <time>2021-08-27T09:19:58.199Z</time>
      </trkpt>
      <trkpt lat="43.96831" lon="6.49438">
        <ele>1236.2</ele>
        <time>2021-08-27T09:19:58.851Z</time>
      </trkpt>
      <trkpt lat="43.96831" lon="6.49443">
        <ele>1233.7</ele>
        <time>2021-08-27T09:19:59.647Z</time>
      </trkpt>
      <trkpt lat="43.96835" lon="6.49448">
        <ele>1233.2</ele>
        <time>2021-08-27T09:20:00.837Z</time>
      </trkpt>
      <trkpt lat="43.96841" lon="6.49456">
        <ele>1231.2</ele>
        <time>2021-08-27T09:20:02.677Z</time>
      </trkpt>
      <trkpt lat="43.96848" lon="6.49464">
        <ele>1230.3</ele>
        <time>2021-08-27T09:20:04.682Z</time>
      </trkpt>
      <trkpt lat="43.96853" lon="6.49467">
        <ele>1230.6</ele>
        <time>2021-08-27T09:20:14.856Z</time>
      </trkpt>
      <trkpt lat="43.96859" lon="6.49475">
        <ele>1228.9</ele>
        <time>2021-08-27T09:20:16.695Z</time>
      </trkpt>
      <trkpt lat="43.96863" lon="6.49481">
        <ele>1227.7</ele>
        <time>2021-08-27T09:20:17.998Z</time>
      </trkpt>
      <trkpt lat="43.9687" lon="6.49484">
        <ele>1229.4</ele>
        <time>2021-08-27T09:20:47.178Z</time>
      </trkpt>
      <trkpt lat="43.96879" lon="6.49486">
        <ele>1231.3</ele>
        <time>2021-08-27T09:21:23.485Z</time>
      </trkpt>
      <trkpt lat="43.96889" lon="6.4949">
        <ele>1233.5</ele>
        <time>2021-08-27T09:22:04.938Z</time>
      </trkpt>
      <trkpt lat="43.96896" lon="6.49493">
        <ele>1234.9</ele>
        <time>2021-08-27T09:22:34.118Z</time>
      </trkpt>
      <trkpt lat="43.96905" lon="6.49498">
        <ele>1236.3</ele>
        <time>2021-08-27T09:23:12.729Z</time>
      </trkpt>
      <trkpt lat="43.96911" lon="6.495">
        <ele>1238.1</ele>
        <time>2021-08-27T09:23:37.308Z</time>
      </trkpt>
      <trkpt lat="43.96916" lon="6.49502">
        <ele>1238.6</ele>
        <time>2021-08-27T09:23:50.770Z</time>
      </trkpt>
      <trkpt lat="43.96924" lon="6.49503">
        <ele>1241.3</ele>
        <time>2021-08-27T09:24:22.767Z</time>
      </trkpt>
      <trkpt lat="43.96933" lon="6.49504">
        <ele>1244.1</ele>
        <time>2021-08-27T09:24:58.732Z</time>
      </trkpt>
      <trkpt lat="43.9694" lon="6.49505">
        <ele>1246.6</ele>
        <time>2021-08-27T09:25:26.764Z</time>
      </trkpt>
      <trkpt lat="43.96948" lon="6.49507">
        <ele>1248.5</ele>
        <time>2021-08-27T09:25:59.143Z</time>
      </trkpt>
      <trkpt lat="43.96955" lon="6.49511">
        <ele>1249.4</ele>
        <time>2021-08-27T09:26:24.062Z</time>
      </trkpt>
      <trkpt lat="43.9696" lon="6.49513">
        <ele>1250.4</ele>
        <time>2021-08-27T09:26:44.788Z</time>
      </trkpt>
      <trkpt lat="43.96963" lon="6.49517">
        <ele>1249.7</ele>
        <time>2021-08-27T09:26:45.708Z</time>
      </trkpt>
      <trkpt lat="43.96968" lon="6.4952">
        <ele>1250.6</ele>
        <time>2021-08-27T09:27:07.403Z</time>
      </trkpt>
      <trkpt lat="43.96976" lon="6.49525">
        <ele>1251.3</ele>
        <time>2021-08-27T09:27:27.087Z</time>
      </trkpt>
      <trkpt lat="43.96983" lon="6.49528">
        <ele>1252.8</ele>
        <time>2021-08-27T09:27:56.268Z</time>
      </trkpt>
      <trkpt lat="43.96989" lon="6.49532">
        <ele>1253.3</ele>
        <time>2021-08-27T09:28:10.654Z</time>
      </trkpt>
      <trkpt lat="43.96996" lon="6.49535">
        <ele>1254.7</ele>
        <time>2021-08-27T09:28:39.835Z</time>
      </trkpt>
      <trkpt lat="43.97004" lon="6.4954">
        <ele>1255.8</ele>
        <time>2021-08-27T09:29:11.142Z</time>
      </trkpt>
      <trkpt lat="43.97012" lon="6.49544">
        <ele>1256.5</ele>
        <time>2021-08-27T09:29:30.622Z</time>
      </trkpt>
      <trkpt lat="43.9702" lon="6.49548">
        <ele>1258.2</ele>
        <time>2021-08-27T09:30:04.491Z</time>
      </trkpt>
      <trkpt lat="43.97027" lon="6.49555">
        <ele>1257.7</ele>
        <time>2021-08-27T09:30:06.362Z</time>
      </trkpt>
      <trkpt lat="43.97033" lon="6.49562">
        <ele>1256.8</ele>
        <time>2021-08-27T09:30:08.095Z</time>
      </trkpt>
      <trkpt lat="43.97041" lon="6.4957">
        <ele>1255.8</ele>
        <time>2021-08-27T09:30:10.276Z</time>
      </trkpt>
      <trkpt lat="43.97049" lon="6.49574">
        <ele>1256.9</ele>
        <time>2021-08-27T09:30:42.268Z</time>
      </trkpt>
      <trkpt lat="43.97055" lon="6.49575">
        <ele>1258.5</ele>
        <time>2021-08-27T09:31:06.341Z</time>
      </trkpt>
      <trkpt lat="43.97061" lon="6.49577">
        <ele>1259.4</ele>
        <time>2021-08-27T09:31:30.920Z</time>
      </trkpt>
      <trkpt lat="43.97065" lon="6.49581">
        <ele>1259.3</ele>
        <time>2021-08-27T09:31:32.460Z</time>
      </trkpt>
      <trkpt lat="43.97072" lon="6.49582">
        <ele>1260.7</ele>
        <time>2021-08-27T09:32:00.491Z</time>
      </trkpt>
      <trkpt lat="43.97078" lon="6.49583">
        <ele>1262.4</ele>
        <time>2021-08-27T09:32:24.563Z</time>
      </trkpt>
      <trkpt lat="43.97083" lon="6.49585">
        <ele>1263.3</ele>
        <time>2021-08-27T09:32:45.289Z</time>
      </trkpt>
      <trkpt lat="43.9709" lon="6.49585">
        <ele>1264.6</ele>
        <time>2021-08-27T09:33:13.174Z</time>
      </trkpt>
      <trkpt lat="43.97097" lon="6.49584">
        <ele>1265.9</ele>
        <time>2021-08-27T09:33:41.205Z</time>
      </trkpt>
      <trkpt lat="43.97104" lon="6.49583">
        <ele>1267.6</ele>
        <time>2021-08-27T09:34:09.236Z</time>
      </trkpt>
      <trkpt lat="43.97105" lon="6.49583">
        <ele>1267.9</ele>
        <time>2021-08-27T09:34:13.220Z</time>
      </trkpt>
      <trkpt lat="43.97107" lon="6.49582">
        <ele>1268.6</ele>
        <time>2021-08-27T09:34:21.687Z</time>
      </trkpt>
      <trkpt lat="43.97116" lon="6.49582">
        <ele>1270</ele>
        <time>2021-08-27T09:34:57.538Z</time>
      </trkpt>
      <trkpt lat="43.97123" lon="6.49583">
        <ele>1270.7</ele>
        <time>2021-08-27T09:35:16.341Z</time>
      </trkpt>
      <trkpt lat="43.97129" lon="6.49583">
        <ele>1271.8</ele>
        <time>2021-08-27T09:35:40.242Z</time>
      </trkpt>
      <trkpt lat="43.97133" lon="6.49583">
        <ele>1272.4</ele>
        <time>2021-08-27T09:35:56.176Z</time>
      </trkpt>
      <trkpt lat="43.97139" lon="6.49584">
        <ele>1273</ele>
        <time>2021-08-27T09:36:12.293Z</time>
      </trkpt>
      <trkpt lat="43.97143" lon="6.49584">
        <ele>1273.6</ele>
        <time>2021-08-27T09:36:28.227Z</time>
      </trkpt>
      <trkpt lat="43.97147" lon="6.49586">
        <ele>1273.6</ele>
        <time>2021-08-27T09:36:32.618Z</time>
      </trkpt>
      <trkpt lat="43.9715" lon="6.49585">
        <ele>1274.5</ele>
        <time>2021-08-27T09:36:44.907Z</time>
      </trkpt>
      <trkpt lat="43.97154" lon="6.49584">
        <ele>1275.6</ele>
        <time>2021-08-27T09:37:01.097Z</time>
      </trkpt>
      <trkpt lat="43.97156" lon="6.49584">
        <ele>1275.9</ele>
        <time>2021-08-27T09:37:09.064Z</time>
      </trkpt>
      <trkpt lat="43.97158" lon="6.49584">
        <ele>1276.1</ele>
        <time>2021-08-27T09:37:14.435Z</time>
      </trkpt>
      <trkpt lat="43.9716" lon="6.49585">
        <ele>1276.1</ele>
        <time>2021-08-27T09:37:16.630Z</time>
      </trkpt>
      <trkpt lat="43.97161" lon="6.49587">
        <ele>1275.6</ele>
        <time>2021-08-27T09:37:17.018Z</time>
      </trkpt>
      <trkpt lat="43.97162" lon="6.49587">
        <ele>1275.7</ele>
        <time>2021-08-27T09:37:19.704Z</time>
      </trkpt>
      <trkpt lat="43.97162" lon="6.49588">
        <ele>1275.1</ele>
        <time>2021-08-27T09:37:19.863Z</time>
      </trkpt>
      <trkpt lat="43.97165" lon="6.49587">
        <ele>1276.4</ele>
        <time>2021-08-27T09:37:32.152Z</time>
      </trkpt>
      <trkpt lat="43.97168" lon="6.49586">
        <ele>1277</ele>
        <time>2021-08-27T09:37:44.442Z</time>
      </trkpt>
      <trkpt lat="43.97171" lon="6.49585">
        <ele>1278</ele>
        <time>2021-08-27T09:37:56.731Z</time>
      </trkpt>
      <trkpt lat="43.97174" lon="6.4958">
        <ele>1281</ele>
        <time>2021-08-27T09:38:15.394Z</time>
      </trkpt>
      <trkpt lat="43.97177" lon="6.49575">
        <ele>1284.1</ele>
        <time>2021-08-27T09:38:34.056Z</time>
      </trkpt>
      <trkpt lat="43.97179" lon="6.49571">
        <ele>1286.4</ele>
        <time>2021-08-27T09:38:48.019Z</time>
      </trkpt>
      <trkpt lat="43.9718" lon="6.49567">
        <ele>1288.9</ele>
        <time>2021-08-27T09:39:00.159Z</time>
      </trkpt>
      <trkpt lat="43.97183" lon="6.49565">
        <ele>1290.1</ele>
        <time>2021-08-27T09:39:13.413Z</time>
      </trkpt>
      <trkpt lat="43.97185" lon="6.49562">
        <ele>1292.2</ele>
        <time>2021-08-27T09:39:25.137Z</time>
      </trkpt>
      <trkpt lat="43.97188" lon="6.49559">
        <ele>1294</ele>
        <time>2021-08-27T09:39:39.860Z</time>
      </trkpt>
      <trkpt lat="43.9719" lon="6.49558">
        <ele>1294.9</ele>
        <time>2021-08-27T09:39:48.327Z</time>
      </trkpt>
      <trkpt lat="43.97194" lon="6.49554">
        <ele>1296.7</ele>
        <time>2021-08-27T09:40:07.959Z</time>
      </trkpt>
      <trkpt lat="43.97197" lon="6.49551">
        <ele>1298.7</ele>
        <time>2021-08-27T09:40:22.682Z</time>
      </trkpt>
      <trkpt lat="43.972" lon="6.49547">
        <ele>1300.7</ele>
        <time>2021-08-27T09:40:39.244Z</time>
      </trkpt>
      <trkpt lat="43.97203" lon="6.49544">
        <ele>1302.6</ele>
        <time>2021-08-27T09:40:53.968Z</time>
      </trkpt>
      <trkpt lat="43.97207" lon="6.49541">
        <ele>1304</ele>
        <time>2021-08-27T09:41:12.075Z</time>
      </trkpt>
      <trkpt lat="43.97211" lon="6.49538">
        <ele>1305.6</ele>
        <time>2021-08-27T09:41:30.181Z</time>
      </trkpt>
      <trkpt lat="43.97214" lon="6.49534">
        <ele>1307.5</ele>
        <time>2021-08-27T09:41:46.744Z</time>
      </trkpt>
      <trkpt lat="43.97215" lon="6.49532">
        <ele>1308.3</ele>
        <time>2021-08-27T09:41:53.725Z</time>
      </trkpt>
      <trkpt lat="43.97217" lon="6.49527">
        <ele>1310.5</ele>
        <time>2021-08-27T09:42:10.125Z</time>
      </trkpt>
      <trkpt lat="43.97221" lon="6.49527">
        <ele>1310.6</ele>
        <time>2021-08-27T09:42:15.483Z</time>
      </trkpt>
      <trkpt lat="43.97223" lon="6.49521">
        <ele>1313.2</ele>
        <time>2021-08-27T09:42:34.439Z</time>
      </trkpt>
      <trkpt lat="43.97223" lon="6.49513">
        <ele>1316.4</ele>
        <time>2021-08-27T09:42:57.373Z</time>
      </trkpt>
      <trkpt lat="43.97225" lon="6.49512">
        <ele>1317</ele>
        <time>2021-08-27T09:43:05.841Z</time>
      </trkpt>
      <trkpt lat="43.97228" lon="6.49511">
        <ele>1317.2</ele>
        <time>2021-08-27T09:43:12.011Z</time>
      </trkpt>
      <trkpt lat="43.97228" lon="6.49509">
        <ele>1318.2</ele>
        <time>2021-08-27T09:43:17.745Z</time>
      </trkpt>
      <trkpt lat="43.97229" lon="6.49505">
        <ele>1319.5</ele>
        <time>2021-08-27T09:43:29.884Z</time>
      </trkpt>
      <trkpt lat="43.9723" lon="6.49503">
        <ele>1320.5</ele>
        <time>2021-08-27T09:43:36.866Z</time>
      </trkpt>
      <trkpt lat="43.97232" lon="6.49501">
        <ele>1321.2</ele>
        <time>2021-08-27T09:43:46.681Z</time>
      </trkpt>
      <trkpt lat="43.97232" lon="6.49498">
        <ele>1322.5</ele>
        <time>2021-08-27T09:43:55.282Z</time>
      </trkpt>
      <trkpt lat="43.97232" lon="6.49494">
        <ele>1324.3</ele>
        <time>2021-08-27T09:44:06.749Z</time>
      </trkpt>
      <trkpt lat="43.97233" lon="6.49488">
        <ele>1326.6</ele>
        <time>2021-08-27T09:44:24.405Z</time>
      </trkpt>
      <trkpt lat="43.97231" lon="6.49484">
        <ele>1328.7</ele>
        <time>2021-08-27T09:44:38.368Z</time>
      </trkpt>
      <trkpt lat="43.9723" lon="6.49482">
        <ele>1329.8</ele>
        <time>2021-08-27T09:44:45.350Z</time>
      </trkpt>
      <trkpt lat="43.97229" lon="6.49482">
        <ele>1329.9</ele>
        <time>2021-08-27T09:44:48.036Z</time>
      </trkpt>
      <trkpt lat="43.97226" lon="6.49485">
        <ele>1328.8</ele>
        <time>2021-08-27T09:44:48.853Z</time>
      </trkpt>
      <trkpt lat="43.97224" lon="6.49488">
        <ele>1327.7</ele>
        <time>2021-08-27T09:44:49.504Z</time>
      </trkpt>
      <trkpt lat="43.97222" lon="6.49489">
        <ele>1327.5</ele>
        <time>2021-08-27T09:44:49.975Z</time>
      </trkpt>
      <trkpt lat="43.9722" lon="6.49485">
        <ele>1329.3</ele>
        <time>2021-08-27T09:45:03.938Z</time>
      </trkpt>
      <trkpt lat="43.97218" lon="6.49478">
        <ele>1333.1</ele>
        <time>2021-08-27T09:45:25.529Z</time>
      </trkpt>
      <trkpt lat="43.97218" lon="6.49474">
        <ele>1334.8</ele>
        <time>2021-08-27T09:45:36.996Z</time>
      </trkpt>
      <trkpt lat="43.97217" lon="6.49474">
        <ele>1334.9</ele>
        <time>2021-08-27T09:45:39.682Z</time>
      </trkpt>
      <trkpt lat="43.97215" lon="6.49479">
        <ele>1333</ele>
        <time>2021-08-27T09:45:40.593Z</time>
      </trkpt>
      <trkpt lat="43.97212" lon="6.49484">
        <ele>1330.9</ele>
        <time>2021-08-27T09:45:41.629Z</time>
      </trkpt>
      <trkpt lat="43.97209" lon="6.49487">
        <ele>1329.8</ele>
        <time>2021-08-27T09:45:42.447Z</time>
      </trkpt>
      <trkpt lat="43.97205" lon="6.4949">
        <ele>1328.7</ele>
        <time>2021-08-27T09:45:43.452Z</time>
      </trkpt>
      <trkpt lat="43.97199" lon="6.49491">
        <ele>1328.5</ele>
        <time>2021-08-27T09:45:45.095Z</time>
      </trkpt>
      <trkpt lat="43.97195" lon="6.49491">
        <ele>1329</ele>
        <time>2021-08-27T09:45:59.298Z</time>
      </trkpt>
      <trkpt lat="43.97191" lon="6.49493">
        <ele>1328.7</ele>
        <time>2021-08-27T09:46:00.238Z</time>
      </trkpt>
      <trkpt lat="43.97185" lon="6.49495">
        <ele>1328</ele>
        <time>2021-08-27T09:46:01.603Z</time>
      </trkpt>
      <trkpt lat="43.97179" lon="6.49498">
        <ele>1327.2</ele>
        <time>2021-08-27T09:46:03.014Z</time>
      </trkpt>
      <trkpt lat="43.97173" lon="6.49497">
        <ele>1328</ele>
        <time>2021-08-27T09:46:26.726Z</time>
      </trkpt>
      <trkpt lat="43.97169" lon="6.49499">
        <ele>1327.4</ele>
        <time>2021-08-27T09:46:27.667Z</time>
      </trkpt>
      <trkpt lat="43.97165" lon="6.49499">
        <ele>1327.1</ele>
        <time>2021-08-27T09:46:28.552Z</time>
      </trkpt>
      <trkpt lat="43.97158" lon="6.495">
        <ele>1324.6</ele>
        <time>2021-08-27T09:46:30.109Z</time>
      </trkpt>
      <trkpt lat="43.97157" lon="6.495">
        <ele>1324.3</ele>
        <time>2021-08-27T09:46:30.330Z</time>
      </trkpt>
      <trkpt lat="43.97151" lon="6.49499">
        <ele>1322.5</ele>
        <time>2021-08-27T09:46:31.667Z</time>
      </trkpt>
      <trkpt lat="43.97145" lon="6.49496">
        <ele>1322.6</ele>
        <time>2021-08-27T09:46:39.357Z</time>
      </trkpt>
      <trkpt lat="43.97143" lon="6.49492">
        <ele>1324.3</ele>
        <time>2021-08-27T09:46:53.320Z</time>
      </trkpt>
      <trkpt lat="43.9714" lon="6.49488">
        <ele>1325.5</ele>
        <time>2021-08-27T09:47:09.883Z</time>
      </trkpt>
      <trkpt lat="43.97139" lon="6.49485">
        <ele>1327</ele>
        <time>2021-08-27T09:47:19.361Z</time>
      </trkpt>
      <trkpt lat="43.9714" lon="6.49485">
        <ele>1327.3</ele>
        <time>2021-08-27T09:47:23.344Z</time>
      </trkpt>
      <trkpt lat="43.97141" lon="6.49486">
        <ele>1327</ele>
        <time>2021-08-27T09:47:23.617Z</time>
      </trkpt>
      <trkpt lat="43.97141" lon="6.49485">
        <ele>1327.4</ele>
        <time>2021-08-27T09:47:26.484Z</time>
      </trkpt>
      <trkpt lat="43.9714" lon="6.49486">
        <ele>1326.7</ele>
        <time>2021-08-27T09:47:26.756Z</time>
      </trkpt>
      <trkpt lat="43.9714" lon="6.49487">
        <ele>1326.1</ele>
        <time>2021-08-27T09:47:26.915Z</time>
      </trkpt>
      <trkpt lat="43.97141" lon="6.49489">
        <ele>1325.7</ele>
        <time>2021-08-27T09:47:27.303Z</time>
      </trkpt>
      <trkpt lat="43.97143" lon="6.49489">
        <ele>1326.1</ele>
        <time>2021-08-27T09:47:35.270Z</time>
      </trkpt>
      <trkpt lat="43.97144" lon="6.49491">
        <ele>1325.4</ele>
        <time>2021-08-27T09:47:35.658Z</time>
      </trkpt>
      <trkpt lat="43.97142" lon="6.49491">
        <ele>1324.8</ele>
        <time>2021-08-27T09:47:36.100Z</time>
      </trkpt>
      <trkpt lat="43.97141" lon="6.4949">
        <ele>1324.8</ele>
        <time>2021-08-27T09:47:37.373Z</time>
      </trkpt>
      <trkpt lat="43.97143" lon="6.4949">
        <ele>1325.2</ele>
        <time>2021-08-27T09:47:45.340Z</time>
      </trkpt>
      <trkpt lat="43.97144" lon="6.4949">
        <ele>1325.5</ele>
        <time>2021-08-27T09:47:49.323Z</time>
      </trkpt>
      <trkpt lat="43.97145" lon="6.49491">
        <ele>1325.6</ele>
        <time>2021-08-27T09:47:52.119Z</time>
      </trkpt>
      <trkpt lat="43.97143" lon="6.4949">
        <ele>1325.4</ele>
        <time>2021-08-27T09:47:52.589Z</time>
      </trkpt>
      <trkpt lat="43.97141" lon="6.4949">
        <ele>1324.8</ele>
        <time>2021-08-27T09:47:53.032Z</time>
      </trkpt>
      <trkpt lat="43.97139" lon="6.4949">
        <ele>1324.2</ele>
        <time>2021-08-27T09:47:53.474Z</time>
      </trkpt>
      <trkpt lat="43.97138" lon="6.49491">
        <ele>1323.3</ele>
        <time>2021-08-27T09:47:53.747Z</time>
      </trkpt>
      <trkpt lat="43.97139" lon="6.49492">
        <ele>1322.9</ele>
        <time>2021-08-27T09:47:54.019Z</time>
      </trkpt>
      <trkpt lat="43.97141" lon="6.49495">
        <ele>1322.4</ele>
        <time>2021-08-27T09:47:54.670Z</time>
      </trkpt>
      <trkpt lat="43.97142" lon="6.49493">
        <ele>1323.3</ele>
        <time>2021-08-27T09:48:01.652Z</time>
      </trkpt>
      <trkpt lat="43.97142" lon="6.49492">
        <ele>1324.2</ele>
        <time>2021-08-27T09:48:04.519Z</time>
      </trkpt>
      <trkpt lat="43.97141" lon="6.49491">
        <ele>1324.1</ele>
        <time>2021-08-27T09:48:04.791Z</time>
      </trkpt>
      <trkpt lat="43.9714" lon="6.49491">
        <ele>1323.9</ele>
        <time>2021-08-27T09:48:05.013Z</time>
      </trkpt>
      <trkpt lat="43.97139" lon="6.49492">
        <ele>1323.4</ele>
        <time>2021-08-27T09:48:05.285Z</time>
      </trkpt>
      <trkpt lat="43.97138" lon="6.49491">
        <ele>1323.1</ele>
        <time>2021-08-27T09:48:05.558Z</time>
      </trkpt>
      <trkpt lat="43.97138" lon="6.49493">
        <ele>1322.3</ele>
        <time>2021-08-27T09:48:05.876Z</time>
      </trkpt>
      <trkpt lat="43.97138" lon="6.49494">
        <ele>1322</ele>
        <time>2021-08-27T09:48:06.035Z</time>
      </trkpt>
      <trkpt lat="43.97137" lon="6.49493">
        <ele>1322</ele>
        <time>2021-08-27T09:48:07.308Z</time>
      </trkpt>
      <trkpt lat="43.97137" lon="6.49494">
        <ele>1321.3</ele>
        <time>2021-08-27T09:48:07.467Z</time>
      </trkpt>
      <trkpt lat="43.97138" lon="6.49494">
        <ele>1321.5</ele>
        <time>2021-08-27T09:48:11.450Z</time>
      </trkpt>
      <trkpt lat="43.9714" lon="6.49494">
        <ele>1322.6</ele>
        <time>2021-08-27T09:48:19.417Z</time>
      </trkpt>
      <trkpt lat="43.97141" lon="6.49492">
        <ele>1324.1</ele>
        <time>2021-08-27T09:48:26.399Z</time>
      </trkpt>
      <trkpt lat="43.97139" lon="6.49493">
        <ele>1322.6</ele>
        <time>2021-08-27T09:48:26.869Z</time>
      </trkpt>
      <trkpt lat="43.97139" lon="6.49494">
        <ele>1321.9</ele>
        <time>2021-08-27T09:48:27.029Z</time>
      </trkpt>
      <trkpt lat="43.97138" lon="6.49495">
        <ele>1321.3</ele>
        <time>2021-08-27T09:48:27.301Z</time>
      </trkpt>
      <trkpt lat="43.9714" lon="6.49493">
        <ele>1322.8</ele>
        <time>2021-08-27T09:48:37.117Z</time>
      </trkpt>
      <trkpt lat="43.97141" lon="6.49491">
        <ele>1324</ele>
        <time>2021-08-27T09:48:44.098Z</time>
      </trkpt>
      <trkpt lat="43.97141" lon="6.4949">
        <ele>1324.5</ele>
        <time>2021-08-27T09:48:46.965Z</time>
      </trkpt>
      <trkpt lat="43.9714" lon="6.49491">
        <ele>1324</ele>
        <time>2021-08-27T09:48:47.238Z</time>
      </trkpt>
      <trkpt lat="43.97139" lon="6.49491">
        <ele>1323.6</ele>
        <time>2021-08-27T09:48:47.459Z</time>
      </trkpt>
      <trkpt lat="43.97138" lon="6.49492">
        <ele>1323</ele>
        <time>2021-08-27T09:48:47.732Z</time>
      </trkpt>
      <trkpt lat="43.97139" lon="6.49491">
        <ele>1323.4</ele>
        <time>2021-08-27T09:48:52.639Z</time>
      </trkpt>
      <trkpt lat="43.97139" lon="6.4949">
        <ele>1324.1</ele>
        <time>2021-08-27T09:48:55.506Z</time>
      </trkpt>
      <trkpt lat="43.97139" lon="6.49492">
        <ele>1323.4</ele>
        <time>2021-08-27T09:48:55.825Z</time>
      </trkpt>
      <trkpt lat="43.97139" lon="6.49493">
        <ele>1322.9</ele>
        <time>2021-08-27T09:48:55.984Z</time>
      </trkpt>
      <trkpt lat="43.9714" lon="6.49493">
        <ele>1322.9</ele>
        <time>2021-08-27T09:48:57.017Z</time>
      </trkpt>
      <trkpt lat="43.97139" lon="6.49491">
        <ele>1323.7</ele>
        <time>2021-08-27T09:49:03.998Z</time>
      </trkpt>
      <trkpt lat="43.97139" lon="6.49489">
        <ele>1324.8</ele>
        <time>2021-08-27T09:49:09.732Z</time>
      </trkpt>
      <trkpt lat="43.97141" lon="6.4949">
        <ele>1324.8</ele>
        <time>2021-08-27T09:49:11.927Z</time>
      </trkpt>
      <trkpt lat="43.97139" lon="6.49493">
        <ele>1322.4</ele>
        <time>2021-08-27T09:49:12.578Z</time>
      </trkpt>
      <trkpt lat="43.97135" lon="6.49497">
        <ele>1319.2</ele>
        <time>2021-08-27T09:49:13.669Z</time>
      </trkpt>
      <trkpt lat="43.97134" lon="6.49495">
        <ele>1319.8</ele>
        <time>2021-08-27T09:49:20.650Z</time>
      </trkpt>
      <trkpt lat="43.97135" lon="6.49495">
        <ele>1320.3</ele>
        <time>2021-08-27T09:49:24.634Z</time>
      </trkpt>
      <trkpt lat="43.97137" lon="6.49493">
        <ele>1321.8</ele>
        <time>2021-08-27T09:49:34.449Z</time>
      </trkpt>
      <trkpt lat="43.97138" lon="6.49494">
        <ele>1321.6</ele>
        <time>2021-08-27T09:49:34.722Z</time>
      </trkpt>
      <trkpt lat="43.97141" lon="6.49496">
        <ele>1321.1</ele>
        <time>2021-08-27T09:49:35.458Z</time>
      </trkpt>
      <trkpt lat="43.97142" lon="6.49493">
        <ele>1323.3</ele>
        <time>2021-08-27T09:49:44.936Z</time>
      </trkpt>
      <trkpt lat="43.97143" lon="6.49494">
        <ele>1323</ele>
        <time>2021-08-27T09:49:45.209Z</time>
      </trkpt>
      <trkpt lat="43.97145" lon="6.49494">
        <ele>1323.7</ele>
        <time>2021-08-27T09:49:53.176Z</time>
      </trkpt>
      <trkpt lat="43.97144" lon="6.49493">
        <ele>1324.2</ele>
        <time>2021-08-27T09:49:58.084Z</time>
      </trkpt>
      <trkpt lat="43.97143" lon="6.49495">
        <ele>1322.8</ele>
        <time>2021-08-27T09:49:58.471Z</time>
      </trkpt>
      <trkpt lat="43.97142" lon="6.49498">
        <ele>1320.7</ele>
        <time>2021-08-27T09:49:58.998Z</time>
      </trkpt>
      <trkpt lat="43.97148" lon="6.49502">
        <ele>1319.9</ele>
        <time>2021-08-27T09:50:00.470Z</time>
      </trkpt>
      <trkpt lat="43.97156" lon="6.49502">
        <ele>1322.5</ele>
        <time>2021-08-27T09:50:32.338Z</time>
      </trkpt>
      <trkpt lat="43.97164" lon="6.49498">
        <ele>1327</ele>
        <time>2021-08-27T09:51:06.206Z</time>
      </trkpt>
      <trkpt lat="43.9717" lon="6.49497">
        <ele>1328.5</ele>
        <time>2021-08-27T09:51:30.278Z</time>
      </trkpt>
      <trkpt lat="43.9718" lon="6.49492">
        <ele>1330.1</ele>
        <time>2021-08-27T09:52:12.613Z</time>
      </trkpt>
      <trkpt lat="43.97187" lon="6.49488">
        <ele>1331.5</ele>
        <time>2021-08-27T09:52:42.764Z</time>
      </trkpt>
      <trkpt lat="43.97195" lon="6.49488">
        <ele>1330.7</ele>
        <time>2021-08-27T09:52:44.534Z</time>
      </trkpt>
      <trkpt lat="43.97203" lon="6.49487">
        <ele>1330.1</ele>
        <time>2021-08-27T09:52:46.310Z</time>
      </trkpt>
      <trkpt lat="43.97209" lon="6.49486">
        <ele>1330</ele>
        <time>2021-08-27T09:52:48.285Z</time>
      </trkpt>
      <trkpt lat="43.97213" lon="6.49485">
        <ele>1330.4</ele>
        <time>2021-08-27T09:52:59.035Z</time>
      </trkpt>
      <trkpt lat="43.97217" lon="6.49477">
        <ele>1333.4</ele>
        <time>2021-08-27T09:53:26.961Z</time>
      </trkpt>
      <trkpt lat="43.97219" lon="6.49472">
        <ele>1335.4</ele>
        <time>2021-08-27T09:53:43.361Z</time>
      </trkpt>
      <trkpt lat="43.97219" lon="6.49468">
        <ele>1337.3</ele>
        <time>2021-08-27T09:53:54.828Z</time>
      </trkpt>
      <trkpt lat="43.9722" lon="6.49464">
        <ele>1339.4</ele>
        <time>2021-08-27T09:54:06.967Z</time>
      </trkpt>
      <trkpt lat="43.9722" lon="6.49462">
        <ele>1340.1</ele>
        <time>2021-08-27T09:54:12.701Z</time>
      </trkpt>
      <trkpt lat="43.9722" lon="6.49459">
        <ele>1341.6</ele>
        <time>2021-08-27T09:54:21.302Z</time>
      </trkpt>
      <trkpt lat="43.97222" lon="6.49456">
        <ele>1342.6</ele>
        <time>2021-08-27T09:54:33.025Z</time>
      </trkpt>
      <trkpt lat="43.97223" lon="6.49454">
        <ele>1343.5</ele>
        <time>2021-08-27T09:54:40.007Z</time>
      </trkpt>
      <trkpt lat="43.97223" lon="6.49452">
        <ele>1344.5</ele>
        <time>2021-08-27T09:54:45.740Z</time>
      </trkpt>
      <trkpt lat="43.97225" lon="6.49448">
        <ele>1345.6</ele>
        <time>2021-08-27T09:54:59.703Z</time>
      </trkpt>
      <trkpt lat="43.97224" lon="6.49447">
        <ele>1346.5</ele>
        <time>2021-08-27T09:55:04.611Z</time>
      </trkpt>
      <trkpt lat="43.97222" lon="6.49446">
        <ele>1347</ele>
        <time>2021-08-27T09:55:13.078Z</time>
      </trkpt>
      <trkpt lat="43.97221" lon="6.49445">
        <ele>1347.9</ele>
        <time>2021-08-27T09:55:17.986Z</time>
      </trkpt>
      <trkpt lat="43.97223" lon="6.49439">
        <ele>1350.3</ele>
        <time>2021-08-27T09:55:36.942Z</time>
      </trkpt>
      <trkpt lat="43.97226" lon="6.49432">
        <ele>1352.8</ele>
        <time>2021-08-27T09:56:00.299Z</time>
      </trkpt>
      <trkpt lat="43.9723" lon="6.4943">
        <ele>1353</ele>
        <time>2021-08-27T09:56:07.830Z</time>
      </trkpt>
      <trkpt lat="43.97231" lon="6.49429">
        <ele>1353.3</ele>
        <time>2021-08-27T09:56:12.738Z</time>
      </trkpt>
      <trkpt lat="43.97233" lon="6.4943">
        <ele>1352.5</ele>
        <time>2021-08-27T09:56:13.208Z</time>
      </trkpt>
      <trkpt lat="43.97238" lon="6.49426">
        <ele>1353.3</ele>
        <time>2021-08-27T09:56:36.190Z</time>
      </trkpt>
      <trkpt lat="43.97243" lon="6.49422">
        <ele>1354.2</ele>
        <time>2021-08-27T09:56:59.173Z</time>
      </trkpt>
      <trkpt lat="43.97248" lon="6.49421">
        <ele>1353.5</ele>
        <time>2021-08-27T09:57:00.291Z</time>
      </trkpt>
      <trkpt lat="43.97247" lon="6.49418">
        <ele>1355</ele>
        <time>2021-08-27T09:57:09.769Z</time>
      </trkpt>
      <trkpt lat="43.97249" lon="6.49416">
        <ele>1355.3</ele>
        <time>2021-08-27T09:57:18.166Z</time>
      </trkpt>
      <trkpt lat="43.97251" lon="6.49412">
        <ele>1356.7</ele>
        <time>2021-08-27T09:57:32.129Z</time>
      </trkpt>
      <trkpt lat="43.97251" lon="6.49405">
        <ele>1359.1</ele>
        <time>2021-08-27T09:57:52.197Z</time>
      </trkpt>
      <trkpt lat="43.97251" lon="6.49399">
        <ele>1361.3</ele>
        <time>2021-08-27T09:58:09.398Z</time>
      </trkpt>
      <trkpt lat="43.97254" lon="6.49396">
        <ele>1362.6</ele>
        <time>2021-08-27T09:58:24.121Z</time>
      </trkpt>
      <trkpt lat="43.97253" lon="6.49392">
        <ele>1364</ele>
        <time>2021-08-27T09:58:36.260Z</time>
      </trkpt>
      <trkpt lat="43.97252" lon="6.49387">
        <ele>1365.6</ele>
        <time>2021-08-27T09:58:51.138Z</time>
      </trkpt>
      <trkpt lat="43.97255" lon="6.49384">
        <ele>1367.1</ele>
        <time>2021-08-27T09:59:05.861Z</time>
      </trkpt>
      <trkpt lat="43.97255" lon="6.49378">
        <ele>1369.2</ele>
        <time>2021-08-27T09:59:23.062Z</time>
      </trkpt>
      <trkpt lat="43.97257" lon="6.49373">
        <ele>1370.8</ele>
        <time>2021-08-27T09:59:39.461Z</time>
      </trkpt>
      <trkpt lat="43.97258" lon="6.4937">
        <ele>1372</ele>
        <time>2021-08-27T09:59:48.939Z</time>
      </trkpt>
      <trkpt lat="43.9726" lon="6.49366">
        <ele>1373.2</ele>
        <time>2021-08-27T10:00:02.902Z</time>
      </trkpt>
      <trkpt lat="43.97261" lon="6.49362">
        <ele>1374.6</ele>
        <time>2021-08-27T10:00:15.042Z</time>
      </trkpt>
      <trkpt lat="43.97263" lon="6.49358">
        <ele>1376</ele>
        <time>2021-08-27T10:00:29.005Z</time>
      </trkpt>
      <trkpt lat="43.97264" lon="6.49355">
        <ele>1377.2</ele>
        <time>2021-08-27T10:00:38.483Z</time>
      </trkpt>
      <trkpt lat="43.97264" lon="6.49352">
        <ele>1378.2</ele>
        <time>2021-08-27T10:00:47.083Z</time>
      </trkpt>
      <trkpt lat="43.97266" lon="6.49348">
        <ele>1379.4</ele>
        <time>2021-08-27T10:01:01.046Z</time>
      </trkpt>
      <trkpt lat="43.97264" lon="6.49349">
        <ele>1379.1</ele>
        <time>2021-08-27T10:01:01.516Z</time>
      </trkpt>
      <trkpt lat="43.97261" lon="6.49351">
        <ele>1378.6</ele>
        <time>2021-08-27T10:01:02.253Z</time>
      </trkpt>
      <trkpt lat="43.9726" lon="6.4935">
        <ele>1378.8</ele>
        <time>2021-08-27T10:01:07.160Z</time>
      </trkpt>
      <trkpt lat="43.97262" lon="6.49345">
        <ele>1380.5</ele>
        <time>2021-08-27T10:01:23.560Z</time>
      </trkpt>
      <trkpt lat="43.97261" lon="6.49341">
        <ele>1382</ele>
        <time>2021-08-27T10:01:35.699Z</time>
      </trkpt>
      <trkpt lat="43.97263" lon="6.49331">
        <ele>1385.3</ele>
        <time>2021-08-27T10:02:05.453Z</time>
      </trkpt>
      <trkpt lat="43.9726" lon="6.4933">
        <ele>1385.9</ele>
        <time>2021-08-27T10:02:17.743Z</time>
      </trkpt>
      <trkpt lat="43.97258" lon="6.49332">
        <ele>1385.3</ele>
        <time>2021-08-27T10:02:18.288Z</time>
      </trkpt>
      <trkpt lat="43.97256" lon="6.49337">
        <ele>1383.6</ele>
        <time>2021-08-27T10:02:19.199Z</time>
      </trkpt>
      <trkpt lat="43.97254" lon="6.49331">
        <ele>1385.9</ele>
        <time>2021-08-27T10:02:38.155Z</time>
      </trkpt>
      <trkpt lat="43.97254" lon="6.49322">
        <ele>1389.2</ele>
        <time>2021-08-27T10:03:03.956Z</time>
      </trkpt>
      <trkpt lat="43.97255" lon="6.49317">
        <ele>1391.3</ele>
        <time>2021-08-27T10:03:18.833Z</time>
      </trkpt>
      <trkpt lat="43.97253" lon="6.49313">
        <ele>1393.1</ele>
        <time>2021-08-27T10:03:32.796Z</time>
      </trkpt>
      <trkpt lat="43.97253" lon="6.4931">
        <ele>1394.3</ele>
        <time>2021-08-27T10:03:41.397Z</time>
      </trkpt>
      <trkpt lat="43.97253" lon="6.49304">
        <ele>1396.3</ele>
        <time>2021-08-27T10:03:58.598Z</time>
      </trkpt>
      <trkpt lat="43.97253" lon="6.49301">
        <ele>1397.9</ele>
        <time>2021-08-27T10:04:07.198Z</time>
      </trkpt>
      <trkpt lat="43.97253" lon="6.49297">
        <ele>1399.4</ele>
        <time>2021-08-27T10:04:18.665Z</time>
      </trkpt>
      <trkpt lat="43.97252" lon="6.4929">
        <ele>1402</ele>
        <time>2021-08-27T10:04:39.124Z</time>
      </trkpt>
      <trkpt lat="43.97252" lon="6.49286">
        <ele>1403.7</ele>
        <time>2021-08-27T10:04:50.591Z</time>
      </trkpt>
      <trkpt lat="43.97254" lon="6.49284">
        <ele>1404.6</ele>
        <time>2021-08-27T10:05:00.407Z</time>
      </trkpt>
      <trkpt lat="43.97254" lon="6.49279">
        <ele>1406.4</ele>
        <time>2021-08-27T10:05:14.741Z</time>
      </trkpt>
      <trkpt lat="43.97253" lon="6.4928">
        <ele>1406.1</ele>
        <time>2021-08-27T10:05:15.014Z</time>
      </trkpt>
      <trkpt lat="43.97252" lon="6.4928">
        <ele>1406.1</ele>
        <time>2021-08-27T10:05:16.046Z</time>
      </trkpt>
      <trkpt lat="43.97253" lon="6.49275">
        <ele>1408.1</ele>
        <time>2021-08-27T10:05:30.924Z</time>
      </trkpt>
      <trkpt lat="43.97257" lon="6.49274">
        <ele>1408.5</ele>
        <time>2021-08-27T10:05:41.673Z</time>
      </trkpt>
      <trkpt lat="43.97261" lon="6.49276">
        <ele>1407.6</ele>
        <time>2021-08-27T10:05:42.614Z</time>
      </trkpt>
      <trkpt lat="43.97268" lon="6.49276">
        <ele>1407.3</ele>
        <time>2021-08-27T10:05:44.345Z</time>
      </trkpt>
      <trkpt lat="43.97274" lon="6.49279">
        <ele>1406.2</ele>
        <time>2021-08-27T10:05:45.755Z</time>
      </trkpt>
      <trkpt lat="43.97278" lon="6.49282">
        <ele>1404.7</ele>
        <time>2021-08-27T10:05:46.761Z</time>
      </trkpt>
      <trkpt lat="43.97283" lon="6.49288">
        <ele>1402.2</ele>
        <time>2021-08-27T10:05:48.223Z</time>
      </trkpt>
      <trkpt lat="43.97289" lon="6.49294">
        <ele>1399.7</ele>
        <time>2021-08-27T10:05:49.858Z</time>
      </trkpt>
      <trkpt lat="43.97295" lon="6.49296">
        <ele>1398.6</ele>
        <time>2021-08-27T10:05:51.223Z</time>
      </trkpt>
      <trkpt lat="43.97303" lon="6.49298">
        <ele>1397.7</ele>
        <time>2021-08-27T10:05:53.021Z</time>
      </trkpt>
      <trkpt lat="43.97308" lon="6.49297">
        <ele>1397.7</ele>
        <time>2021-08-27T10:05:58.238Z</time>
      </trkpt>
      <trkpt lat="43.97316" lon="6.49296">
        <ele>1398</ele>
        <time>2021-08-27T10:06:10.847Z</time>
      </trkpt>
      <trkpt lat="43.97324" lon="6.49294">
        <ele>1398.7</ele>
        <time>2021-08-27T10:06:30.076Z</time>
      </trkpt>
      <trkpt lat="43.97329" lon="6.49293">
        <ele>1399.2</ele>
        <time>2021-08-27T10:06:43.509Z</time>
      </trkpt>
      <trkpt lat="43.97334" lon="6.49291">
        <ele>1400.1</ele>
        <time>2021-08-27T10:07:04.236Z</time>
      </trkpt>
      <trkpt lat="43.97339" lon="6.49288">
        <ele>1402.7</ele>
        <time>2021-08-27T10:07:25.931Z</time>
      </trkpt>
      <trkpt lat="43.97343" lon="6.49286">
        <ele>1404.5</ele>
        <time>2021-08-27T10:07:42.865Z</time>
      </trkpt>
      <trkpt lat="43.97349" lon="6.49283">
        <ele>1407.1</ele>
        <time>2021-08-27T10:08:08.266Z</time>
      </trkpt>
      <trkpt lat="43.97353" lon="6.4928">
        <ele>1409</ele>
        <time>2021-08-27T10:08:26.372Z</time>
      </trkpt>
      <trkpt lat="43.97359" lon="6.49277">
        <ele>1411.4</ele>
        <time>2021-08-27T10:08:51.773Z</time>
      </trkpt>
      <trkpt lat="43.97363" lon="6.49276">
        <ele>1412.5</ele>
        <time>2021-08-27T10:09:07.963Z</time>
      </trkpt>
      <trkpt lat="43.97368" lon="6.49276">
        <ele>1413.9</ele>
        <time>2021-08-27T10:09:27.880Z</time>
      </trkpt>
      <trkpt lat="43.97374" lon="6.49273">
        <ele>1416.1</ele>
        <time>2021-08-27T10:09:53.282Z</time>
      </trkpt>
      <trkpt lat="43.97379" lon="6.49269">
        <ele>1418.2</ele>
        <time>2021-08-27T10:10:16.264Z</time>
      </trkpt>
      <trkpt lat="43.97383" lon="6.49269">
        <ele>1419.2</ele>
        <time>2021-08-27T10:10:32.198Z</time>
      </trkpt>
      <trkpt lat="43.97388" lon="6.49268">
        <ele>1420.3</ele>
        <time>2021-08-27T10:10:52.320Z</time>
      </trkpt>
      <trkpt lat="43.97389" lon="6.49268">
        <ele>1420.5</ele>
        <time>2021-08-27T10:10:56.304Z</time>
      </trkpt>
      <trkpt lat="43.97386" lon="6.49269">
        <ele>1419.7</ele>
        <time>2021-08-27T10:10:56.986Z</time>
      </trkpt>
      <trkpt lat="43.97385" lon="6.49266">
        <ele>1420.2</ele>
        <time>2021-08-27T10:11:06.464Z</time>
      </trkpt>
      <trkpt lat="43.97391" lon="6.49263">
        <ele>1422.3</ele>
        <time>2021-08-27T10:11:31.865Z</time>
      </trkpt>
      <trkpt lat="43.97397" lon="6.49264">
        <ele>1422.9</ele>
        <time>2021-08-27T10:11:47.983Z</time>
      </trkpt>
      <trkpt lat="43.97401" lon="6.49261">
        <ele>1424.4</ele>
        <time>2021-08-27T10:12:06.090Z</time>
      </trkpt>
      <trkpt lat="43.97405" lon="6.4926">
        <ele>1425.3</ele>
        <time>2021-08-27T10:12:22.280Z</time>
      </trkpt>
      <trkpt lat="43.97408" lon="6.49262">
        <ele>1425.5</ele>
        <time>2021-08-27T10:12:28.714Z</time>
      </trkpt>
      <trkpt lat="43.97413" lon="6.49259">
        <ele>1427</ele>
        <time>2021-08-27T10:12:50.409Z</time>
      </trkpt>
      <trkpt lat="43.97417" lon="6.49258">
        <ele>1427.8</ele>
        <time>2021-08-27T10:13:06.599Z</time>
      </trkpt>
      <trkpt lat="43.97421" lon="6.49256">
        <ele>1429.8</ele>
        <time>2021-08-27T10:13:23.533Z</time>
      </trkpt>
      <trkpt lat="43.97427" lon="6.49251">
        <ele>1433.1</ele>
        <time>2021-08-27T10:13:51.402Z</time>
      </trkpt>
      <trkpt lat="43.97431" lon="6.49249">
        <ele>1435.1</ele>
        <time>2021-08-27T10:14:08.336Z</time>
      </trkpt>
      <trkpt lat="43.97435" lon="6.49246">
        <ele>1437.4</ele>
        <time>2021-08-27T10:14:26.443Z</time>
      </trkpt>
      <trkpt lat="43.97437" lon="6.49244">
        <ele>1439.1</ele>
        <time>2021-08-27T10:14:36.258Z</time>
      </trkpt>
      <trkpt lat="43.97439" lon="6.49249">
        <ele>1438.3</ele>
        <time>2021-08-27T10:14:37.169Z</time>
      </trkpt>
      <trkpt lat="43.97437" lon="6.49254">
        <ele>1436.3</ele>
        <time>2021-08-27T10:14:38.080Z</time>
      </trkpt>
      <trkpt lat="43.97436" lon="6.49259">
        <ele>1435.3</ele>
        <time>2021-08-27T10:14:38.906Z</time>
      </trkpt>
      <trkpt lat="43.97438" lon="6.4926">
        <ele>1436</ele>
        <time>2021-08-27T10:14:47.373Z</time>
      </trkpt>
      <trkpt lat="43.97437" lon="6.49263">
        <ele>1435.1</ele>
        <time>2021-08-27T10:14:47.900Z</time>
      </trkpt>
      <trkpt lat="43.97438" lon="6.4927">
        <ele>1434.3</ele>
        <time>2021-08-27T10:14:49.036Z</time>
      </trkpt>
      <trkpt lat="43.97438" lon="6.49276">
        <ele>1433.4</ele>
        <time>2021-08-27T10:14:49.991Z</time>
      </trkpt>
      <trkpt lat="43.97439" lon="6.49283">
        <ele>1432.6</ele>
        <time>2021-08-27T10:14:51.127Z</time>
      </trkpt>
      <trkpt lat="43.9744" lon="6.49293">
        <ele>1431.7</ele>
        <time>2021-08-27T10:14:52.735Z</time>
      </trkpt>
      <trkpt lat="43.97441" lon="6.49301">
        <ele>1430.8</ele>
        <time>2021-08-27T10:14:54.027Z</time>
      </trkpt>
      <trkpt lat="43.97442" lon="6.49308">
        <ele>1429.9</ele>
        <time>2021-08-27T10:14:55.164Z</time>
      </trkpt>
      <trkpt lat="43.97443" lon="6.49316">
        <ele>1429.1</ele>
        <time>2021-08-27T10:14:56.456Z</time>
      </trkpt>
      <trkpt lat="43.97444" lon="6.49323">
        <ele>1428.6</ele>
        <time>2021-08-27T10:14:57.592Z</time>
      </trkpt>
      <trkpt lat="43.97444" lon="6.49332">
        <ele>1427.4</ele>
        <time>2021-08-27T10:14:59.025Z</time>
      </trkpt>
      <trkpt lat="43.97445" lon="6.49339">
        <ele>1427.1</ele>
        <time>2021-08-27T10:15:00.136Z</time>
      </trkpt>
      <trkpt lat="43.97445" lon="6.49349">
        <ele>1426.6</ele>
        <time>2021-08-27T10:15:01.728Z</time>
      </trkpt>
      <trkpt lat="43.97446" lon="6.49358">
        <ele>1426.6</ele>
        <time>2021-08-27T10:15:08.496Z</time>
      </trkpt>
      <trkpt lat="43.97447" lon="6.49366">
        <ele>1426.7</ele>
        <time>2021-08-27T10:15:15.653Z</time>
      </trkpt>
      <trkpt lat="43.97449" lon="6.49372">
        <ele>1427</ele>
        <time>2021-08-27T10:15:25.049Z</time>
      </trkpt>
      <trkpt lat="43.97451" lon="6.4938">
        <ele>1427.4</ele>
        <time>2021-08-27T10:15:37.311Z</time>
      </trkpt>
      <trkpt lat="43.97452" lon="6.49388">
        <ele>1427.4</ele>
        <time>2021-08-27T10:15:43.345Z</time>
      </trkpt>
      <trkpt lat="43.97454" lon="6.49393">
        <ele>1427.7</ele>
        <time>2021-08-27T10:15:52.090Z</time>
      </trkpt>
      <trkpt lat="43.97457" lon="6.49399">
        <ele>1428.6</ele>
        <time>2021-08-27T10:16:13.034Z</time>
      </trkpt>
      <trkpt lat="43.97461" lon="6.49407">
        <ele>1429.5</ele>
        <time>2021-08-27T10:16:39.059Z</time>
      </trkpt>
      <trkpt lat="43.97466" lon="6.49413">
        <ele>1431</ele>
        <time>2021-08-27T10:17:05.376Z</time>
      </trkpt>
      <trkpt lat="43.9747" lon="6.49414">
        <ele>1432.7</ele>
        <time>2021-08-27T10:17:21.565Z</time>
      </trkpt>
      <trkpt lat="43.97469" lon="6.49414">
        <ele>1432.4</ele>
        <time>2021-08-27T10:17:21.786Z</time>
      </trkpt>
      <trkpt lat="43.97468" lon="6.49414">
        <ele>1431.8</ele>
        <time>2021-08-27T10:17:22.008Z</time>
      </trkpt>
      <trkpt lat="43.97469" lon="6.49413">
        <ele>1432.4</ele>
        <time>2021-08-27T10:17:26.915Z</time>
      </trkpt>
      <trkpt lat="43.97469" lon="6.49411">
        <ele>1432.7</ele>
        <time>2021-08-27T10:17:32.649Z</time>
      </trkpt>
      <trkpt lat="43.9747" lon="6.49411">
        <ele>1432.8</ele>
        <time>2021-08-27T10:17:35.334Z</time>
      </trkpt>
      <trkpt lat="43.97468" lon="6.49413">
        <ele>1432.1</ele>
        <time>2021-08-27T10:17:35.880Z</time>
      </trkpt>
      <trkpt lat="43.97468" lon="6.49412">
        <ele>1431.9</ele>
        <time>2021-08-27T10:17:36.039Z</time>
      </trkpt>
      <trkpt lat="43.97469" lon="6.49412">
        <ele>1432.6</ele>
        <time>2021-08-27T10:17:40.022Z</time>
      </trkpt>
      <trkpt lat="43.9747" lon="6.49412">
        <ele>1432.9</ele>
        <time>2021-08-27T10:17:44.006Z</time>
      </trkpt>
      <trkpt lat="43.9747" lon="6.49413">
        <ele>1432.9</ele>
        <time>2021-08-27T10:17:44.749Z</time>
      </trkpt>
      <trkpt lat="43.9747" lon="6.49414">
        <ele>1432.5</ele>
        <time>2021-08-27T10:17:44.908Z</time>
      </trkpt>
      <trkpt lat="43.9747" lon="6.49415">
        <ele>1432.8</ele>
        <time>2021-08-27T10:17:47.775Z</time>
      </trkpt>
      <trkpt lat="43.9747" lon="6.49416">
        <ele>1432.5</ele>
        <time>2021-08-27T10:17:47.934Z</time>
      </trkpt>
      <trkpt lat="43.9747" lon="6.49415">
        <ele>1432.7</ele>
        <time>2021-08-27T10:17:50.801Z</time>
      </trkpt>
      <trkpt lat="43.97471" lon="6.49414">
        <ele>1433</ele>
        <time>2021-08-27T10:17:55.709Z</time>
      </trkpt>
      <trkpt lat="43.97475" lon="6.49419">
        <ele>1433.8</ele>
        <time>2021-08-27T10:18:17.141Z</time>
      </trkpt>
      <trkpt lat="43.97479" lon="6.49424">
        <ele>1434.1</ele>
        <time>2021-08-27T10:18:27.237Z</time>
      </trkpt>
      <trkpt lat="43.97485" lon="6.49429">
        <ele>1434.8</ele>
        <time>2021-08-27T10:18:46.037Z</time>
      </trkpt>
      <trkpt lat="43.97492" lon="6.49431">
        <ele>1436.8</ele>
        <time>2021-08-27T10:19:14.505Z</time>
      </trkpt>
      <trkpt lat="43.97498" lon="6.49432">
        <ele>1438.8</ele>
        <time>2021-08-27T10:19:38.577Z</time>
      </trkpt>
      <trkpt lat="43.97505" lon="6.49433">
        <ele>1440</ele>
        <time>2021-08-27T10:20:06.608Z</time>
      </trkpt>
      <trkpt lat="43.97511" lon="6.49432">
        <ele>1441.4</ele>
        <time>2021-08-27T10:20:30.680Z</time>
      </trkpt>
      <trkpt lat="43.97517" lon="6.49433">
        <ele>1442.4</ele>
        <time>2021-08-27T10:20:54.752Z</time>
      </trkpt>
      <trkpt lat="43.97524" lon="6.49435">
        <ele>1443.1</ele>
        <time>2021-08-27T10:21:13.569Z</time>
      </trkpt>
      <trkpt lat="43.97531" lon="6.49436">
        <ele>1444.2</ele>
        <time>2021-08-27T10:21:41.601Z</time>
      </trkpt>
      <trkpt lat="43.97539" lon="6.49435">
        <ele>1445.7</ele>
        <time>2021-08-27T10:22:13.597Z</time>
      </trkpt>
      <trkpt lat="43.97547" lon="6.49435">
        <ele>1447.5</ele>
        <time>2021-08-27T10:22:45.465Z</time>
      </trkpt>
      <trkpt lat="43.97553" lon="6.49432">
        <ele>1449.6</ele>
        <time>2021-08-27T10:23:10.866Z</time>
      </trkpt>
      <trkpt lat="43.9756" lon="6.4943">
        <ele>1451.7</ele>
        <time>2021-08-27T10:23:39.334Z</time>
      </trkpt>
      <trkpt lat="43.97561" lon="6.4943">
        <ele>1451.9</ele>
        <time>2021-08-27T10:23:43.317Z</time>
      </trkpt>
      <trkpt lat="43.97566" lon="6.4943">
        <ele>1453</ele>
        <time>2021-08-27T10:24:03.234Z</time>
      </trkpt>
      <trkpt lat="43.97574" lon="6.49432">
        <ele>1454</ele>
        <time>2021-08-27T10:24:31.379Z</time>
      </trkpt>
      <trkpt lat="43.9758" lon="6.4943">
        <ele>1455.5</ele>
        <time>2021-08-27T10:24:55.958Z</time>
      </trkpt>
      <trkpt lat="43.97585" lon="6.49429">
        <ele>1456.8</ele>
        <time>2021-08-27T10:25:16.081Z</time>
      </trkpt>
      <trkpt lat="43.97594" lon="6.4943">
        <ele>1457.2</ele>
        <time>2021-08-27T10:25:31.773Z</time>
      </trkpt>
      <trkpt lat="43.976" lon="6.49431">
        <ele>1457.4</ele>
        <time>2021-08-27T10:25:40.729Z</time>
      </trkpt>
      <trkpt lat="43.97606" lon="6.49431">
        <ele>1457.6</ele>
        <time>2021-08-27T10:25:49.649Z</time>
      </trkpt>
      <trkpt lat="43.97615" lon="6.49432">
        <ele>1458.2</ele>
        <time>2021-08-27T10:26:07.924Z</time>
      </trkpt>
      <trkpt lat="43.97622" lon="6.49429">
        <ele>1459.6</ele>
        <time>2021-08-27T10:26:37.104Z</time>
      </trkpt>
      <trkpt lat="43.97628" lon="6.49429">
        <ele>1460.3</ele>
        <time>2021-08-27T10:26:56.343Z</time>
      </trkpt>
      <trkpt lat="43.97631" lon="6.49428">
        <ele>1460.9</ele>
        <time>2021-08-27T10:27:08.632Z</time>
      </trkpt>
      <trkpt lat="43.97636" lon="6.49428">
        <ele>1461.2</ele>
        <time>2021-08-27T10:27:18.294Z</time>
      </trkpt>
      <trkpt lat="43.97641" lon="6.49428">
        <ele>1461.6</ele>
        <time>2021-08-27T10:27:29.533Z</time>
      </trkpt>
      <trkpt lat="43.97648" lon="6.49432">
        <ele>1460.7</ele>
        <time>2021-08-27T10:27:31.207Z</time>
      </trkpt>
      <trkpt lat="43.97655" lon="6.49432">
        <ele>1461.2</ele>
        <time>2021-08-27T10:27:45.912Z</time>
      </trkpt>
      <trkpt lat="43.97661" lon="6.49433">
        <ele>1461.2</ele>
        <time>2021-08-27T10:27:52.153Z</time>
      </trkpt>
      <trkpt lat="43.97668" lon="6.49434">
        <ele>1461.6</ele>
        <time>2021-08-27T10:28:05.457Z</time>
      </trkpt>
      <trkpt lat="43.97677" lon="6.49432">
        <ele>1463.4</ele>
        <time>2021-08-27T10:28:41.764Z</time>
      </trkpt>
      <trkpt lat="43.97685" lon="6.4943">
        <ele>1464.7</ele>
        <time>2021-08-27T10:29:14.143Z</time>
      </trkpt>
      <trkpt lat="43.97691" lon="6.49428">
        <ele>1466.3</ele>
        <time>2021-08-27T10:29:38.722Z</time>
      </trkpt>
      <trkpt lat="43.97696" lon="6.49427">
        <ele>1467.2</ele>
        <time>2021-08-27T10:29:58.845Z</time>
      </trkpt>
      <trkpt lat="43.97702" lon="6.49427">
        <ele>1467.8</ele>
        <time>2021-08-27T10:30:14.959Z</time>
      </trkpt>
      <trkpt lat="43.97709" lon="6.4943">
        <ele>1467.4</ele>
        <time>2021-08-27T10:30:16.593Z</time>
      </trkpt>
      <trkpt lat="43.97717" lon="6.49429">
        <ele>1468.6</ele>
        <time>2021-08-27T10:30:48.589Z</time>
      </trkpt>
      <trkpt lat="43.97722" lon="6.49429">
        <ele>1469.2</ele>
        <time>2021-08-27T10:31:05.268Z</time>
      </trkpt>
      <trkpt lat="43.97732" lon="6.4943">
        <ele>1469.9</ele>
        <time>2021-08-27T10:31:26.075Z</time>
      </trkpt>
      <trkpt lat="43.97737" lon="6.49429">
        <ele>1470.8</ele>
        <time>2021-08-27T10:31:46.198Z</time>
      </trkpt>
      <trkpt lat="43.97744" lon="6.49429">
        <ele>1471.6</ele>
        <time>2021-08-27T10:32:08.038Z</time>
      </trkpt>
      <trkpt lat="43.97751" lon="6.4943">
        <ele>1472</ele>
        <time>2021-08-27T10:32:21.342Z</time>
      </trkpt>
      <trkpt lat="43.97754" lon="6.49429">
        <ele>1472.4</ele>
        <time>2021-08-27T10:32:32.995Z</time>
      </trkpt>
      <trkpt lat="43.97755" lon="6.49425">
        <ele>1473.7</ele>
        <time>2021-08-27T10:32:45.133Z</time>
      </trkpt>
      <trkpt lat="43.97749" lon="6.49423">
        <ele>1474.1</ele>
        <time>2021-08-27T10:32:57.474Z</time>
      </trkpt>
      <trkpt lat="43.97744" lon="6.4942">
        <ele>1474.5</ele>
        <time>2021-08-27T10:33:09.094Z</time>
      </trkpt>
      <trkpt lat="43.97737" lon="6.49415">
        <ele>1475.3</ele>
        <time>2021-08-27T10:33:30.576Z</time>
      </trkpt>
      <trkpt lat="43.9773" lon="6.49413">
        <ele>1475.1</ele>
        <time>2021-08-27T10:33:32.625Z</time>
      </trkpt>
      <trkpt lat="43.97725" lon="6.49409">
        <ele>1475.8</ele>
        <time>2021-08-27T10:33:52.186Z</time>
      </trkpt>
      <trkpt lat="43.9772" lon="6.49406">
        <ele>1476.3</ele>
        <time>2021-08-27T10:34:05.731Z</time>
      </trkpt>
      <trkpt lat="43.97716" lon="6.49401">
        <ele>1477.5</ele>
        <time>2021-08-27T10:34:27.163Z</time>
      </trkpt>
      <trkpt lat="43.97711" lon="6.49398">
        <ele>1477.9</ele>
        <time>2021-08-27T10:34:38.783Z</time>
      </trkpt>
      <trkpt lat="43.97706" lon="6.49395">
        <ele>1478.4</ele>
        <time>2021-08-27T10:34:52.328Z</time>
      </trkpt>
      <trkpt lat="43.97698" lon="6.4939">
        <ele>1479.2</ele>
        <time>2021-08-27T10:35:14.026Z</time>
      </trkpt>
      <trkpt lat="43.9769" lon="6.49385">
        <ele>1479.9</ele>
        <time>2021-08-27T10:35:33.710Z</time>
      </trkpt>
      <trkpt lat="43.97687" lon="6.4938">
        <ele>1481</ele>
        <time>2021-08-27T10:35:52.371Z</time>
      </trkpt>
      <trkpt lat="43.97685" lon="6.49376">
        <ele>1482.2</ele>
        <time>2021-08-27T10:36:06.333Z</time>
      </trkpt>
      <trkpt lat="43.97684" lon="6.49372">
        <ele>1483.5</ele>
        <time>2021-08-27T10:36:18.472Z</time>
      </trkpt>
      <trkpt lat="43.97683" lon="6.49368">
        <ele>1484.6</ele>
        <time>2021-08-27T10:36:30.611Z</time>
      </trkpt>
      <trkpt lat="43.97682" lon="6.49367">
        <ele>1484.9</ele>
        <time>2021-08-27T10:36:35.518Z</time>
      </trkpt>
      <trkpt lat="43.97681" lon="6.49365">
        <ele>1485.2</ele>
        <time>2021-08-27T10:36:42.499Z</time>
      </trkpt>
      <trkpt lat="43.97679" lon="6.49363">
        <ele>1485.6</ele>
        <time>2021-08-27T10:36:52.315Z</time>
      </trkpt>
      <trkpt lat="43.97679" lon="6.49361">
        <ele>1486.4</ele>
        <time>2021-08-27T10:36:58.048Z</time>
      </trkpt>
      <trkpt lat="43.97678" lon="6.49357">
        <ele>1487.5</ele>
        <time>2021-08-27T10:37:10.187Z</time>
      </trkpt>
      <trkpt lat="43.97679" lon="6.49354">
        <ele>1488.6</ele>
        <time>2021-08-27T10:37:19.664Z</time>
      </trkpt>
      <trkpt lat="43.97679" lon="6.49351">
        <ele>1489.5</ele>
        <time>2021-08-27T10:37:28.264Z</time>
      </trkpt>
      <trkpt lat="43.9768" lon="6.49348">
        <ele>1490.4</ele>
        <time>2021-08-27T10:37:37.742Z</time>
      </trkpt>
      <trkpt lat="43.97681" lon="6.49346">
        <ele>1491.2</ele>
        <time>2021-08-27T10:37:44.723Z</time>
      </trkpt>
      <trkpt lat="43.97682" lon="6.49344">
        <ele>1491.7</ele>
        <time>2021-08-27T10:37:51.704Z</time>
      </trkpt>
      <trkpt lat="43.97681" lon="6.49342">
        <ele>1492.3</ele>
        <time>2021-08-27T10:37:58.685Z</time>
      </trkpt>
      <trkpt lat="43.97683" lon="6.49339">
        <ele>1493.6</ele>
        <time>2021-08-27T10:38:10.408Z</time>
      </trkpt>
      <trkpt lat="43.97685" lon="6.49336">
        <ele>1494.6</ele>
        <time>2021-08-27T10:38:22.131Z</time>
      </trkpt>
      <trkpt lat="43.97686" lon="6.49334">
        <ele>1495.3</ele>
        <time>2021-08-27T10:38:29.112Z</time>
      </trkpt>
      <trkpt lat="43.97685" lon="6.49331">
        <ele>1496</ele>
        <time>2021-08-27T10:38:38.590Z</time>
      </trkpt>
      <trkpt lat="43.97685" lon="6.49328">
        <ele>1496.7</ele>
        <time>2021-08-27T10:38:47.190Z</time>
      </trkpt>
      <trkpt lat="43.97686" lon="6.49326">
        <ele>1497.2</ele>
        <time>2021-08-27T10:38:54.171Z</time>
      </trkpt>
      <trkpt lat="43.97686" lon="6.49323">
        <ele>1497.9</ele>
        <time>2021-08-27T10:39:02.771Z</time>
      </trkpt>
      <trkpt lat="43.97686" lon="6.49321">
        <ele>1498.4</ele>
        <time>2021-08-27T10:39:08.504Z</time>
      </trkpt>
      <trkpt lat="43.97685" lon="6.49318">
        <ele>1499.3</ele>
        <time>2021-08-27T10:39:17.981Z</time>
      </trkpt>
      <trkpt lat="43.97684" lon="6.49316">
        <ele>1499.7</ele>
        <time>2021-08-27T10:39:24.963Z</time>
      </trkpt>
      <trkpt lat="43.97683" lon="6.49311">
        <ele>1500.8</ele>
        <time>2021-08-27T10:39:39.839Z</time>
      </trkpt>
      <trkpt lat="43.97683" lon="6.49308">
        <ele>1501.5</ele>
        <time>2021-08-27T10:39:48.439Z</time>
      </trkpt>
      <trkpt lat="43.97682" lon="6.49305">
        <ele>1502.3</ele>
        <time>2021-08-27T10:39:57.916Z</time>
      </trkpt>
      <trkpt lat="43.97681" lon="6.49301">
        <ele>1503.3</ele>
        <time>2021-08-27T10:40:10.055Z</time>
      </trkpt>
      <trkpt lat="43.9768" lon="6.49298">
        <ele>1503.9</ele>
        <time>2021-08-27T10:40:19.532Z</time>
      </trkpt>
      <trkpt lat="43.97675" lon="6.49295">
        <ele>1504.6</ele>
        <time>2021-08-27T10:40:39.791Z</time>
      </trkpt>
      <trkpt lat="43.97672" lon="6.4929">
        <ele>1505.6</ele>
        <time>2021-08-27T10:40:58.453Z</time>
      </trkpt>
      <trkpt lat="43.97669" lon="6.49285">
        <ele>1506.8</ele>
        <time>2021-08-27T10:41:17.114Z</time>
      </trkpt>
      <trkpt lat="43.97668" lon="6.49281">
        <ele>1507.9</ele>
        <time>2021-08-27T10:41:29.253Z</time>
      </trkpt>
      <trkpt lat="43.97665" lon="6.49278">
        <ele>1508.3</ele>
        <time>2021-08-27T10:41:40.044Z</time>
      </trkpt>
      <trkpt lat="43.97664" lon="6.49276">
        <ele>1508.4</ele>
        <time>2021-08-27T10:41:43.362Z</time>
      </trkpt>
      <trkpt lat="43.97661" lon="6.49273">
        <ele>1508.7</ele>
        <time>2021-08-27T10:41:51.749Z</time>
      </trkpt>
      <trkpt lat="43.97658" lon="6.4927">
        <ele>1508.8</ele>
        <time>2021-08-27T10:41:56.824Z</time>
      </trkpt>
      <trkpt lat="43.9765" lon="6.4926">
        <ele>1509.4</ele>
        <time>2021-08-27T10:42:17.017Z</time>
      </trkpt>
      <trkpt lat="43.97646" lon="6.49246">
        <ele>1511.7</ele>
        <time>2021-08-27T10:43:00.197Z</time>
      </trkpt>
      <trkpt lat="43.97644" lon="6.49236">
        <ele>1512.9</ele>
        <time>2021-08-27T10:43:29.950Z</time>
      </trkpt>
      <trkpt lat="43.97642" lon="6.49224">
        <ele>1514.4</ele>
        <time>2021-08-27T10:44:05.260Z</time>
      </trkpt>
      <trkpt lat="43.97642" lon="6.49216">
        <ele>1515.8</ele>
        <time>2021-08-27T10:44:28.193Z</time>
      </trkpt>
      <trkpt lat="43.9764" lon="6.49207">
        <ele>1516.9</ele>
        <time>2021-08-27T10:44:55.194Z</time>
      </trkpt>
      <trkpt lat="43.97639" lon="6.49205">
        <ele>1517.1</ele>
        <time>2021-08-27T10:45:00.652Z</time>
      </trkpt>
      <trkpt lat="43.97638" lon="6.49202">
        <ele>1517.2</ele>
        <time>2021-08-27T10:45:04.647Z</time>
      </trkpt>
      <trkpt lat="43.97634" lon="6.4919">
        <ele>1518.3</ele>
        <time>2021-08-27T10:45:34.783Z</time>
      </trkpt>
      <trkpt lat="43.97633" lon="6.4918">
        <ele>1519.6</ele>
        <time>2021-08-27T10:46:03.724Z</time>
      </trkpt>
      <trkpt lat="43.9763" lon="6.49165">
        <ele>1521.2</ele>
        <time>2021-08-27T10:46:48.353Z</time>
      </trkpt>
      <trkpt lat="43.97626" lon="6.49153">
        <ele>1521.4</ele>
        <time>2021-08-27T10:47:00.525Z</time>
      </trkpt>
      <trkpt lat="43.97624" lon="6.49139">
        <ele>1522.1</ele>
        <time>2021-08-27T10:47:21.577Z</time>
      </trkpt>
      <trkpt lat="43.97623" lon="6.49127">
        <ele>1523.3</ele>
        <time>2021-08-27T10:47:56.206Z</time>
      </trkpt>
      <trkpt lat="43.97624" lon="6.49112">
        <ele>1525.2</ele>
        <time>2021-08-27T10:48:39.389Z</time>
      </trkpt>
      <trkpt lat="43.97622" lon="6.49095">
        <ele>1526.4</ele>
        <time>2021-08-27T10:49:11.676Z</time>
      </trkpt>
      <trkpt lat="43.9762" lon="6.49081">
        <ele>1527.5</ele>
        <time>2021-08-27T10:49:41.310Z</time>
      </trkpt>
      <trkpt lat="43.97619" lon="6.49066">
        <ele>1528</ele>
        <time>2021-08-27T10:50:00.401Z</time>
      </trkpt>
      <trkpt lat="43.9762" lon="6.49062">
        <ele>1528.2</ele>
        <time>2021-08-27T10:50:06.532Z</time>
      </trkpt>
      <trkpt lat="43.97616" lon="6.49046">
        <ele>1528.4</ele>
        <time>2021-08-27T10:50:21.347Z</time>
      </trkpt>
      <trkpt lat="43.97616" lon="6.49033">
        <ele>1528.9</ele>
        <time>2021-08-27T10:50:38.631Z</time>
      </trkpt>
      <trkpt lat="43.97618" lon="6.4902">
        <ele>1529.8</ele>
        <time>2021-08-27T10:51:02.922Z</time>
      </trkpt>
      <trkpt lat="43.97621" lon="6.49013">
        <ele>1530.3</ele>
        <time>2021-08-27T10:51:16.693Z</time>
      </trkpt>
      <trkpt lat="43.97621" lon="6.49008">
        <ele>1530.5</ele>
        <time>2021-08-27T10:51:23.437Z</time>
      </trkpt>
      <trkpt lat="43.97623" lon="6.49011">
        <ele>1530.5</ele>
        <time>2021-08-27T10:51:26.476Z</time>
      </trkpt>
      <trkpt lat="43.97623" lon="6.49012">
        <ele>1530.5</ele>
        <time>2021-08-27T10:51:27.219Z</time>
      </trkpt>
      <trkpt lat="43.97625" lon="6.49016">
        <ele>1530.5</ele>
        <time>2021-08-27T10:51:30.839Z</time>
      </trkpt>
      <trkpt lat="43.97626" lon="6.49023">
        <ele>1530.4</ele>
        <time>2021-08-27T10:51:32.460Z</time>
      </trkpt>
      <trkpt lat="43.97627" lon="6.49026">
        <ele>1530.4</ele>
        <time>2021-08-27T10:51:34.917Z</time>
      </trkpt>
      <trkpt lat="43.97628" lon="6.49028">
        <ele>1530.4</ele>
        <time>2021-08-27T10:51:36.727Z</time>
      </trkpt>
      <trkpt lat="43.9763" lon="6.49028">
        <ele>1530.7</ele>
        <time>2021-08-27T10:51:44.694Z</time>
      </trkpt>
      <trkpt lat="43.97629" lon="6.49028">
        <ele>1530.6</ele>
        <time>2021-08-27T10:51:44.915Z</time>
      </trkpt>
      <trkpt lat="43.97629" lon="6.4903">
        <ele>1530.5</ele>
        <time>2021-08-27T10:51:45.234Z</time>
      </trkpt>
      <trkpt lat="43.97629" lon="6.49029">
        <ele>1530.5</ele>
        <time>2021-08-27T10:51:45.977Z</time>
      </trkpt>
      <trkpt lat="43.97628" lon="6.49029">
        <ele>1530.5</ele>
        <time>2021-08-27T10:51:47.010Z</time>
      </trkpt>
      <trkpt lat="43.97629" lon="6.49029">
        <ele>1530.5</ele>
        <time>2021-08-27T10:51:48.042Z</time>
      </trkpt>
      <trkpt lat="43.97631" lon="6.49033">
        <ele>1530.8</ele>
        <time>2021-08-27T10:51:56.297Z</time>
      </trkpt>
      <trkpt lat="43.97631" lon="6.49034">
        <ele>1530.8</ele>
        <time>2021-08-27T10:51:57.040Z</time>
      </trkpt>
      <trkpt lat="43.97635" lon="6.49046">
        <ele>1531</ele>
        <time>2021-08-27T10:52:09.212Z</time>
      </trkpt>
      <trkpt lat="43.9764" lon="6.49058">
        <ele>1531.8</ele>
        <time>2021-08-27T10:52:31.671Z</time>
      </trkpt>
      <trkpt lat="43.97644" lon="6.49066">
        <ele>1532.7</ele>
        <time>2021-08-27T10:52:57.697Z</time>
      </trkpt>
      <trkpt lat="43.97649" lon="6.49074">
        <ele>1533.8</ele>
        <time>2021-08-27T10:53:28.071Z</time>
      </trkpt>
      <trkpt lat="43.97654" lon="6.49081">
        <ele>1535.1</ele>
        <time>2021-08-27T10:53:56.344Z</time>
      </trkpt>
      <trkpt lat="43.97659" lon="6.49086">
        <ele>1535.9</ele>
        <time>2021-08-27T10:54:19.680Z</time>
      </trkpt>
      <trkpt lat="43.97663" lon="6.49095">
        <ele>1536.2</ele>
        <time>2021-08-27T10:54:31.983Z</time>
      </trkpt>
      <trkpt lat="43.97666" lon="6.49101">
        <ele>1536.6</ele>
        <time>2021-08-27T10:54:43.434Z</time>
      </trkpt>
      <trkpt lat="43.97671" lon="6.49106">
        <ele>1536.5</ele>
        <time>2021-08-27T10:54:45.455Z</time>
      </trkpt>
      <trkpt lat="43.97672" lon="6.49107">
        <ele>1536.4</ele>
        <time>2021-08-27T10:54:45.727Z</time>
      </trkpt>
      <trkpt lat="43.97674" lon="6.49106">
        <ele>1536.5</ele>
        <time>2021-08-27T10:54:49.493Z</time>
      </trkpt>
      <trkpt lat="43.97675" lon="6.49107">
        <ele>1536.5</ele>
        <time>2021-08-27T10:54:50.765Z</time>
      </trkpt>
      <trkpt lat="43.97679" lon="6.49112">
        <ele>1536.2</ele>
        <time>2021-08-27T10:54:51.954Z</time>
      </trkpt>
      <trkpt lat="43.97679" lon="6.49114">
        <ele>1536.1</ele>
        <time>2021-08-27T10:54:52.272Z</time>
      </trkpt>
      <trkpt lat="43.97679" lon="6.49116">
        <ele>1536</ele>
        <time>2021-08-27T10:54:52.591Z</time>
      </trkpt>
      <trkpt lat="43.97679" lon="6.49117">
        <ele>1535.9</ele>
        <time>2021-08-27T10:54:52.750Z</time>
      </trkpt>
      <trkpt lat="43.97679" lon="6.49118">
        <ele>1535.9</ele>
        <time>2021-08-27T10:54:53.493Z</time>
      </trkpt>
      <trkpt lat="43.97686" lon="6.49118">
        <ele>1536.1</ele>
        <time>2021-08-27T10:55:03.285Z</time>
      </trkpt>
      <trkpt lat="43.97692" lon="6.49118">
        <ele>1536.3</ele>
        <time>2021-08-27T10:55:12.205Z</time>
      </trkpt>
      <trkpt lat="43.97697" lon="6.49117">
        <ele>1536.4</ele>
        <time>2021-08-27T10:55:18.577Z</time>
      </trkpt>
      <trkpt lat="43.97702" lon="6.49117">
        <ele>1536.6</ele>
        <time>2021-08-27T10:55:26.727Z</time>
      </trkpt>
      <trkpt lat="43.97707" lon="6.49115">
        <ele>1536.8</ele>
        <time>2021-08-27T10:55:35.021Z</time>
      </trkpt>
      <trkpt lat="43.97711" lon="6.49114">
        <ele>1537</ele>
        <time>2021-08-27T10:55:42.322Z</time>
      </trkpt>
      <trkpt lat="43.97717" lon="6.49116">
        <ele>1537.1</ele>
        <time>2021-08-27T10:55:49.805Z</time>
      </trkpt>
      <trkpt lat="43.97707" lon="6.49132">
        <ele>1536.2</ele>
        <time>2021-08-27T10:55:53.086Z</time>
      </trkpt>
      <trkpt lat="43.97697" lon="6.49143">
        <ele>1535.3</ele>
        <time>2021-08-27T10:55:55.908Z</time>
      </trkpt>
      <trkpt lat="43.97694" lon="6.49153">
        <ele>1534.6</ele>
        <time>2021-08-27T10:55:57.633Z</time>
      </trkpt>
      <trkpt lat="43.97709" lon="6.49148">
        <ele>1535.7</ele>
        <time>2021-08-27T10:56:30.009Z</time>
      </trkpt>
      <trkpt lat="43.97731" lon="6.49122">
        <ele>1537.4</ele>
        <time>2021-08-27T10:57:25.377Z</time>
      </trkpt>
      <trkpt lat="43.97732" lon="6.49122">
        <ele>1537.4</ele>
        <time>2021-08-27T10:57:26.410Z</time>
      </trkpt>
      <trkpt lat="43.97733" lon="6.49121">
        <ele>1537.4</ele>
        <time>2021-08-27T10:57:27.682Z</time>
      </trkpt>
      <trkpt lat="43.97734" lon="6.49119">
        <ele>1537.5</ele>
        <time>2021-08-27T10:57:31.001Z</time>
      </trkpt>
      <trkpt lat="43.97735" lon="6.4912">
        <ele>1537.5</ele>
        <time>2021-08-27T10:57:32.273Z</time>
      </trkpt>
      <trkpt lat="43.97734" lon="6.4912">
        <ele>1537.5</ele>
        <time>2021-08-27T10:57:33.306Z</time>
      </trkpt>
      <trkpt lat="43.97734" lon="6.49122">
        <ele>1537.5</ele>
        <time>2021-08-27T10:57:34.792Z</time>
      </trkpt>
      <trkpt lat="43.97734" lon="6.49123">
        <ele>1537.4</ele>
        <time>2021-08-27T10:57:34.951Z</time>
      </trkpt>
      <trkpt lat="43.97733" lon="6.49123">
        <ele>1537.4</ele>
        <time>2021-08-27T10:57:35.984Z</time>
      </trkpt>
      <trkpt lat="43.97732" lon="6.49121">
        <ele>1537.4</ele>
        <time>2021-08-27T10:57:37.794Z</time>
      </trkpt>
      <trkpt lat="43.97731" lon="6.49121">
        <ele>1537.4</ele>
        <time>2021-08-27T10:57:38.827Z</time>
      </trkpt>
      <trkpt lat="43.97731" lon="6.49122">
        <ele>1537.4</ele>
        <time>2021-08-27T10:57:39.570Z</time>
      </trkpt>
      <trkpt lat="43.97731" lon="6.49121">
        <ele>1537.4</ele>
        <time>2021-08-27T10:57:40.313Z</time>
      </trkpt>
      <trkpt lat="43.97732" lon="6.49121">
        <ele>1537.4</ele>
        <time>2021-08-27T10:57:41.346Z</time>
      </trkpt>
      <trkpt lat="43.97732" lon="6.49122">
        <ele>1537.4</ele>
        <time>2021-08-27T10:57:42.089Z</time>
      </trkpt>
      <trkpt lat="43.97733" lon="6.49122">
        <ele>1537.4</ele>
        <time>2021-08-27T10:57:43.122Z</time>
      </trkpt>
      <trkpt lat="43.97732" lon="6.49122">
        <ele>1537.4</ele>
        <time>2021-08-27T10:57:44.155Z</time>
      </trkpt>
      <trkpt lat="43.97732" lon="6.49121">
        <ele>1537.4</ele>
        <time>2021-08-27T10:57:44.898Z</time>
      </trkpt>
      <trkpt lat="43.97731" lon="6.49122">
        <ele>1537.4</ele>
        <time>2021-08-27T10:57:46.170Z</time>
      </trkpt>
      <trkpt lat="43.97731" lon="6.49121">
        <ele>1537.4</ele>
        <time>2021-08-27T10:57:46.913Z</time>
      </trkpt>
      <trkpt lat="43.97728" lon="6.49117">
        <ele>1537.4</ele>
        <time>2021-08-27T10:57:51.207Z</time>
      </trkpt>
      <trkpt lat="43.97723" lon="6.4911">
        <ele>1537.4</ele>
        <time>2021-08-27T10:57:58.537Z</time>
      </trkpt>
      <trkpt lat="43.97718" lon="6.49103">
        <ele>1537.5</ele>
        <time>2021-08-27T10:58:06.953Z</time>
      </trkpt>
      <trkpt lat="43.97711" lon="6.49096">
        <ele>1537.6</ele>
        <time>2021-08-27T10:58:16.918Z</time>
      </trkpt>
      <trkpt lat="43.97704" lon="6.49092">
        <ele>1537.7</ele>
        <time>2021-08-27T10:58:25.811Z</time>
      </trkpt>
      <trkpt lat="43.97698" lon="6.49086">
        <ele>1537.9</ele>
        <time>2021-08-27T10:58:35.960Z</time>
      </trkpt>
      <trkpt lat="43.97692" lon="6.49076">
        <ele>1537.4</ele>
        <time>2021-08-27T10:58:38.072Z</time>
      </trkpt>
      <trkpt lat="43.97687" lon="6.49063">
        <ele>1536.3</ele>
        <time>2021-08-27T10:58:40.419Z</time>
      </trkpt>
      <trkpt lat="43.97682" lon="6.49052">
        <ele>1535.6</ele>
        <time>2021-08-27T10:58:42.490Z</time>
      </trkpt>
      <trkpt lat="43.97676" lon="6.49042">
        <ele>1535.1</ele>
        <time>2021-08-27T10:58:44.602Z</time>
      </trkpt>
      <trkpt lat="43.97668" lon="6.49035">
        <ele>1535</ele>
        <time>2021-08-27T10:58:47.935Z</time>
      </trkpt>
      <trkpt lat="43.97661" lon="6.49026">
        <ele>1533.9</ele>
        <time>2021-08-27T10:58:50.045Z</time>
      </trkpt>
      <trkpt lat="43.97652" lon="6.49015">
        <ele>1532.7</ele>
        <time>2021-08-27T10:58:52.696Z</time>
      </trkpt>
      <trkpt lat="43.97645" lon="6.49005">
        <ele>1532</ele>
        <time>2021-08-27T10:58:54.917Z</time>
      </trkpt>
      <trkpt lat="43.97636" lon="6.48997">
        <ele>1531.5</ele>
        <time>2021-08-27T10:58:57.466Z</time>
      </trkpt>
      <trkpt lat="43.97629" lon="6.48991">
        <ele>1531.2</ele>
        <time>2021-08-27T10:58:59.628Z</time>
      </trkpt>
      <trkpt lat="43.97628" lon="6.48989">
        <ele>1531.2</ele>
        <time>2021-08-27T10:59:01.438Z</time>
      </trkpt>
      <trkpt lat="43.97621" lon="6.48974">
        <ele>1531.3</ele>
        <time>2021-08-27T10:59:15.743Z</time>
      </trkpt>
      <trkpt lat="43.97619" lon="6.48971">
        <ele>1531.4</ele>
        <time>2021-08-27T10:59:20.156Z</time>
      </trkpt>
      <trkpt lat="43.97612" lon="6.48963">
        <ele>1531.8</ele>
        <time>2021-08-27T10:59:35.868Z</time>
      </trkpt>
      <trkpt lat="43.97606" lon="6.48955">
        <ele>1532.3</ele>
        <time>2021-08-27T10:59:51.951Z</time>
      </trkpt>
      <trkpt lat="43.97603" lon="6.48949">
        <ele>1532.8</ele>
        <time>2021-08-27T11:00:05.428Z</time>
      </trkpt>
      <trkpt lat="43.976" lon="6.4894">
        <ele>1533.5</ele>
        <time>2021-08-27T11:00:24.244Z</time>
      </trkpt>
      <trkpt lat="43.97595" lon="6.48934">
        <ele>1534.4</ele>
        <time>2021-08-27T11:00:50.560Z</time>
      </trkpt>
      <trkpt lat="43.97596" lon="6.48927">
        <ele>1534.8</ele>
        <time>2021-08-27T11:01:01.907Z</time>
      </trkpt>
      <trkpt lat="43.97595" lon="6.48918">
        <ele>1535.5</ele>
        <time>2021-08-27T11:01:20.759Z</time>
      </trkpt>
      <trkpt lat="43.97593" lon="6.48915">
        <ele>1536.2</ele>
        <time>2021-08-27T11:01:32.482Z</time>
      </trkpt>
      <trkpt lat="43.97592" lon="6.48913">
        <ele>1536.7</ele>
        <time>2021-08-27T11:01:39.464Z</time>
      </trkpt>
      <trkpt lat="43.97589" lon="6.48906">
        <ele>1538</ele>
        <time>2021-08-27T11:02:02.819Z</time>
      </trkpt>
      <trkpt lat="43.97586" lon="6.48902">
        <ele>1539.1</ele>
        <time>2021-08-27T11:02:19.381Z</time>
      </trkpt>
      <trkpt lat="43.97581" lon="6.48896">
        <ele>1540.7</ele>
        <time>2021-08-27T11:02:45.697Z</time>
      </trkpt>
      <trkpt lat="43.97577" lon="6.48892">
        <ele>1541.7</ele>
        <time>2021-08-27T11:03:05.328Z</time>
      </trkpt>
      <trkpt lat="43.97573" lon="6.48889">
        <ele>1542.6</ele>
        <time>2021-08-27T11:03:23.434Z</time>
      </trkpt>
      <trkpt lat="43.97569" lon="6.48883">
        <ele>1543.9</ele>
        <time>2021-08-27T11:03:46.881Z</time>
      </trkpt>
      <trkpt lat="43.97565" lon="6.48879">
        <ele>1545</ele>
        <time>2021-08-27T11:04:06.511Z</time>
      </trkpt>
      <trkpt lat="43.97562" lon="6.48873">
        <ele>1546.2</ele>
        <time>2021-08-27T11:04:27.455Z</time>
      </trkpt>
      <trkpt lat="43.9756" lon="6.48867">
        <ele>1547.4</ele>
        <time>2021-08-27T11:04:46.411Z</time>
      </trkpt>
      <trkpt lat="43.97558" lon="6.48862">
        <ele>1548.4</ele>
        <time>2021-08-27T11:05:02.809Z</time>
      </trkpt>
      <trkpt lat="43.97556" lon="6.48857">
        <ele>1549.4</ele>
        <time>2021-08-27T11:05:19.208Z</time>
      </trkpt>
      <trkpt lat="43.97553" lon="6.48851">
        <ele>1550.6</ele>
        <time>2021-08-27T11:05:40.152Z</time>
      </trkpt>
      <trkpt lat="43.97548" lon="6.48844">
        <ele>1552.3</ele>
        <time>2021-08-27T11:06:08.425Z</time>
      </trkpt>
      <trkpt lat="43.97546" lon="6.48839">
        <ele>1553.2</ele>
        <time>2021-08-27T11:06:24.824Z</time>
      </trkpt>
      <trkpt lat="43.97543" lon="6.48835">
        <ele>1554.1</ele>
        <time>2021-08-27T11:06:41.386Z</time>
      </trkpt>
      <trkpt lat="43.97541" lon="6.4883">
        <ele>1555</ele>
        <time>2021-08-27T11:06:57.784Z</time>
      </trkpt>
      <trkpt lat="43.97538" lon="6.48827">
        <ele>1555.6</ele>
        <time>2021-08-27T11:07:12.507Z</time>
      </trkpt>
      <trkpt lat="43.97537" lon="6.48823">
        <ele>1556.3</ele>
        <time>2021-08-27T11:07:24.646Z</time>
      </trkpt>
      <trkpt lat="43.97537" lon="6.48819">
        <ele>1557</ele>
        <time>2021-08-27T11:07:36.113Z</time>
      </trkpt>
      <trkpt lat="43.97536" lon="6.48814">
        <ele>1557.7</ele>
        <time>2021-08-27T11:07:50.989Z</time>
      </trkpt>
      <trkpt lat="43.97534" lon="6.48812">
        <ele>1558.1</ele>
        <time>2021-08-27T11:08:00.805Z</time>
      </trkpt>
      <trkpt lat="43.97532" lon="6.48809">
        <ele>1558.7</ele>
        <time>2021-08-27T11:08:12.528Z</time>
      </trkpt>
      <trkpt lat="43.9753" lon="6.48807">
        <ele>1559.2</ele>
        <time>2021-08-27T11:08:22.344Z</time>
      </trkpt>
      <trkpt lat="43.97528" lon="6.48805">
        <ele>1559.6</ele>
        <time>2021-08-27T11:08:32.159Z</time>
      </trkpt>
      <trkpt lat="43.97525" lon="6.48801">
        <ele>1560.4</ele>
        <time>2021-08-27T11:08:48.721Z</time>
      </trkpt>
      <trkpt lat="43.97522" lon="6.48797">
        <ele>1561.2</ele>
        <time>2021-08-27T11:09:05.283Z</time>
      </trkpt>
      <trkpt lat="43.97519" lon="6.48795">
        <ele>1561.9</ele>
        <time>2021-08-27T11:09:18.537Z</time>
      </trkpt>
      <trkpt lat="43.97515" lon="6.48792">
        <ele>1562.6</ele>
        <time>2021-08-27T11:09:36.644Z</time>
      </trkpt>
      <trkpt lat="43.97512" lon="6.4879">
        <ele>1563.2</ele>
        <time>2021-08-27T11:09:49.899Z</time>
      </trkpt>
      <trkpt lat="43.97508" lon="6.48785">
        <ele>1564.1</ele>
        <time>2021-08-27T11:10:11.331Z</time>
      </trkpt>
      <trkpt lat="43.97504" lon="6.48781">
        <ele>1565.1</ele>
        <time>2021-08-27T11:10:30.962Z</time>
      </trkpt>
      <trkpt lat="43.97502" lon="6.48778">
        <ele>1565.8</ele>
        <time>2021-08-27T11:10:42.685Z</time>
      </trkpt>
      <trkpt lat="43.97499" lon="6.48774">
        <ele>1566.7</ele>
        <time>2021-08-27T11:10:59.247Z</time>
      </trkpt>
      <trkpt lat="43.97497" lon="6.48771">
        <ele>1567.6</ele>
        <time>2021-08-27T11:11:10.970Z</time>
      </trkpt>
      <trkpt lat="43.97494" lon="6.48766">
        <ele>1568.7</ele>
        <time>2021-08-27T11:11:29.632Z</time>
      </trkpt>
      <trkpt lat="43.97491" lon="6.48762">
        <ele>1569.7</ele>
        <time>2021-08-27T11:11:46.193Z</time>
      </trkpt>
      <trkpt lat="43.97488" lon="6.48756">
        <ele>1571.2</ele>
        <time>2021-08-27T11:12:07.138Z</time>
      </trkpt>
      <trkpt lat="43.97486" lon="6.48755">
        <ele>1571.7</ele>
        <time>2021-08-27T11:12:15.605Z</time>
      </trkpt>
      <trkpt lat="43.97483" lon="6.48751">
        <ele>1572.8</ele>
        <time>2021-08-27T11:12:32.167Z</time>
      </trkpt>
      <trkpt lat="43.97479" lon="6.48747">
        <ele>1573.8</ele>
        <time>2021-08-27T11:12:51.798Z</time>
      </trkpt>
      <trkpt lat="43.97476" lon="6.48744">
        <ele>1574.7</ele>
        <time>2021-08-27T11:13:06.521Z</time>
      </trkpt>
      <trkpt lat="43.97472" lon="6.48739">
        <ele>1576</ele>
        <time>2021-08-27T11:13:27.953Z</time>
      </trkpt>
      <trkpt lat="43.9747" lon="6.48735">
        <ele>1576.9</ele>
        <time>2021-08-27T11:13:41.916Z</time>
      </trkpt>
      <trkpt lat="43.97467" lon="6.48732">
        <ele>1577.7</ele>
        <time>2021-08-27T11:13:56.639Z</time>
      </trkpt>
      <trkpt lat="43.97466" lon="6.4873">
        <ele>1578.2</ele>
        <time>2021-08-27T11:14:03.620Z</time>
      </trkpt>
      <trkpt lat="43.97464" lon="6.48726">
        <ele>1579</ele>
        <time>2021-08-27T11:14:17.583Z</time>
      </trkpt>
      <trkpt lat="43.97463" lon="6.48724">
        <ele>1579.3</ele>
        <time>2021-08-27T11:14:24.564Z</time>
      </trkpt>
      <trkpt lat="43.97463" lon="6.48725">
        <ele>1579.3</ele>
        <time>2021-08-27T11:14:25.308Z</time>
      </trkpt>
      <trkpt lat="43.97464" lon="6.48724">
        <ele>1579.2</ele>
        <time>2021-08-27T11:14:25.580Z</time>
      </trkpt>
      <trkpt lat="43.97463" lon="6.4872">
        <ele>1579.8</ele>
        <time>2021-08-27T11:14:37.719Z</time>
      </trkpt>
      <trkpt lat="43.9746" lon="6.48719">
        <ele>1580.5</ele>
        <time>2021-08-27T11:14:50.009Z</time>
      </trkpt>
      <trkpt lat="43.97454" lon="6.48714">
        <ele>1582.1</ele>
        <time>2021-08-27T11:15:17.878Z</time>
      </trkpt>
      <trkpt lat="43.9745" lon="6.48708">
        <ele>1583.5</ele>
        <time>2021-08-27T11:15:41.324Z</time>
      </trkpt>
      <trkpt lat="43.97448" lon="6.48701">
        <ele>1584.6</ele>
        <time>2021-08-27T11:16:02.915Z</time>
      </trkpt>
      <trkpt lat="43.97446" lon="6.48693">
        <ele>1586</ele>
        <time>2021-08-27T11:16:27.193Z</time>
      </trkpt>
      <trkpt lat="43.97445" lon="6.48686">
        <ele>1586.9</ele>
        <time>2021-08-27T11:16:47.652Z</time>
      </trkpt>
      <trkpt lat="43.97443" lon="6.48684">
        <ele>1587.5</ele>
        <time>2021-08-27T11:16:57.467Z</time>
      </trkpt>
      <trkpt lat="43.9744" lon="6.48681">
        <ele>1588.4</ele>
        <time>2021-08-27T11:17:12.190Z</time>
      </trkpt>
      <trkpt lat="43.97436" lon="6.48677">
        <ele>1589.5</ele>
        <time>2021-08-27T11:17:31.821Z</time>
      </trkpt>
      <trkpt lat="43.9743" lon="6.48673">
        <ele>1590.9</ele>
        <time>2021-08-27T11:17:58.331Z</time>
      </trkpt>
      <trkpt lat="43.97427" lon="6.48671">
        <ele>1591.8</ele>
        <time>2021-08-27T11:18:11.585Z</time>
      </trkpt>
      <trkpt lat="43.97423" lon="6.48667">
        <ele>1592.9</ele>
        <time>2021-08-27T11:18:31.216Z</time>
      </trkpt>
      <trkpt lat="43.97419" lon="6.48666">
        <ele>1593.5</ele>
        <time>2021-08-27T11:18:47.406Z</time>
      </trkpt>
      <trkpt lat="43.97418" lon="6.4866">
        <ele>1594</ele>
        <time>2021-08-27T11:19:01.007Z</time>
      </trkpt>
      <trkpt lat="43.97416" lon="6.48656">
        <ele>1594.6</ele>
        <time>2021-08-27T11:19:14.970Z</time>
      </trkpt>
      <trkpt lat="43.97412" lon="6.48652">
        <ele>1595.1</ele>
        <time>2021-08-27T11:19:28.396Z</time>
      </trkpt>
      <trkpt lat="43.97409" lon="6.48648">
        <ele>1595.6</ele>
        <time>2021-08-27T11:19:42.309Z</time>
      </trkpt>
      <trkpt lat="43.97407" lon="6.48644">
        <ele>1595.9</ele>
        <time>2021-08-27T11:19:50.563Z</time>
      </trkpt>
      <trkpt lat="43.97404" lon="6.4864">
        <ele>1596.3</ele>
        <time>2021-08-27T11:20:01.332Z</time>
      </trkpt>
      <trkpt lat="43.97401" lon="6.48638">
        <ele>1596.5</ele>
        <time>2021-08-27T11:20:07.766Z</time>
      </trkpt>
      <trkpt lat="43.97397" lon="6.48635">
        <ele>1596.9</ele>
        <time>2021-08-27T11:20:18.696Z</time>
      </trkpt>
      <trkpt lat="43.97395" lon="6.48632">
        <ele>1597.1</ele>
        <time>2021-08-27T11:20:24.719Z</time>
      </trkpt>
      <trkpt lat="43.97392" lon="6.48627">
        <ele>1597.4</ele>
        <time>2021-08-27T11:20:34.036Z</time>
      </trkpt>
      <trkpt lat="43.9739" lon="6.48626">
        <ele>1597.6</ele>
        <time>2021-08-27T11:20:39.434Z</time>
      </trkpt>
      <trkpt lat="43.97386" lon="6.48624">
        <ele>1597.8</ele>
        <time>2021-08-27T11:20:46.965Z</time>
      </trkpt>
      <trkpt lat="43.97384" lon="6.48622">
        <ele>1598</ele>
        <time>2021-08-27T11:20:52.556Z</time>
      </trkpt>
      <trkpt lat="43.97381" lon="6.48618">
        <ele>1598.2</ele>
        <time>2021-08-27T11:20:59.972Z</time>
      </trkpt>
      <trkpt lat="43.97378" lon="6.48613">
        <ele>1598.4</ele>
        <time>2021-08-27T11:21:07.917Z</time>
      </trkpt>
      <trkpt lat="43.97376" lon="6.4861">
        <ele>1598.4</ele>
        <time>2021-08-27T11:21:10.957Z</time>
      </trkpt>
      <trkpt lat="43.97374" lon="6.48608">
        <ele>1598.6</ele>
        <time>2021-08-27T11:21:16.548Z</time>
      </trkpt>
      <trkpt lat="43.97372" lon="6.48606">
        <ele>1598.6</ele>
        <time>2021-08-27T11:21:19.093Z</time>
      </trkpt>
      <trkpt lat="43.97369" lon="6.48604">
        <ele>1598.7</ele>
        <time>2021-08-27T11:21:23.835Z</time>
      </trkpt>
      <trkpt lat="43.97366" lon="6.48601">
        <ele>1598.8</ele>
        <time>2021-08-27T11:21:28.910Z</time>
      </trkpt>
      <trkpt lat="43.97357" lon="6.4859">
        <ele>1598.9</ele>
        <time>2021-08-27T11:21:42.313Z</time>
      </trkpt>
      <trkpt lat="43.97355" lon="6.48591">
        <ele>1598.9</ele>
        <time>2021-08-27T11:21:44.508Z</time>
      </trkpt>
      <trkpt lat="43.97354" lon="6.4859">
        <ele>1598.9</ele>
        <time>2021-08-27T11:21:45.780Z</time>
      </trkpt>
      <trkpt lat="43.97354" lon="6.48589">
        <ele>1598.9</ele>
        <time>2021-08-27T11:21:46.523Z</time>
      </trkpt>
      <trkpt lat="43.97347" lon="6.48597">
        <ele>1599.3</ele>
        <time>2021-08-27T11:22:02.235Z</time>
      </trkpt>
      <trkpt lat="43.97352" lon="6.48587">
        <ele>1598.9</ele>
        <time>2021-08-27T11:22:04.348Z</time>
      </trkpt>
      <trkpt lat="43.97352" lon="6.48586">
        <ele>1598.9</ele>
        <time>2021-08-27T11:22:05.091Z</time>
      </trkpt>
      <trkpt lat="43.97355" lon="6.48588">
        <ele>1598.8</ele>
        <time>2021-08-27T11:22:06.024Z</time>
      </trkpt>
      <trkpt lat="43.97356" lon="6.48588">
        <ele>1598.8</ele>
        <time>2021-08-27T11:22:07.057Z</time>
      </trkpt>
      <trkpt lat="43.97354" lon="6.48586">
        <ele>1598.8</ele>
        <time>2021-08-27T11:22:09.602Z</time>
      </trkpt>
      <trkpt lat="43.97356" lon="6.48586">
        <ele>1598.8</ele>
        <time>2021-08-27T11:22:11.667Z</time>
      </trkpt>
      <trkpt lat="43.97355" lon="6.48585">
        <ele>1598.8</ele>
        <time>2021-08-27T11:22:12.940Z</time>
      </trkpt>
      <trkpt lat="43.97355" lon="6.48586">
        <ele>1598.8</ele>
        <time>2021-08-27T11:22:13.683Z</time>
      </trkpt>
      <trkpt lat="43.97354" lon="6.4859">
        <ele>1598.9</ele>
        <time>2021-08-27T11:22:18.183Z</time>
      </trkpt>
      <trkpt lat="43.97354" lon="6.48591">
        <ele>1598.9</ele>
        <time>2021-08-27T11:22:18.926Z</time>
      </trkpt>
      <trkpt lat="43.97354" lon="6.48593">
        <ele>1599</ele>
        <time>2021-08-27T11:22:21.905Z</time>
      </trkpt>
      <trkpt lat="43.97354" lon="6.48595">
        <ele>1599</ele>
        <time>2021-08-27T11:22:23.392Z</time>
      </trkpt>
      <trkpt lat="43.97353" lon="6.48595">
        <ele>1599.1</ele>
        <time>2021-08-27T11:22:26.077Z</time>
      </trkpt>
      <trkpt lat="43.97352" lon="6.48595">
        <ele>1599.1</ele>
        <time>2021-08-27T11:22:27.110Z</time>
      </trkpt>
      <trkpt lat="43.97352" lon="6.48594">
        <ele>1599.1</ele>
        <time>2021-08-27T11:22:27.853Z</time>
      </trkpt>
      <trkpt lat="43.97351" lon="6.48594">
        <ele>1599.1</ele>
        <time>2021-08-27T11:22:28.886Z</time>
      </trkpt>
      <trkpt lat="43.97347" lon="6.48604">
        <ele>1599.5</ele>
        <time>2021-08-27T11:22:43.618Z</time>
      </trkpt>
      <trkpt lat="43.97344" lon="6.48609">
        <ele>1599.8</ele>
        <time>2021-08-27T11:22:52.934Z</time>
      </trkpt>
      <trkpt lat="43.97322" lon="6.48643">
        <ele>1599.4</ele>
        <time>2021-08-27T11:23:04.298Z</time>
      </trkpt>
      <trkpt lat="43.97291" lon="6.48702">
        <ele>1594.2</ele>
        <time>2021-08-27T11:23:15.929Z</time>
      </trkpt>
      <trkpt lat="43.97339" lon="6.48606">
        <ele>1599.9</ele>
        <time>2021-08-27T11:26:07.846Z</time>
      </trkpt>
      <trkpt lat="43.97353" lon="6.48595">
        <ele>1599.1</ele>
        <time>2021-08-27T11:26:11.585Z</time>
      </trkpt>
      <trkpt lat="43.97352" lon="6.48595">
        <ele>1599.1</ele>
        <time>2021-08-27T11:26:12.618Z</time>
      </trkpt>
      <trkpt lat="43.97352" lon="6.48596">
        <ele>1599.1</ele>
        <time>2021-08-27T11:26:13.361Z</time>
      </trkpt>
      <trkpt lat="43.97355" lon="6.4859">
        <ele>1598.9</ele>
        <time>2021-08-27T11:26:14.722Z</time>
      </trkpt>
      <trkpt lat="43.97356" lon="6.48589">
        <ele>1598.9</ele>
        <time>2021-08-27T11:26:15.994Z</time>
      </trkpt>
      <trkpt lat="43.97356" lon="6.4859">
        <ele>1598.9</ele>
        <time>2021-08-27T11:26:16.737Z</time>
      </trkpt>
      <trkpt lat="43.97355" lon="6.48589">
        <ele>1598.9</ele>
        <time>2021-08-27T11:26:18.010Z</time>
      </trkpt>
      <trkpt lat="43.97355" lon="6.4859">
        <ele>1598.9</ele>
        <time>2021-08-27T11:26:18.753Z</time>
      </trkpt>
      <trkpt lat="43.97356" lon="6.48591">
        <ele>1598.9</ele>
        <time>2021-08-27T11:26:20.025Z</time>
      </trkpt>
      <trkpt lat="43.97356" lon="6.4859">
        <ele>1598.9</ele>
        <time>2021-08-27T11:26:20.769Z</time>
      </trkpt>
      <trkpt lat="43.97356" lon="6.48591">
        <ele>1598.9</ele>
        <time>2021-08-27T11:26:21.512Z</time>
      </trkpt>
      <trkpt lat="43.97367" lon="6.48581">
        <ele>1598.1</ele>
        <time>2021-08-27T11:26:24.299Z</time>
      </trkpt>
      <trkpt lat="43.97375" lon="6.48573">
        <ele>1596.6</ele>
        <time>2021-08-27T11:26:26.479Z</time>
      </trkpt>
      <trkpt lat="43.97381" lon="6.48569">
        <ele>1595.9</ele>
        <time>2021-08-27T11:26:27.951Z</time>
      </trkpt>
      <trkpt lat="43.97388" lon="6.48561">
        <ele>1594.7</ele>
        <time>2021-08-27T11:26:29.956Z</time>
      </trkpt>
      <trkpt lat="43.97394" lon="6.48558">
        <ele>1594.4</ele>
        <time>2021-08-27T11:26:31.475Z</time>
      </trkpt>
      <trkpt lat="43.97402" lon="6.48555">
        <ele>1594.2</ele>
        <time>2021-08-27T11:26:33.953Z</time>
      </trkpt>
      <trkpt lat="43.97406" lon="6.48554">
        <ele>1594.1</ele>
        <time>2021-08-27T11:26:35.162Z</time>
      </trkpt>
      <trkpt lat="43.97415" lon="6.48548">
        <ele>1593.7</ele>
        <time>2021-08-27T11:26:37.696Z</time>
      </trkpt>
      <trkpt lat="43.97419" lon="6.48544">
        <ele>1592.8</ele>
        <time>2021-08-27T11:26:38.786Z</time>
      </trkpt>
      <trkpt lat="43.97425" lon="6.48537">
        <ele>1591</ele>
        <time>2021-08-27T11:26:40.519Z</time>
      </trkpt>
      <trkpt lat="43.9743" lon="6.48531">
        <ele>1589.3</ele>
        <time>2021-08-27T11:26:41.981Z</time>
      </trkpt>
      <trkpt lat="43.97436" lon="6.48527">
        <ele>1588</ele>
        <time>2021-08-27T11:26:43.453Z</time>
      </trkpt>
      <trkpt lat="43.9744" lon="6.48518">
        <ele>1586.1</ele>
        <time>2021-08-27T11:26:45.137Z</time>
      </trkpt>
      <trkpt lat="43.97444" lon="6.48514">
        <ele>1585</ele>
        <time>2021-08-27T11:26:46.227Z</time>
      </trkpt>
      <trkpt lat="43.97448" lon="6.4851">
        <ele>1583.9</ele>
        <time>2021-08-27T11:26:47.318Z</time>
      </trkpt>
      <trkpt lat="43.9745" lon="6.48504">
        <ele>1582.8</ele>
        <time>2021-08-27T11:26:48.370Z</time>
      </trkpt>
      <trkpt lat="43.97453" lon="6.48497">
        <ele>1581.2</ele>
        <time>2021-08-27T11:26:49.668Z</time>
      </trkpt>
      <trkpt lat="43.97457" lon="6.48492">
        <ele>1579.4</ele>
        <time>2021-08-27T11:26:50.858Z</time>
      </trkpt>
      <trkpt lat="43.97459" lon="6.48484">
        <ele>1577.5</ele>
        <time>2021-08-27T11:26:52.206Z</time>
      </trkpt>
      <trkpt lat="43.97461" lon="6.48477">
        <ele>1575.7</ele>
        <time>2021-08-27T11:26:53.405Z</time>
      </trkpt>
      <trkpt lat="43.97463" lon="6.48471">
        <ele>1574.2</ele>
        <time>2021-08-27T11:26:54.458Z</time>
      </trkpt>
      <trkpt lat="43.97464" lon="6.48469">
        <ele>1573.6</ele>
        <time>2021-08-27T11:26:54.846Z</time>
      </trkpt>
      <trkpt lat="43.97465" lon="6.48465">
        <ele>1572.8</ele>
        <time>2021-08-27T11:26:55.520Z</time>
      </trkpt>
      <trkpt lat="43.97468" lon="6.4846">
        <ele>1571.7</ele>
        <time>2021-08-27T11:26:56.556Z</time>
      </trkpt>
      <trkpt lat="43.97471" lon="6.48458">
        <ele>1571.1</ele>
        <time>2021-08-27T11:26:57.292Z</time>
      </trkpt>
      <trkpt lat="43.97472" lon="6.48454">
        <ele>1570.4</ele>
        <time>2021-08-27T11:26:57.966Z</time>
      </trkpt>
      <trkpt lat="43.97475" lon="6.48448">
        <ele>1569.2</ele>
        <time>2021-08-27T11:26:59.130Z</time>
      </trkpt>
      <trkpt lat="43.97476" lon="6.48441">
        <ele>1568.1</ele>
        <time>2021-08-27T11:27:00.266Z</time>
      </trkpt>
      <trkpt lat="43.97477" lon="6.48439">
        <ele>1567.7</ele>
        <time>2021-08-27T11:27:00.654Z</time>
      </trkpt>
      <trkpt lat="43.97478" lon="6.48429">
        <ele>1566.1</ele>
        <time>2021-08-27T11:27:02.261Z</time>
      </trkpt>
      <trkpt lat="43.97482" lon="6.48424">
        <ele>1565.7</ele>
        <time>2021-08-27T11:27:03.451Z</time>
      </trkpt>
      <trkpt lat="43.97488" lon="6.48419">
        <ele>1565.3</ele>
        <time>2021-08-27T11:27:04.979Z</time>
      </trkpt>
      <trkpt lat="43.9749" lon="6.48413">
        <ele>1564.4</ele>
        <time>2021-08-27T11:27:06.032Z</time>
      </trkpt>
      <trkpt lat="43.97488" lon="6.48409">
        <ele>1563.3</ele>
        <time>2021-08-27T11:27:06.807Z</time>
      </trkpt>
      <trkpt lat="43.9749" lon="6.48409">
        <ele>1563.7</ele>
        <time>2021-08-27T11:27:14.774Z</time>
      </trkpt>
      <trkpt lat="43.97491" lon="6.48408">
        <ele>1563.5</ele>
        <time>2021-08-27T11:27:15.047Z</time>
      </trkpt>
      <trkpt lat="43.97491" lon="6.48403">
        <ele>1562.6</ele>
        <time>2021-08-27T11:27:15.843Z</time>
      </trkpt>
      <trkpt lat="43.97488" lon="6.48399">
        <ele>1561.3</ele>
        <time>2021-08-27T11:27:16.763Z</time>
      </trkpt>
      <trkpt lat="43.97485" lon="6.48397">
        <ele>1560.6</ele>
        <time>2021-08-27T11:27:17.499Z</time>
      </trkpt>
      <trkpt lat="43.97482" lon="6.48395">
        <ele>1559.8</ele>
        <time>2021-08-27T11:27:18.235Z</time>
      </trkpt>
      <trkpt lat="43.97481" lon="6.48393">
        <ele>1559.1</ele>
        <time>2021-08-27T11:27:18.623Z</time>
      </trkpt>
      <trkpt lat="43.9748" lon="6.48394">
        <ele>1559.2</ele>
        <time>2021-08-27T11:27:21.418Z</time>
      </trkpt>
      <trkpt lat="43.9748" lon="6.48395">
        <ele>1559.4</ele>
        <time>2021-08-27T11:27:24.285Z</time>
      </trkpt>
      <trkpt lat="43.97481" lon="6.48392">
        <ele>1558.9</ele>
        <time>2021-08-27T11:27:24.811Z</time>
      </trkpt>
      <trkpt lat="43.97479" lon="6.48393">
        <ele>1558.9</ele>
        <time>2021-08-27T11:27:27.007Z</time>
      </trkpt>
      <trkpt lat="43.97479" lon="6.4839">
        <ele>1558.3</ele>
        <time>2021-08-27T11:27:27.484Z</time>
      </trkpt>
      <trkpt lat="43.97478" lon="6.4839">
        <ele>1558</ele>
        <time>2021-08-27T11:27:27.705Z</time>
      </trkpt>
      <trkpt lat="43.97478" lon="6.48392">
        <ele>1558.6</ele>
        <time>2021-08-27T11:27:33.439Z</time>
      </trkpt>
      <trkpt lat="43.97478" lon="6.48393">
        <ele>1558.8</ele>
        <time>2021-08-27T11:27:36.305Z</time>
      </trkpt>
      <trkpt lat="43.97478" lon="6.48392">
        <ele>1558.5</ele>
        <time>2021-08-27T11:27:36.465Z</time>
      </trkpt>
      <trkpt lat="43.97478" lon="6.48393">
        <ele>1558.7</ele>
        <time>2021-08-27T11:27:39.331Z</time>
      </trkpt>
      <trkpt lat="43.97479" lon="6.48392">
        <ele>1558.7</ele>
        <time>2021-08-27T11:27:40.604Z</time>
      </trkpt>
      <trkpt lat="43.97478" lon="6.48394">
        <ele>1558.9</ele>
        <time>2021-08-27T11:27:46.061Z</time>
      </trkpt>
      <trkpt lat="43.97477" lon="6.48395">
        <ele>1559</ele>
        <time>2021-08-27T11:27:48.857Z</time>
      </trkpt>
      <trkpt lat="43.97477" lon="6.48394">
        <ele>1558.9</ele>
        <time>2021-08-27T11:27:49.016Z</time>
      </trkpt>
      <trkpt lat="43.97479" lon="6.48395">
        <ele>1559.3</ele>
        <time>2021-08-27T11:27:57.483Z</time>
      </trkpt>
      <trkpt lat="43.9748" lon="6.48397">
        <ele>1559.9</ele>
        <time>2021-08-27T11:28:04.465Z</time>
      </trkpt>
      <trkpt lat="43.97479" lon="6.48396">
        <ele>1559.5</ele>
        <time>2021-08-27T11:28:04.737Z</time>
      </trkpt>
      <trkpt lat="43.97478" lon="6.48395">
        <ele>1559.2</ele>
        <time>2021-08-27T11:28:05.010Z</time>
      </trkpt>
      <trkpt lat="43.97479" lon="6.48395">
        <ele>1559.5</ele>
        <time>2021-08-27T11:28:08.993Z</time>
      </trkpt>
      <trkpt lat="43.97478" lon="6.48395">
        <ele>1559.2</ele>
        <time>2021-08-27T11:28:09.214Z</time>
      </trkpt>
      <trkpt lat="43.9748" lon="6.48392">
        <ele>1558.8</ele>
        <time>2021-08-27T11:28:09.866Z</time>
      </trkpt>
      <trkpt lat="43.97482" lon="6.48392">
        <ele>1559.1</ele>
        <time>2021-08-27T11:28:17.833Z</time>
      </trkpt>
      <trkpt lat="43.97477" lon="6.48396">
        <ele>1559.3</ele>
        <time>2021-08-27T11:28:26.563Z</time>
      </trkpt>
      <trkpt lat="43.97478" lon="6.48395">
        <ele>1559.2</ele>
        <time>2021-08-27T11:28:26.836Z</time>
      </trkpt>
      <trkpt lat="43.97477" lon="6.48394">
        <ele>1558.8</ele>
        <time>2021-08-27T11:28:27.108Z</time>
      </trkpt>
      <trkpt lat="43.97478" lon="6.48392">
        <ele>1558.6</ele>
        <time>2021-08-27T11:28:27.496Z</time>
      </trkpt>
      <trkpt lat="43.97479" lon="6.48393">
        <ele>1558.9</ele>
        <time>2021-08-27T11:28:32.404Z</time>
      </trkpt>
      <trkpt lat="43.97481" lon="6.48392">
        <ele>1558.9</ele>
        <time>2021-08-27T11:28:34.599Z</time>
      </trkpt>
      <trkpt lat="43.9748" lon="6.48392">
        <ele>1558.9</ele>
        <time>2021-08-27T11:28:35.632Z</time>
      </trkpt>
      <trkpt lat="43.97479" lon="6.48392">
        <ele>1558.7</ele>
        <time>2021-08-27T11:28:35.853Z</time>
      </trkpt>
      <trkpt lat="43.9748" lon="6.48392">
        <ele>1558.8</ele>
        <time>2021-08-27T11:28:38.538Z</time>
      </trkpt>
      <trkpt lat="43.97478" lon="6.48394">
        <ele>1558.9</ele>
        <time>2021-08-27T11:28:42.589Z</time>
      </trkpt>
      <trkpt lat="43.97477" lon="6.48391">
        <ele>1558.3</ele>
        <time>2021-08-27T11:28:43.115Z</time>
      </trkpt>
      <trkpt lat="43.97478" lon="6.48391">
        <ele>1558.3</ele>
        <time>2021-08-27T11:28:44.148Z</time>
      </trkpt>
      <trkpt lat="43.97478" lon="6.48395">
        <ele>1559.2</ele>
        <time>2021-08-27T11:28:55.615Z</time>
      </trkpt>
      <trkpt lat="43.97479" lon="6.48396">
        <ele>1559.6</ele>
        <time>2021-08-27T11:29:00.523Z</time>
      </trkpt>
      <trkpt lat="43.97478" lon="6.48395">
        <ele>1559.2</ele>
        <time>2021-08-27T11:29:00.795Z</time>
      </trkpt>
      <trkpt lat="43.97479" lon="6.48394">
        <ele>1559.1</ele>
        <time>2021-08-27T11:29:01.068Z</time>
      </trkpt>
      <trkpt lat="43.97479" lon="6.48397">
        <ele>1559.8</ele>
        <time>2021-08-27T11:29:09.668Z</time>
      </trkpt>
      <trkpt lat="43.97479" lon="6.48395">
        <ele>1559.5</ele>
        <time>2021-08-27T11:29:09.986Z</time>
      </trkpt>
      <trkpt lat="43.9748" lon="6.48395">
        <ele>1559.5</ele>
        <time>2021-08-27T11:29:11.019Z</time>
      </trkpt>
      <trkpt lat="43.97481" lon="6.48394">
        <ele>1559.4</ele>
        <time>2021-08-27T11:29:11.291Z</time>
      </trkpt>
      <trkpt lat="43.97483" lon="6.48394">
        <ele>1559.5</ele>
        <time>2021-08-27T11:29:14.903Z</time>
      </trkpt>
      <trkpt lat="43.97482" lon="6.48396">
        <ele>1560</ele>
        <time>2021-08-27T11:29:21.884Z</time>
      </trkpt>
      <trkpt lat="43.9748" lon="6.484">
        <ele>1560.5</ele>
        <time>2021-08-27T11:29:35.847Z</time>
      </trkpt>
      <trkpt lat="43.97479" lon="6.484">
        <ele>1560.5</ele>
        <time>2021-08-27T11:29:36.880Z</time>
      </trkpt>
      <trkpt lat="43.97479" lon="6.48397">
        <ele>1559.8</ele>
        <time>2021-08-27T11:29:37.358Z</time>
      </trkpt>
      <trkpt lat="43.97478" lon="6.48395">
        <ele>1559.2</ele>
        <time>2021-08-27T11:29:37.745Z</time>
      </trkpt>
      <trkpt lat="43.97479" lon="6.48391">
        <ele>1558.5</ele>
        <time>2021-08-27T11:29:38.419Z</time>
      </trkpt>
      <trkpt lat="43.97481" lon="6.48393">
        <ele>1559</ele>
        <time>2021-08-27T11:29:48.235Z</time>
      </trkpt>
      <trkpt lat="43.97481" lon="6.48395">
        <ele>1559.6</ele>
        <time>2021-08-27T11:29:53.968Z</time>
      </trkpt>
      <trkpt lat="43.9748" lon="6.48397">
        <ele>1559.9</ele>
        <time>2021-08-27T11:30:00.950Z</time>
      </trkpt>
      <trkpt lat="43.97479" lon="6.48397">
        <ele>1559.8</ele>
        <time>2021-08-27T11:30:01.171Z</time>
      </trkpt>
      <trkpt lat="43.97479" lon="6.48395">
        <ele>1559.4</ele>
        <time>2021-08-27T11:30:01.489Z</time>
      </trkpt>
      <trkpt lat="43.97478" lon="6.48398">
        <ele>1559.8</ele>
        <time>2021-08-27T11:30:10.967Z</time>
      </trkpt>
      <trkpt lat="43.97477" lon="6.48397">
        <ele>1559.5</ele>
        <time>2021-08-27T11:30:11.240Z</time>
      </trkpt>
      <trkpt lat="43.97478" lon="6.48396">
        <ele>1559.4</ele>
        <time>2021-08-27T11:30:11.512Z</time>
      </trkpt>
      <trkpt lat="43.97479" lon="6.48396">
        <ele>1559.4</ele>
        <time>2021-08-27T11:30:12.545Z</time>
      </trkpt>
      <trkpt lat="43.97479" lon="6.48395">
        <ele>1559.3</ele>
        <time>2021-08-27T11:30:12.704Z</time>
      </trkpt>
      <trkpt lat="43.9748" lon="6.48394">
        <ele>1559.3</ele>
        <time>2021-08-27T11:30:13.977Z</time>
      </trkpt>
      <trkpt lat="43.97479" lon="6.48396">
        <ele>1559.6</ele>
        <time>2021-08-27T11:30:20.958Z</time>
      </trkpt>
      <trkpt lat="43.97478" lon="6.48397">
        <ele>1559.7</ele>
        <time>2021-08-27T11:30:23.754Z</time>
      </trkpt>
      <trkpt lat="43.97479" lon="6.48396">
        <ele>1559.6</ele>
        <time>2021-08-27T11:30:24.026Z</time>
      </trkpt>
      <trkpt lat="43.97478" lon="6.48394">
        <ele>1559</ele>
        <time>2021-08-27T11:30:24.414Z</time>
      </trkpt>
      <trkpt lat="43.97479" lon="6.48394">
        <ele>1559.2</ele>
        <time>2021-08-27T11:30:28.398Z</time>
      </trkpt>
      <trkpt lat="43.97479" lon="6.48391">
        <ele>1558.5</ele>
        <time>2021-08-27T11:30:28.875Z</time>
      </trkpt>
      <trkpt lat="43.97479" lon="6.48392">
        <ele>1558.7</ele>
        <time>2021-08-27T11:30:31.742Z</time>
      </trkpt>
      <trkpt lat="43.97478" lon="6.48394">
        <ele>1558.8</ele>
        <time>2021-08-27T11:30:35.060Z</time>
      </trkpt>
      <trkpt lat="43.97477" lon="6.48395">
        <ele>1559.1</ele>
        <time>2021-08-27T11:30:39.968Z</time>
      </trkpt>
      <trkpt lat="43.97478" lon="6.48393">
        <ele>1558.8</ele>
        <time>2021-08-27T11:30:40.356Z</time>
      </trkpt>
      <trkpt lat="43.97479" lon="6.48392">
        <ele>1558.5</ele>
        <time>2021-08-27T11:30:40.628Z</time>
      </trkpt>
      <trkpt lat="43.97479" lon="6.48394">
        <ele>1559.1</ele>
        <time>2021-08-27T11:30:46.362Z</time>
      </trkpt>
      <trkpt lat="43.97478" lon="6.48395">
        <ele>1559.4</ele>
        <time>2021-08-27T11:30:51.269Z</time>
      </trkpt>
      <trkpt lat="43.97476" lon="6.484">
        <ele>1560</ele>
        <time>2021-08-27T11:31:07.668Z</time>
      </trkpt>
      <trkpt lat="43.97478" lon="6.48395">
        <ele>1559.2</ele>
        <time>2021-08-27T11:31:08.579Z</time>
      </trkpt>
      <trkpt lat="43.97479" lon="6.48395">
        <ele>1559.3</ele>
        <time>2021-08-27T11:31:11.264Z</time>
      </trkpt>
      <trkpt lat="43.97479" lon="6.48394">
        <ele>1559.1</ele>
        <time>2021-08-27T11:31:11.424Z</time>
      </trkpt>
      <trkpt lat="43.97476" lon="6.48395">
        <ele>1558.9</ele>
        <time>2021-08-27T11:31:12.058Z</time>
      </trkpt>
      <trkpt lat="43.97477" lon="6.48393">
        <ele>1558.6</ele>
        <time>2021-08-27T11:31:12.446Z</time>
      </trkpt>
      <trkpt lat="43.97479" lon="6.48394">
        <ele>1559.2</ele>
        <time>2021-08-27T11:31:20.913Z</time>
      </trkpt>
      <trkpt lat="43.97479" lon="6.48393">
        <ele>1558.9</ele>
        <time>2021-08-27T11:31:21.072Z</time>
      </trkpt>
      <trkpt lat="43.9748" lon="6.48395">
        <ele>1559.4</ele>
        <time>2021-08-27T11:31:28.053Z</time>
      </trkpt>
      <trkpt lat="43.97479" lon="6.48397">
        <ele>1559.7</ele>
        <time>2021-08-27T11:31:35.034Z</time>
      </trkpt>
      <trkpt lat="43.97479" lon="6.48396">
        <ele>1559.7</ele>
        <time>2021-08-27T11:31:35.778Z</time>
      </trkpt>
      <trkpt lat="43.9748" lon="6.48395">
        <ele>1559.4</ele>
        <time>2021-08-27T11:31:36.050Z</time>
      </trkpt>
      <trkpt lat="43.9748" lon="6.48393">
        <ele>1559</ele>
        <time>2021-08-27T11:31:36.369Z</time>
      </trkpt>
      <trkpt lat="43.9748" lon="6.48391">
        <ele>1558.7</ele>
        <time>2021-08-27T11:31:36.687Z</time>
      </trkpt>
      <trkpt lat="43.97481" lon="6.48389">
        <ele>1558.3</ele>
        <time>2021-08-27T11:31:37.075Z</time>
      </trkpt>
      <trkpt lat="43.9748" lon="6.48393">
        <ele>1559</ele>
        <time>2021-08-27T11:31:49.214Z</time>
      </trkpt>
      <trkpt lat="43.9748" lon="6.48395">
        <ele>1559.5</ele>
        <time>2021-08-27T11:31:54.947Z</time>
      </trkpt>
      <trkpt lat="43.97481" lon="6.48395">
        <ele>1559.6</ele>
        <time>2021-08-27T11:31:57.633Z</time>
      </trkpt>
      <trkpt lat="43.9748" lon="6.48396">
        <ele>1559.8</ele>
        <time>2021-08-27T11:32:02.541Z</time>
      </trkpt>
      <trkpt lat="43.9748" lon="6.48395">
        <ele>1559.4</ele>
        <time>2021-08-27T11:32:02.700Z</time>
      </trkpt>
      <trkpt lat="43.97481" lon="6.48396">
        <ele>1559.8</ele>
        <time>2021-08-27T11:32:07.608Z</time>
      </trkpt>
      <trkpt lat="43.97481" lon="6.48395">
        <ele>1559.5</ele>
        <time>2021-08-27T11:32:07.767Z</time>
      </trkpt>
      <trkpt lat="43.9748" lon="6.48393">
        <ele>1559.2</ele>
        <time>2021-08-27T11:32:08.154Z</time>
      </trkpt>
      <trkpt lat="43.9748" lon="6.48394">
        <ele>1559.3</ele>
        <time>2021-08-27T11:32:11.021Z</time>
      </trkpt>
      <trkpt lat="43.97479" lon="6.48395">
        <ele>1559.4</ele>
        <time>2021-08-27T11:32:13.817Z</time>
      </trkpt>
      <trkpt lat="43.97479" lon="6.48396">
        <ele>1559.7</ele>
        <time>2021-08-27T11:32:16.684Z</time>
      </trkpt>
      <trkpt lat="43.9748" lon="6.48396">
        <ele>1559.7</ele>
        <time>2021-08-27T11:32:17.716Z</time>
      </trkpt>
      <trkpt lat="43.97481" lon="6.48395">
        <ele>1559.6</ele>
        <time>2021-08-27T11:32:17.989Z</time>
      </trkpt>
      <trkpt lat="43.9748" lon="6.48396">
        <ele>1559.7</ele>
        <time>2021-08-27T11:32:20.785Z</time>
      </trkpt>
      <trkpt lat="43.9748" lon="6.48395">
        <ele>1559.5</ele>
        <time>2021-08-27T11:32:20.944Z</time>
      </trkpt>
      <trkpt lat="43.97479" lon="6.48397">
        <ele>1559.7</ele>
        <time>2021-08-27T11:32:26.401Z</time>
      </trkpt>
      <trkpt lat="43.97479" lon="6.48396">
        <ele>1559.5</ele>
        <time>2021-08-27T11:32:26.561Z</time>
      </trkpt>
      <trkpt lat="43.9748" lon="6.48396">
        <ele>1559.7</ele>
        <time>2021-08-27T11:32:30.544Z</time>
      </trkpt>
      <trkpt lat="43.97479" lon="6.48396">
        <ele>1559.5</ele>
        <time>2021-08-27T11:32:30.765Z</time>
      </trkpt>
      <trkpt lat="43.97479" lon="6.48393">
        <ele>1558.9</ele>
        <time>2021-08-27T11:32:31.243Z</time>
      </trkpt>
      <trkpt lat="43.9748" lon="6.48392">
        <ele>1558.9</ele>
        <time>2021-08-27T11:32:32.515Z</time>
      </trkpt>
      <trkpt lat="43.97479" lon="6.48393">
        <ele>1558.9</ele>
        <time>2021-08-27T11:32:33.788Z</time>
      </trkpt>
      <trkpt lat="43.9748" lon="6.48392">
        <ele>1558.8</ele>
        <time>2021-08-27T11:32:34.060Z</time>
      </trkpt>
      <trkpt lat="43.97479" lon="6.48392">
        <ele>1558.8</ele>
        <time>2021-08-27T11:32:35.093Z</time>
      </trkpt>
      <trkpt lat="43.9748" lon="6.48393">
        <ele>1558.9</ele>
        <time>2021-08-27T11:32:37.889Z</time>
      </trkpt>
      <trkpt lat="43.97481" lon="6.48392">
        <ele>1559</ele>
        <time>2021-08-27T11:32:40.685Z</time>
      </trkpt>
      <trkpt lat="43.97482" lon="6.48393">
        <ele>1559.2</ele>
        <time>2021-08-27T11:32:45.592Z</time>
      </trkpt>
      <trkpt lat="43.9748" lon="6.48393">
        <ele>1559</ele>
        <time>2021-08-27T11:32:46.035Z</time>
      </trkpt>
      <trkpt lat="43.9748" lon="6.48391">
        <ele>1558.7</ele>
        <time>2021-08-27T11:32:46.353Z</time>
      </trkpt>
      <trkpt lat="43.9748" lon="6.48392">
        <ele>1558.8</ele>
        <time>2021-08-27T11:32:49.220Z</time>
      </trkpt>
      <trkpt lat="43.97481" lon="6.48394">
        <ele>1559.4</ele>
        <time>2021-08-27T11:32:56.201Z</time>
      </trkpt>
      <trkpt lat="43.97481" lon="6.48395">
        <ele>1559.6</ele>
        <time>2021-08-27T11:32:59.068Z</time>
      </trkpt>
      <trkpt lat="43.9748" lon="6.48398">
        <ele>1560.1</ele>
        <time>2021-08-27T11:33:08.546Z</time>
      </trkpt>
      <trkpt lat="43.97481" lon="6.48398">
        <ele>1560.2</ele>
        <time>2021-08-27T11:33:11.231Z</time>
      </trkpt>
      <trkpt lat="43.97481" lon="6.48397">
        <ele>1560</ele>
        <time>2021-08-27T11:33:11.391Z</time>
      </trkpt>
      <trkpt lat="43.97481" lon="6.48394">
        <ele>1559.5</ele>
        <time>2021-08-27T11:33:11.868Z</time>
      </trkpt>
      <trkpt lat="43.97481" lon="6.48392">
        <ele>1559.1</ele>
        <time>2021-08-27T11:33:12.187Z</time>
      </trkpt>
      <trkpt lat="43.9748" lon="6.48394">
        <ele>1559.2</ele>
        <time>2021-08-27T11:33:15.505Z</time>
      </trkpt>
      <trkpt lat="43.97478" lon="6.48392">
        <ele>1558.6</ele>
        <time>2021-08-27T11:33:16.050Z</time>
      </trkpt>
      <trkpt lat="43.97479" lon="6.48392">
        <ele>1558.6</ele>
        <time>2021-08-27T11:33:17.083Z</time>
      </trkpt>
      <trkpt lat="43.97479" lon="6.48393">
        <ele>1558.8</ele>
        <time>2021-08-27T11:33:19.950Z</time>
      </trkpt>
      <trkpt lat="43.9748" lon="6.48393">
        <ele>1559</ele>
        <time>2021-08-27T11:33:23.933Z</time>
      </trkpt>
      <trkpt lat="43.97481" lon="6.48393">
        <ele>1559.3</ele>
        <time>2021-08-27T11:33:27.916Z</time>
      </trkpt>
      <trkpt lat="43.97482" lon="6.48393">
        <ele>1559.2</ele>
        <time>2021-08-27T11:33:28.138Z</time>
      </trkpt>
      <trkpt lat="43.97483" lon="6.48393">
        <ele>1559.5</ele>
        <time>2021-08-27T11:33:32.121Z</time>
      </trkpt>
      <trkpt lat="43.97484" lon="6.48394">
        <ele>1559.8</ele>
        <time>2021-08-27T11:33:37.029Z</time>
      </trkpt>
      <trkpt lat="43.97484" lon="6.48393">
        <ele>1559.6</ele>
        <time>2021-08-27T11:33:37.188Z</time>
      </trkpt>
      <trkpt lat="43.97487" lon="6.48395">
        <ele>1560.3</ele>
        <time>2021-08-27T11:33:50.443Z</time>
      </trkpt>
      <trkpt lat="43.97491" lon="6.48394">
        <ele>1560.7</ele>
        <time>2021-08-27T11:34:01.192Z</time>
      </trkpt>
      <trkpt lat="43.97492" lon="6.48389">
        <ele>1559.9</ele>
        <time>2021-08-27T11:34:02.019Z</time>
      </trkpt>
      <trkpt lat="43.97492" lon="6.48381">
        <ele>1558.2</ele>
        <time>2021-08-27T11:34:03.292Z</time>
      </trkpt>
      <trkpt lat="43.97491" lon="6.48373">
        <ele>1556.6</ele>
        <time>2021-08-27T11:34:04.585Z</time>
      </trkpt>
      <trkpt lat="43.97488" lon="6.48364">
        <ele>1554.1</ele>
        <time>2021-08-27T11:34:06.164Z</time>
      </trkpt>
      <trkpt lat="43.97488" lon="6.48359">
        <ele>1553.1</ele>
        <time>2021-08-27T11:34:06.960Z</time>
      </trkpt>
      <trkpt lat="43.9749" lon="6.48355">
        <ele>1552.8</ele>
        <time>2021-08-27T11:34:07.736Z</time>
      </trkpt>
      <trkpt lat="43.97494" lon="6.48346">
        <ele>1551.9</ele>
        <time>2021-08-27T11:34:09.420Z</time>
      </trkpt>
      <trkpt lat="43.97497" lon="6.4834">
        <ele>1551.6</ele>
        <time>2021-08-27T11:34:10.569Z</time>
      </trkpt>
      <trkpt lat="43.975" lon="6.48334">
        <ele>1551</ele>
        <time>2021-08-27T11:34:11.732Z</time>
      </trkpt>
      <trkpt lat="43.97501" lon="6.48328">
        <ele>1549.4</ele>
        <time>2021-08-27T11:34:12.713Z</time>
      </trkpt>
      <trkpt lat="43.97502" lon="6.4832">
        <ele>1547.1</ele>
        <time>2021-08-27T11:34:14.005Z</time>
      </trkpt>
      <trkpt lat="43.97503" lon="6.48313">
        <ele>1544.8</ele>
        <time>2021-08-27T11:34:15.141Z</time>
      </trkpt>
      <trkpt lat="43.97505" lon="6.48302">
        <ele>1541.9</ele>
        <time>2021-08-27T11:34:16.948Z</time>
      </trkpt>
      <trkpt lat="43.97505" lon="6.48292">
        <ele>1539</ele>
        <time>2021-08-27T11:34:18.540Z</time>
      </trkpt>
      <trkpt lat="43.97505" lon="6.48282">
        <ele>1536.4</ele>
        <time>2021-08-27T11:34:20.132Z</time>
      </trkpt>
      <trkpt lat="43.9751" lon="6.48275">
        <ele>1534.5</ele>
        <time>2021-08-27T11:34:21.702Z</time>
      </trkpt>
      <trkpt lat="43.97516" lon="6.48273">
        <ele>1534.2</ele>
        <time>2021-08-27T11:34:23.151Z</time>
      </trkpt>
      <trkpt lat="43.97522" lon="6.4827">
        <ele>1533.8</ele>
        <time>2021-08-27T11:34:24.483Z</time>
      </trkpt>
      <trkpt lat="43.97525" lon="6.48265">
        <ele>1532.8</ele>
        <time>2021-08-27T11:34:25.519Z</time>
      </trkpt>
      <trkpt lat="43.9753" lon="6.48257">
        <ele>1531.7</ele>
        <time>2021-08-27T11:34:27.206Z</time>
      </trkpt>
      <trkpt lat="43.97536" lon="6.48252">
        <ele>1531.2</ele>
        <time>2021-08-27T11:34:28.754Z</time>
      </trkpt>
      <trkpt lat="43.97542" lon="6.48246">
        <ele>1530.3</ele>
        <time>2021-08-27T11:34:30.389Z</time>
      </trkpt>
      <trkpt lat="43.97586" lon="6.48212">
        <ele>1528.9</ele>
        <time>2021-08-27T11:34:44.853Z</time>
      </trkpt>
      <trkpt lat="43.97613" lon="6.48181">
        <ele>1528.2</ele>
        <time>2021-08-27T11:34:55.838Z</time>
      </trkpt>
      <trkpt lat="43.97638" lon="6.48166">
        <ele>1532.9</ele>
        <time>2021-08-27T11:36:44.311Z</time>
      </trkpt>
      <trkpt lat="43.97657" lon="6.48139">
        <ele>1532.7</ele>
        <time>2021-08-27T11:36:54.316Z</time>
      </trkpt>
      <trkpt lat="43.97679" lon="6.48121">
        <ele>1533.3</ele>
        <time>2021-08-27T11:37:27.915Z</time>
      </trkpt>
      <trkpt lat="43.97694" lon="6.48106">
        <ele>1532.9</ele>
        <time>2021-08-27T11:37:33.601Z</time>
      </trkpt>
      <trkpt lat="43.97717" lon="6.48087">
        <ele>1534.8</ele>
        <time>2021-08-27T11:38:29.633Z</time>
      </trkpt>
      <trkpt lat="43.97742" lon="6.48062">
        <ele>1535.4</ele>
        <time>2021-08-27T11:39:08.350Z</time>
      </trkpt>
      <trkpt lat="43.97752" lon="6.48047">
        <ele>1535.3</ele>
        <time>2021-08-27T11:39:22.113Z</time>
      </trkpt>
      <trkpt lat="43.97772" lon="6.48025">
        <ele>1535.3</ele>
        <time>2021-08-27T11:39:48.456Z</time>
      </trkpt>
      <trkpt lat="43.97791" lon="6.48008">
        <ele>1537.2</ele>
        <time>2021-08-27T11:40:40.995Z</time>
      </trkpt>
      <trkpt lat="43.97813" lon="6.48008">
        <ele>1541</ele>
        <time>2021-08-27T11:42:08.632Z</time>
      </trkpt>
      <trkpt lat="43.97849" lon="6.47991">
        <ele>1544.2</ele>
        <time>2021-08-27T11:43:37.093Z</time>
      </trkpt>
      <trkpt lat="43.97888" lon="6.47993">
        <ele>1551.6</ele>
        <time>2021-08-27T11:46:12.554Z</time>
      </trkpt>
      <trkpt lat="43.9792" lon="6.47996">
        <ele>1557.5</ele>
        <time>2021-08-27T11:48:20.315Z</time>
      </trkpt>
      <trkpt lat="43.97951" lon="6.48005">
        <ele>1564</ele>
        <time>2021-08-27T11:50:26.469Z</time>
      </trkpt>
      <trkpt lat="43.97976" lon="6.48019">
        <ele>1568.8</ele>
        <time>2021-08-27T11:52:13.837Z</time>
      </trkpt>
      <trkpt lat="43.9799" lon="6.48019">
        <ele>1571.6</ele>
        <time>2021-08-27T11:53:09.606Z</time>
      </trkpt>
      <trkpt lat="43.98008" lon="6.48019">
        <ele>1574.8</ele>
        <time>2021-08-27T11:54:21.308Z</time>
      </trkpt>
      <trkpt lat="43.98042" lon="6.48032">
        <ele>1580.6</ele>
        <time>2021-08-27T11:56:41.779Z</time>
      </trkpt>
      <trkpt lat="43.98048" lon="6.48042">
        <ele>1582.3</ele>
        <time>2021-08-27T11:57:19.101Z</time>
      </trkpt>
      <trkpt lat="43.98072" lon="6.48043">
        <ele>1586.4</ele>
        <time>2021-08-27T11:58:54.747Z</time>
      </trkpt>
      <trkpt lat="43.98088" lon="6.48043">
        <ele>1587.9</ele>
        <time>2021-08-27T11:59:35.251Z</time>
      </trkpt>
      <trkpt lat="43.98105" lon="6.48027">
        <ele>1584.6</ele>
        <time>2021-08-27T11:59:39.793Z</time>
      </trkpt>
      <trkpt lat="43.98088" lon="6.48024">
        <ele>1585.5</ele>
        <time>2021-08-27T12:00:11.258Z</time>
      </trkpt>
      <trkpt lat="43.98066" lon="6.48031">
        <ele>1584.1</ele>
        <time>2021-08-27T12:00:15.999Z</time>
      </trkpt>
      <trkpt lat="43.98058" lon="6.48044">
        <ele>1584.1</ele>
        <time>2021-08-27T12:00:28.710Z</time>
      </trkpt>
      <trkpt lat="43.98043" lon="6.4804">
        <ele>1581.3</ele>
        <time>2021-08-27T12:00:32.089Z</time>
      </trkpt>
      <trkpt lat="43.98028" lon="6.48038">
        <ele>1578.8</ele>
        <time>2021-08-27T12:00:35.423Z</time>
      </trkpt>
      <trkpt lat="43.9801" lon="6.48029">
        <ele>1575.5</ele>
        <time>2021-08-27T12:00:39.655Z</time>
      </trkpt>
      <trkpt lat="43.9799" lon="6.48023">
        <ele>1571.7</ele>
        <time>2021-08-27T12:00:44.182Z</time>
      </trkpt>
      <trkpt lat="43.97975" lon="6.48016">
        <ele>1568.6</ele>
        <time>2021-08-27T12:00:47.682Z</time>
      </trkpt>
      <trkpt lat="43.97952" lon="6.48009">
        <ele>1564.1</ele>
        <time>2021-08-27T12:00:52.891Z</time>
      </trkpt>
      <trkpt lat="43.97936" lon="6.48001">
        <ele>1561.4</ele>
        <time>2021-08-27T12:00:56.653Z</time>
      </trkpt>
      <trkpt lat="43.97922" lon="6.47996">
        <ele>1557.8</ele>
        <time>2021-08-27T12:00:59.851Z</time>
      </trkpt>
      <trkpt lat="43.97897" lon="6.47992">
        <ele>1552.6</ele>
        <time>2021-08-27T12:01:05.418Z</time>
      </trkpt>
      <trkpt lat="43.9788" lon="6.47992">
        <ele>1549.8</ele>
        <time>2021-08-27T12:01:09.179Z</time>
      </trkpt>
      <trkpt lat="43.97857" lon="6.47993">
        <ele>1546.4</ele>
        <time>2021-08-27T12:01:14.270Z</time>
      </trkpt>
      <trkpt lat="43.97835" lon="6.47992">
        <ele>1542.4</ele>
        <time>2021-08-27T12:01:19.139Z</time>
      </trkpt>
      <trkpt lat="43.97814" lon="6.47997">
        <ele>1540.2</ele>
        <time>2021-08-27T12:01:23.853Z</time>
      </trkpt>
      <trkpt lat="43.97789" lon="6.48013">
        <ele>1537</ele>
        <time>2021-08-27T12:01:29.942Z</time>
      </trkpt>
      <trkpt lat="43.97754" lon="6.48026">
        <ele>1533</ele>
        <time>2021-08-27T12:01:37.957Z</time>
      </trkpt>
      <trkpt lat="43.97726" lon="6.48051">
        <ele>1529.5</ele>
        <time>2021-08-27T12:01:45.320Z</time>
      </trkpt>
      <trkpt lat="43.97722" lon="6.48077">
        <ele>1534.2</ele>
        <time>2021-08-27T12:03:01.535Z</time>
      </trkpt>
      <trkpt lat="43.97701" lon="6.48097">
        <ele>1533.1</ele>
        <time>2021-08-27T12:03:07.810Z</time>
      </trkpt>
      <trkpt lat="43.97668" lon="6.48129">
        <ele>1534.1</ele>
        <time>2021-08-27T12:04:01.616Z</time>
      </trkpt>
      <trkpt lat="43.97639" lon="6.48153">
        <ele>1530.3</ele>
        <time>2021-08-27T12:04:09.083Z</time>
      </trkpt>
      <trkpt lat="43.9761" lon="6.48179">
        <ele>1527.6</ele>
        <time>2021-08-27T12:04:16.718Z</time>
      </trkpt>
      <trkpt lat="43.97602" lon="6.48186">
        <ele>1526.8</ele>
        <time>2021-08-27T12:04:18.810Z</time>
      </trkpt>
      <trkpt lat="43.97573" lon="6.48209">
        <ele>1526.2</ele>
        <time>2021-08-27T12:04:29.536Z</time>
      </trkpt>
      <trkpt lat="43.97555" lon="6.48242">
        <ele>1530.9</ele>
        <time>2021-08-27T12:06:28.239Z</time>
      </trkpt>
      <trkpt lat="43.97549" lon="6.48239">
        <ele>1529.4</ele>
        <time>2021-08-27T12:06:29.650Z</time>
      </trkpt>
      <trkpt lat="43.97547" lon="6.48239">
        <ele>1529.1</ele>
        <time>2021-08-27T12:06:30.092Z</time>
      </trkpt>
      <trkpt lat="43.97542" lon="6.48239">
        <ele>1528.6</ele>
        <time>2021-08-27T12:06:31.198Z</time>
      </trkpt>
      <trkpt lat="43.97537" lon="6.48239">
        <ele>1527.9</ele>
        <time>2021-08-27T12:06:32.304Z</time>
      </trkpt>
      <trkpt lat="43.9753" lon="6.48239">
        <ele>1527.1</ele>
        <time>2021-08-27T12:06:33.853Z</time>
      </trkpt>
      <trkpt lat="43.97523" lon="6.48239">
        <ele>1525.9</ele>
        <time>2021-08-27T12:06:35.402Z</time>
      </trkpt>
      <trkpt lat="43.97516" lon="6.48238">
        <ele>1524.9</ele>
        <time>2021-08-27T12:06:36.958Z</time>
      </trkpt>
      <trkpt lat="43.97508" lon="6.48237">
        <ele>1523.5</ele>
        <time>2021-08-27T12:06:38.735Z</time>
      </trkpt>
      <trkpt lat="43.9751" lon="6.48236">
        <ele>1523.2</ele>
        <time>2021-08-27T12:06:39.206Z</time>
      </trkpt>
      <trkpt lat="43.97513" lon="6.48234">
        <ele>1523</ele>
        <time>2021-08-27T12:06:39.915Z</time>
      </trkpt>
      <trkpt lat="43.97519" lon="6.48231">
        <ele>1522.9</ele>
        <time>2021-08-27T12:06:42.022Z</time>
      </trkpt>
      <trkpt lat="43.97527" lon="6.48229">
        <ele>1523.5</ele>
        <time>2021-08-27T12:06:59.414Z</time>
      </trkpt>
      <trkpt lat="43.97527" lon="6.48225">
        <ele>1522.3</ele>
        <time>2021-08-27T12:07:00.051Z</time>
      </trkpt>
      <trkpt lat="43.97517" lon="6.4822">
        <ele>1519.2</ele>
        <time>2021-08-27T12:07:02.402Z</time>
      </trkpt>
      <trkpt lat="43.9751" lon="6.48218">
        <ele>1517.1</ele>
        <time>2021-08-27T12:07:03.983Z</time>
      </trkpt>
      <trkpt lat="43.97501" lon="6.48216">
        <ele>1514.9</ele>
        <time>2021-08-27T12:07:05.999Z</time>
      </trkpt>
      <trkpt lat="43.97494" lon="6.48217">
        <ele>1512.5</ele>
        <time>2021-08-27T12:07:07.556Z</time>
      </trkpt>
      <trkpt lat="43.97487" lon="6.48221">
        <ele>1511.4</ele>
        <time>2021-08-27T12:07:09.231Z</time>
      </trkpt>
      <trkpt lat="43.97479" lon="6.48227">
        <ele>1510.2</ele>
        <time>2021-08-27T12:07:11.242Z</time>
      </trkpt>
      <trkpt lat="43.97478" lon="6.48227">
        <ele>1510.3</ele>
        <time>2021-08-27T12:07:13.927Z</time>
      </trkpt>
      <trkpt lat="43.97472" lon="6.48232">
        <ele>1509.5</ele>
        <time>2021-08-27T12:07:15.475Z</time>
      </trkpt>
      <trkpt lat="43.97465" lon="6.48237">
        <ele>1508.7</ele>
        <time>2021-08-27T12:07:17.216Z</time>
      </trkpt>
      <trkpt lat="43.97455" lon="6.48243">
        <ele>1507.5</ele>
        <time>2021-08-27T12:07:19.626Z</time>
      </trkpt>
      <trkpt lat="43.9745" lon="6.48244">
        <ele>1506</ele>
        <time>2021-08-27T12:07:20.744Z</time>
      </trkpt>
      <trkpt lat="43.97452" lon="6.4824">
        <ele>1504.9</ele>
        <time>2021-08-27T12:07:21.519Z</time>
      </trkpt>
      <trkpt lat="43.97459" lon="6.48231">
        <ele>1503.9</ele>
        <time>2021-08-27T12:07:23.629Z</time>
      </trkpt>
      <trkpt lat="43.97464" lon="6.48222">
        <ele>1502.3</ele>
        <time>2021-08-27T12:07:25.439Z</time>
      </trkpt>
      <trkpt lat="43.97466" lon="6.48218">
        <ele>1501.5</ele>
        <time>2021-08-27T12:07:26.215Z</time>
      </trkpt>
      <trkpt lat="43.97469" lon="6.48209">
        <ele>1499</ele>
        <time>2021-08-27T12:07:27.794Z</time>
      </trkpt>
      <trkpt lat="43.97471" lon="6.48204">
        <ele>1498.2</ele>
        <time>2021-08-27T12:07:28.704Z</time>
      </trkpt>
      <trkpt lat="43.97476" lon="6.48195">
        <ele>1496.8</ele>
        <time>2021-08-27T12:07:30.515Z</time>
      </trkpt>
      <trkpt lat="43.9748" lon="6.4819">
        <ele>1496.5</ele>
        <time>2021-08-27T12:07:31.703Z</time>
      </trkpt>
      <trkpt lat="43.97484" lon="6.48185">
        <ele>1496.7</ele>
        <time>2021-08-27T12:07:40.128Z</time>
      </trkpt>
      <trkpt lat="43.97484" lon="6.48184">
        <ele>1496.1</ele>
        <time>2021-08-27T12:07:40.288Z</time>
      </trkpt>
      <trkpt lat="43.97479" lon="6.48185">
        <ele>1494.1</ele>
        <time>2021-08-27T12:07:41.405Z</time>
      </trkpt>
      <trkpt lat="43.97471" lon="6.48189">
        <ele>1492.5</ele>
        <time>2021-08-27T12:07:43.286Z</time>
      </trkpt>
      <trkpt lat="43.97466" lon="6.48194">
        <ele>1491.7</ele>
        <time>2021-08-27T12:07:44.649Z</time>
      </trkpt>
      <trkpt lat="43.9746" lon="6.48201">
        <ele>1491.8</ele>
        <time>2021-08-27T12:07:53.811Z</time>
      </trkpt>
      <trkpt lat="43.97452" lon="6.48207">
        <ele>1491.6</ele>
        <time>2021-08-27T12:07:56.597Z</time>
      </trkpt>
      <trkpt lat="43.97446" lon="6.48212">
        <ele>1490.8</ele>
        <time>2021-08-27T12:07:58.144Z</time>
      </trkpt>
      <trkpt lat="43.97439" lon="6.48216">
        <ele>1489.6</ele>
        <time>2021-08-27T12:07:59.819Z</time>
      </trkpt>
      <trkpt lat="43.97432" lon="6.48218">
        <ele>1487.8</ele>
        <time>2021-08-27T12:08:01.400Z</time>
      </trkpt>
      <trkpt lat="43.97425" lon="6.48222">
        <ele>1486.7</ele>
        <time>2021-08-27T12:08:03.074Z</time>
      </trkpt>
      <trkpt lat="43.9742" lon="6.48225">
        <ele>1485.9</ele>
        <time>2021-08-27T12:08:04.279Z</time>
      </trkpt>
      <trkpt lat="43.97416" lon="6.48227">
        <ele>1485.3</ele>
        <time>2021-08-27T12:08:05.219Z</time>
      </trkpt>
      <trkpt lat="43.97416" lon="6.48224">
        <ele>1483.8</ele>
        <time>2021-08-27T12:08:05.697Z</time>
      </trkpt>
      <trkpt lat="43.9742" lon="6.48217">
        <ele>1482.6</ele>
        <time>2021-08-27T12:08:07.120Z</time>
      </trkpt>
      <trkpt lat="43.97424" lon="6.48212">
        <ele>1481.6</ele>
        <time>2021-08-27T12:08:08.310Z</time>
      </trkpt>
      <trkpt lat="43.97431" lon="6.48204">
        <ele>1481.1</ele>
        <time>2021-08-27T12:08:10.323Z</time>
      </trkpt>
      <trkpt lat="43.97437" lon="6.48198">
        <ele>1481.2</ele>
        <time>2021-08-27T12:08:19.037Z</time>
      </trkpt>
      <trkpt lat="43.97441" lon="6.4819">
        <ele>1479.4</ele>
        <time>2021-08-27T12:08:20.588Z</time>
      </trkpt>
      <trkpt lat="43.97444" lon="6.4818">
        <ele>1476.4</ele>
        <time>2021-08-27T12:08:22.313Z</time>
      </trkpt>
      <trkpt lat="43.97446" lon="6.48173">
        <ele>1474.6</ele>
        <time>2021-08-27T12:08:23.512Z</time>
      </trkpt>
      <trkpt lat="43.9745" lon="6.48165">
        <ele>1472.8</ele>
        <time>2021-08-27T12:08:25.063Z</time>
      </trkpt>
      <trkpt lat="43.97455" lon="6.48156">
        <ele>1470.6</ele>
        <time>2021-08-27T12:08:26.873Z</time>
      </trkpt>
      <trkpt lat="43.97459" lon="6.48149">
        <ele>1469</ele>
        <time>2021-08-27T12:08:28.296Z</time>
      </trkpt>
      <trkpt lat="43.97464" lon="6.48144">
        <ele>1468.8</ele>
        <time>2021-08-27T12:08:29.981Z</time>
      </trkpt>
      <trkpt lat="43.97471" lon="6.48137">
        <ele>1468.2</ele>
        <time>2021-08-27T12:08:31.889Z</time>
      </trkpt>
      <trkpt lat="43.97477" lon="6.48134">
        <ele>1469.9</ele>
        <time>2021-08-27T12:08:57.290Z</time>
      </trkpt>
      <trkpt lat="43.97476" lon="6.48132">
        <ele>1468.3</ele>
        <time>2021-08-27T12:08:57.678Z</time>
      </trkpt>
      <trkpt lat="43.97469" lon="6.48131">
        <ele>1464.4</ele>
        <time>2021-08-27T12:08:59.235Z</time>
      </trkpt>
      <trkpt lat="43.97463" lon="6.48132">
        <ele>1462.4</ele>
        <time>2021-08-27T12:09:00.571Z</time>
      </trkpt>
      <trkpt lat="43.97456" lon="6.48134">
        <ele>1460.3</ele>
        <time>2021-08-27T12:09:02.152Z</time>
      </trkpt>
      <trkpt lat="43.97449" lon="6.48137">
        <ele>1459</ele>
        <time>2021-08-27T12:09:03.773Z</time>
      </trkpt>
      <trkpt lat="43.97442" lon="6.48144">
        <ele>1459.2</ele>
        <time>2021-08-27T12:09:15.082Z</time>
      </trkpt>
      <trkpt lat="43.9744" lon="6.48147">
        <ele>1459.2</ele>
        <time>2021-08-27T12:09:18.121Z</time>
      </trkpt>
      <trkpt lat="43.97439" lon="6.48147">
        <ele>1459.2</ele>
        <time>2021-08-27T12:09:19.154Z</time>
      </trkpt>
      <trkpt lat="43.97434" lon="6.48154">
        <ele>1459.9</ele>
        <time>2021-08-27T12:09:37.964Z</time>
      </trkpt>
      <trkpt lat="43.97428" lon="6.4816">
        <ele>1460.2</ele>
        <time>2021-08-27T12:09:50.115Z</time>
      </trkpt>
      <trkpt lat="43.97425" lon="6.48165">
        <ele>1460.8</ele>
        <time>2021-08-27T12:10:07.435Z</time>
      </trkpt>
      <trkpt lat="43.97419" lon="6.48166">
        <ele>1458.5</ele>
        <time>2021-08-27T12:10:08.772Z</time>
      </trkpt>
      <trkpt lat="43.97412" lon="6.48169">
        <ele>1456</ele>
        <time>2021-08-27T12:10:10.393Z</time>
      </trkpt>
      <trkpt lat="43.97402" lon="6.48172">
        <ele>1451.5</ele>
        <time>2021-08-27T12:10:12.656Z</time>
      </trkpt>
      <trkpt lat="43.97396" lon="6.48175">
        <ele>1449.4</ele>
        <time>2021-08-27T12:10:14.066Z</time>
      </trkpt>
      <trkpt lat="43.97389" lon="6.48179">
        <ele>1447.1</ele>
        <time>2021-08-27T12:10:15.741Z</time>
      </trkpt>
      <trkpt lat="43.97384" lon="6.48183">
        <ele>1445.4</ele>
        <time>2021-08-27T12:10:17.017Z</time>
      </trkpt>
      <trkpt lat="43.97379" lon="6.48188">
        <ele>1444.4</ele>
        <time>2021-08-27T12:10:18.380Z</time>
      </trkpt>
      <trkpt lat="43.97373" lon="6.48193">
        <ele>1443.4</ele>
        <time>2021-08-27T12:10:19.928Z</time>
      </trkpt>
      <trkpt lat="43.97367" lon="6.48201">
        <ele>1443.3</ele>
        <time>2021-08-27T12:10:22.805Z</time>
      </trkpt>
      <trkpt lat="43.97364" lon="6.4821">
        <ele>1445.4</ele>
        <time>2021-08-27T12:10:51.238Z</time>
      </trkpt>
      <trkpt lat="43.97361" lon="6.48216">
        <ele>1446.8</ele>
        <time>2021-08-27T12:11:12.183Z</time>
      </trkpt>
      <trkpt lat="43.97358" lon="6.48222">
        <ele>1447.7</ele>
        <time>2021-08-27T12:11:33.127Z</time>
      </trkpt>
      <trkpt lat="43.97356" lon="6.48229">
        <ele>1449.5</ele>
        <time>2021-08-27T12:11:54.718Z</time>
      </trkpt>
      <trkpt lat="43.97355" lon="6.48235">
        <ele>1451.7</ele>
        <time>2021-08-27T12:12:12.374Z</time>
      </trkpt>
      <trkpt lat="43.9735" lon="6.48241">
        <ele>1451.1</ele>
        <time>2021-08-27T12:12:13.835Z</time>
      </trkpt>
      <trkpt lat="43.97344" lon="6.4824">
        <ele>1447.2</ele>
        <time>2021-08-27T12:12:15.172Z</time>
      </trkpt>
      <trkpt lat="43.97336" lon="6.48239">
        <ele>1441.8</ele>
        <time>2021-08-27T12:12:16.949Z</time>
      </trkpt>
      <trkpt lat="43.97328" lon="6.4824">
        <ele>1438.8</ele>
        <time>2021-08-27T12:12:18.726Z</time>
      </trkpt>
      <trkpt lat="43.97321" lon="6.48242">
        <ele>1437.3</ele>
        <time>2021-08-27T12:12:20.307Z</time>
      </trkpt>
      <trkpt lat="43.97318" lon="6.48242">
        <ele>1436.6</ele>
        <time>2021-08-27T12:12:20.971Z</time>
      </trkpt>
      <trkpt lat="43.97313" lon="6.48243">
        <ele>1434.8</ele>
        <time>2021-08-27T12:12:22.089Z</time>
      </trkpt>
      <trkpt lat="43.97306" lon="6.48244">
        <ele>1433.1</ele>
        <time>2021-08-27T12:12:23.645Z</time>
      </trkpt>
      <trkpt lat="43.97304" lon="6.48243">
        <ele>1432.2</ele>
        <time>2021-08-27T12:12:24.116Z</time>
      </trkpt>
      <trkpt lat="43.97311" lon="6.4824">
        <ele>1432.7</ele>
        <time>2021-08-27T12:12:39.141Z</time>
      </trkpt>
      <trkpt lat="43.97316" lon="6.48237">
        <ele>1432.9</ele>
        <time>2021-08-27T12:12:47.617Z</time>
      </trkpt>
      <trkpt lat="43.97316" lon="6.48233">
        <ele>1431.6</ele>
        <time>2021-08-27T12:12:48.254Z</time>
      </trkpt>
      <trkpt lat="43.9731" lon="6.48232">
        <ele>1429.1</ele>
        <time>2021-08-27T12:12:49.590Z</time>
      </trkpt>
      <trkpt lat="43.97304" lon="6.48233">
        <ele>1427.3</ele>
        <time>2021-08-27T12:12:50.927Z</time>
      </trkpt>
      <trkpt lat="43.97298" lon="6.48233">
        <ele>1425.3</ele>
        <time>2021-08-27T12:12:52.255Z</time>
      </trkpt>
      <trkpt lat="43.97291" lon="6.48234">
        <ele>1423.4</ele>
        <time>2021-08-27T12:12:53.811Z</time>
      </trkpt>
      <trkpt lat="43.97287" lon="6.48234">
        <ele>1422.3</ele>
        <time>2021-08-27T12:12:54.696Z</time>
      </trkpt>
      <trkpt lat="43.9728" lon="6.48235">
        <ele>1420.3</ele>
        <time>2021-08-27T12:12:56.253Z</time>
      </trkpt>
      <trkpt lat="43.97273" lon="6.48236">
        <ele>1418.7</ele>
        <time>2021-08-27T12:12:57.810Z</time>
      </trkpt>
      <trkpt lat="43.97267" lon="6.48237">
        <ele>1416.9</ele>
        <time>2021-08-27T12:12:59.147Z</time>
      </trkpt>
      <trkpt lat="43.97258" lon="6.48239">
        <ele>1414.8</ele>
        <time>2021-08-27T12:13:01.163Z</time>
      </trkpt>
      <trkpt lat="43.97248" lon="6.48242">
        <ele>1412.6</ele>
        <time>2021-08-27T12:13:03.426Z</time>
      </trkpt>
      <trkpt lat="43.97241" lon="6.48244">
        <ele>1410.7</ele>
        <time>2021-08-27T12:13:05.007Z</time>
      </trkpt>
      <trkpt lat="43.97231" lon="6.48248">
        <ele>1408.7</ele>
        <time>2021-08-27T12:13:07.310Z</time>
      </trkpt>
      <trkpt lat="43.97225" lon="6.48251">
        <ele>1408</ele>
        <time>2021-08-27T12:13:08.720Z</time>
      </trkpt>
      <trkpt lat="43.97219" lon="6.48255">
        <ele>1407.5</ele>
        <time>2021-08-27T12:13:10.193Z</time>
      </trkpt>
      <trkpt lat="43.97212" lon="6.4826">
        <ele>1407.3</ele>
        <time>2021-08-27T12:13:12.513Z</time>
      </trkpt>
      <trkpt lat="43.97204" lon="6.48263">
        <ele>1405.9</ele>
        <time>2021-08-27T12:13:14.347Z</time>
      </trkpt>
      <trkpt lat="43.97197" lon="6.48263">
        <ele>1403.1</ele>
        <time>2021-08-27T12:13:15.895Z</time>
      </trkpt>
      <trkpt lat="43.97192" lon="6.48264">
        <ele>1401.3</ele>
        <time>2021-08-27T12:13:17.013Z</time>
      </trkpt>
      <trkpt lat="43.97185" lon="6.48265">
        <ele>1398.9</ele>
        <time>2021-08-27T12:13:18.570Z</time>
      </trkpt>
      <trkpt lat="43.97176" lon="6.48269">
        <ele>1396.9</ele>
        <time>2021-08-27T12:13:20.660Z</time>
      </trkpt>
      <trkpt lat="43.9717" lon="6.48272">
        <ele>1395.7</ele>
        <time>2021-08-27T12:13:22.071Z</time>
      </trkpt>
      <trkpt lat="43.97164" lon="6.48273">
        <ele>1393.8</ele>
        <time>2021-08-27T12:13:23.408Z</time>
      </trkpt>
      <trkpt lat="43.97158" lon="6.48276">
        <ele>1392.1</ele>
        <time>2021-08-27T12:13:24.818Z</time>
      </trkpt>
      <trkpt lat="43.97153" lon="6.48277">
        <ele>1390.5</ele>
        <time>2021-08-27T12:13:25.936Z</time>
      </trkpt>
      <trkpt lat="43.97153" lon="6.48278">
        <ele>1391.1</ele>
        <time>2021-08-27T12:13:28.803Z</time>
      </trkpt>
      <trkpt lat="43.97149" lon="6.48279">
        <ele>1389.8</ele>
        <time>2021-08-27T12:13:29.702Z</time>
      </trkpt>
      <trkpt lat="43.97149" lon="6.4828">
        <ele>1389.5</ele>
        <time>2021-08-27T12:13:29.861Z</time>
      </trkpt>
      <trkpt lat="43.97137" lon="6.48285">
        <ele>1386.5</ele>
        <time>2021-08-27T12:13:32.633Z</time>
      </trkpt>
      <trkpt lat="43.9713" lon="6.48289">
        <ele>1384.9</ele>
        <time>2021-08-27T12:13:34.307Z</time>
      </trkpt>
      <trkpt lat="43.97123" lon="6.48293">
        <ele>1383.3</ele>
        <time>2021-08-27T12:13:35.981Z</time>
      </trkpt>
      <trkpt lat="43.97117" lon="6.48297">
        <ele>1382.2</ele>
        <time>2021-08-27T12:13:37.454Z</time>
      </trkpt>
      <trkpt lat="43.97111" lon="6.48299">
        <ele>1380.2</ele>
        <time>2021-08-27T12:13:38.819Z</time>
      </trkpt>
      <trkpt lat="43.97106" lon="6.48303">
        <ele>1379.7</ele>
        <time>2021-08-27T12:13:40.095Z</time>
      </trkpt>
      <trkpt lat="43.97103" lon="6.48305">
        <ele>1378.9</ele>
        <time>2021-08-27T12:13:40.831Z</time>
      </trkpt>
      <trkpt lat="43.97101" lon="6.48308">
        <ele>1378.9</ele>
        <time>2021-08-27T12:13:43.871Z</time>
      </trkpt>
      <trkpt lat="43.97095" lon="6.4831">
        <ele>1376.9</ele>
        <time>2021-08-27T12:13:45.236Z</time>
      </trkpt>
      <trkpt lat="43.97089" lon="6.48314">
        <ele>1375.7</ele>
        <time>2021-08-27T12:13:46.708Z</time>
      </trkpt>
      <trkpt lat="43.97083" lon="6.48317">
        <ele>1374.1</ele>
        <time>2021-08-27T12:13:48.119Z</time>
      </trkpt>
      <trkpt lat="43.97076" lon="6.48322">
        <ele>1371.3</ele>
        <time>2021-08-27T12:13:49.860Z</time>
      </trkpt>
      <trkpt lat="43.9707" lon="6.48326">
        <ele>1368.2</ele>
        <time>2021-08-27T12:13:51.332Z</time>
      </trkpt>
      <trkpt lat="43.97063" lon="6.48332">
        <ele>1365.9</ele>
        <time>2021-08-27T12:13:53.152Z</time>
      </trkpt>
      <trkpt lat="43.97057" lon="6.48336">
        <ele>1363</ele>
        <time>2021-08-27T12:13:54.624Z</time>
      </trkpt>
      <trkpt lat="43.97051" lon="6.4834">
        <ele>1360.3</ele>
        <time>2021-08-27T12:13:56.096Z</time>
      </trkpt>
      <trkpt lat="43.97045" lon="6.48346">
        <ele>1358.2</ele>
        <time>2021-08-27T12:13:57.732Z</time>
      </trkpt>
      <trkpt lat="43.97041" lon="6.48351">
        <ele>1357</ele>
        <time>2021-08-27T12:13:58.922Z</time>
      </trkpt>
      <trkpt lat="43.97035" lon="6.48355">
        <ele>1354.5</ele>
        <time>2021-08-27T12:14:00.394Z</time>
      </trkpt>
      <trkpt lat="43.97034" lon="6.48353">
        <ele>1352.7</ele>
        <time>2021-08-27T12:14:00.782Z</time>
      </trkpt>
      <trkpt lat="43.97037" lon="6.48344">
        <ele>1351</ele>
        <time>2021-08-27T12:14:02.361Z</time>
      </trkpt>
      <trkpt lat="43.97039" lon="6.48335">
        <ele>1349.8</ele>
        <time>2021-08-27T12:14:03.861Z</time>
      </trkpt>
      <trkpt lat="43.97041" lon="6.48327">
        <ele>1348.1</ele>
        <time>2021-08-27T12:14:05.209Z</time>
      </trkpt>
      <trkpt lat="43.97038" lon="6.4833">
        <ele>1347.3</ele>
        <time>2021-08-27T12:14:06.027Z</time>
      </trkpt>
      <trkpt lat="43.97036" lon="6.48329">
        <ele>1345.3</ele>
        <time>2021-08-27T12:14:06.497Z</time>
      </trkpt>
      <trkpt lat="43.97039" lon="6.4832">
        <ele>1344.1</ele>
        <time>2021-08-27T12:14:08.076Z</time>
      </trkpt>
      <trkpt lat="43.97043" lon="6.48309">
        <ele>1342.8</ele>
        <time>2021-08-27T12:14:10.039Z</time>
      </trkpt>
      <trkpt lat="43.97044" lon="6.48304">
        <ele>1341.5</ele>
        <time>2021-08-27T12:14:10.865Z</time>
      </trkpt>
      <trkpt lat="43.9704" lon="6.48308">
        <ele>1340.3</ele>
        <time>2021-08-27T12:14:11.955Z</time>
      </trkpt>
      <trkpt lat="43.97039" lon="6.48309">
        <ele>1339.8</ele>
        <time>2021-08-27T12:14:12.228Z</time>
      </trkpt>
      <trkpt lat="43.97035" lon="6.48311">
        <ele>1337.6</ele>
        <time>2021-08-27T12:14:13.168Z</time>
      </trkpt>
      <trkpt lat="43.97036" lon="6.48306">
        <ele>1336.6</ele>
        <time>2021-08-27T12:14:13.995Z</time>
      </trkpt>
      <trkpt lat="43.97038" lon="6.48299">
        <ele>1335.3</ele>
        <time>2021-08-27T12:14:15.194Z</time>
      </trkpt>
      <trkpt lat="43.97039" lon="6.48298">
        <ele>1335.5</ele>
        <time>2021-08-27T12:14:20.102Z</time>
      </trkpt>
      <trkpt lat="43.97042" lon="6.48287">
        <ele>1333.6</ele>
        <time>2021-08-27T12:14:21.975Z</time>
      </trkpt>
      <trkpt lat="43.97044" lon="6.48281">
        <ele>1332.7</ele>
        <time>2021-08-27T12:14:23.027Z</time>
      </trkpt>
      <trkpt lat="43.97042" lon="6.48282">
        <ele>1331.6</ele>
        <time>2021-08-27T12:14:23.498Z</time>
      </trkpt>
      <trkpt lat="43.97043" lon="6.4828">
        <ele>1330.9</ele>
        <time>2021-08-27T12:14:23.885Z</time>
      </trkpt>
      <trkpt lat="43.97044" lon="6.48276">
        <ele>1330.5</ele>
        <time>2021-08-27T12:14:24.560Z</time>
      </trkpt>
      <trkpt lat="43.97046" lon="6.48273">
        <ele>1330.4</ele>
        <time>2021-08-27T12:14:25.352Z</time>
      </trkpt>
      <trkpt lat="43.97049" lon="6.48265">
        <ele>1329.4</ele>
        <time>2021-08-27T12:14:26.789Z</time>
      </trkpt>
      <trkpt lat="43.97052" lon="6.48259">
        <ele>1329.2</ele>
        <time>2021-08-27T12:14:28.150Z</time>
      </trkpt>
      <trkpt lat="43.97053" lon="6.48256">
        <ele>1328.7</ele>
        <time>2021-08-27T12:14:28.676Z</time>
      </trkpt>
      <trkpt lat="43.97052" lon="6.48258">
        <ele>1328.9</ele>
        <time>2021-08-27T12:14:34.134Z</time>
      </trkpt>
      <trkpt lat="43.97051" lon="6.48256">
        <ele>1327.6</ele>
        <time>2021-08-27T12:14:34.521Z</time>
      </trkpt>
      <trkpt lat="43.97051" lon="6.48255">
        <ele>1327.4</ele>
        <time>2021-08-27T12:14:34.681Z</time>
      </trkpt>
      <trkpt lat="43.97057" lon="6.48243">
        <ele>1325.4</ele>
        <time>2021-08-27T12:14:37.007Z</time>
      </trkpt>
      <trkpt lat="43.97061" lon="6.48234">
        <ele>1323.7</ele>
        <time>2021-08-27T12:14:38.691Z</time>
      </trkpt>
      <trkpt lat="43.97064" lon="6.4823">
        <ele>1323.2</ele>
        <time>2021-08-27T12:14:39.611Z</time>
      </trkpt>
      <trkpt lat="43.97065" lon="6.48228">
        <ele>1323.1</ele>
        <time>2021-08-27T12:14:39.994Z</time>
      </trkpt>
      <trkpt lat="43.97065" lon="6.48225">
        <ele>1321.1</ele>
        <time>2021-08-27T12:14:40.472Z</time>
      </trkpt>
      <trkpt lat="43.97069" lon="6.48217">
        <ele>1319.5</ele>
        <time>2021-08-27T12:14:42.023Z</time>
      </trkpt>
      <trkpt lat="43.97073" lon="6.48208">
        <ele>1317.4</ele>
        <time>2021-08-27T12:14:43.707Z</time>
      </trkpt>
      <trkpt lat="43.97078" lon="6.48199">
        <ele>1315.1</ele>
        <time>2021-08-27T12:14:45.517Z</time>
      </trkpt>
      <trkpt lat="43.97084" lon="6.48189">
        <ele>1312.9</ele>
        <time>2021-08-27T12:14:47.590Z</time>
      </trkpt>
      <trkpt lat="43.9709" lon="6.48182">
        <ele>1311.4</ele>
        <time>2021-08-27T12:14:49.323Z</time>
      </trkpt>
      <trkpt lat="43.97094" lon="6.48175">
        <ele>1308.8</ele>
        <time>2021-08-27T12:14:50.746Z</time>
      </trkpt>
      <trkpt lat="43.97094" lon="6.48173">
        <ele>1308</ele>
        <time>2021-08-27T12:14:51.065Z</time>
      </trkpt>
      <trkpt lat="43.97088" lon="6.48177">
        <ele>1307.2</ele>
        <time>2021-08-27T12:14:52.537Z</time>
      </trkpt>
      <trkpt lat="43.97081" lon="6.48183">
        <ele>1307.2</ele>
        <time>2021-08-27T12:15:01.031Z</time>
      </trkpt>
      <trkpt lat="43.97072" lon="6.48188">
        <ele>1305.3</ele>
        <time>2021-08-27T12:15:03.176Z</time>
      </trkpt>
      <trkpt lat="43.97065" lon="6.48194">
        <ele>1304.6</ele>
        <time>2021-08-27T12:15:04.995Z</time>
      </trkpt>
      <trkpt lat="43.97058" lon="6.48199">
        <ele>1303.4</ele>
        <time>2021-08-27T12:15:06.736Z</time>
      </trkpt>
      <trkpt lat="43.97051" lon="6.48204">
        <ele>1301.6</ele>
        <time>2021-08-27T12:15:08.478Z</time>
      </trkpt>
      <trkpt lat="43.97044" lon="6.48208">
        <ele>1299.8</ele>
        <time>2021-08-27T12:15:10.152Z</time>
      </trkpt>
      <trkpt lat="43.9704" lon="6.48212">
        <ele>1298.7</ele>
        <time>2021-08-27T12:15:11.242Z</time>
      </trkpt>
      <trkpt lat="43.97035" lon="6.48213">
        <ele>1296.5</ele>
        <time>2021-08-27T12:15:12.360Z</time>
      </trkpt>
      <trkpt lat="43.97036" lon="6.48213">
        <ele>1296.7</ele>
        <time>2021-08-27T12:15:16.343Z</time>
      </trkpt>
      <trkpt lat="43.97035" lon="6.48214">
        <ele>1296.4</ele>
        <time>2021-08-27T12:15:16.616Z</time>
      </trkpt>
      <trkpt lat="43.97039" lon="6.48205">
        <ele>1295.2</ele>
        <time>2021-08-27T12:15:18.300Z</time>
      </trkpt>
      <trkpt lat="43.97038" lon="6.48202">
        <ele>1293</ele>
        <time>2021-08-27T12:15:18.827Z</time>
      </trkpt>
      <trkpt lat="43.97032" lon="6.48206">
        <ele>1291.4</ele>
        <time>2021-08-27T12:15:20.299Z</time>
      </trkpt>
      <trkpt lat="43.97026" lon="6.48212">
        <ele>1290.3</ele>
        <time>2021-08-27T12:15:21.934Z</time>
      </trkpt>
      <trkpt lat="43.9702" lon="6.48219">
        <ele>1289.7</ele>
        <time>2021-08-27T12:15:23.667Z</time>
      </trkpt>
      <trkpt lat="43.97016" lon="6.48226">
        <ele>1290.1</ele>
        <time>2021-08-27T12:15:36.292Z</time>
      </trkpt>
      <trkpt lat="43.97011" lon="6.48235">
        <ele>1290.5</ele>
        <time>2021-08-27T12:15:50.961Z</time>
      </trkpt>
      <trkpt lat="43.97006" lon="6.4824">
        <ele>1289.6</ele>
        <time>2021-08-27T12:15:52.324Z</time>
      </trkpt>
      <trkpt lat="43.97009" lon="6.48235">
        <ele>1288.9</ele>
        <time>2021-08-27T12:15:53.360Z</time>
      </trkpt>
      <trkpt lat="43.9701" lon="6.4823">
        <ele>1287.9</ele>
        <time>2021-08-27T12:15:54.186Z</time>
      </trkpt>
      <trkpt lat="43.97012" lon="6.48221">
        <ele>1285.7</ele>
        <time>2021-08-27T12:15:55.686Z</time>
      </trkpt>
      <trkpt lat="43.97009" lon="6.48223">
        <ele>1284.2</ele>
        <time>2021-08-27T12:15:56.422Z</time>
      </trkpt>
      <trkpt lat="43.97005" lon="6.48229">
        <ele>1284.1</ele>
        <time>2021-08-27T12:15:58.336Z</time>
      </trkpt>
      <trkpt lat="43.97" lon="6.48237">
        <ele>1284.1</ele>
        <time>2021-08-27T12:16:06.211Z</time>
      </trkpt>
      <trkpt lat="43.96998" lon="6.4824">
        <ele>1284.3</ele>
        <time>2021-08-27T12:16:12.234Z</time>
      </trkpt>
      <trkpt lat="43.96997" lon="6.48237">
        <ele>1282.7</ele>
        <time>2021-08-27T12:16:12.761Z</time>
      </trkpt>
      <trkpt lat="43.96998" lon="6.48233">
        <ele>1281.6</ele>
        <time>2021-08-27T12:16:13.435Z</time>
      </trkpt>
      <trkpt lat="43.97" lon="6.48227">
        <ele>1279.9</ele>
        <time>2021-08-27T12:16:14.488Z</time>
      </trkpt>
      <trkpt lat="43.97001" lon="6.48218">
        <ele>1277.2</ele>
        <time>2021-08-27T12:16:15.938Z</time>
      </trkpt>
      <trkpt lat="43.96999" lon="6.48221">
        <ele>1277.5</ele>
        <time>2021-08-27T12:16:23.994Z</time>
      </trkpt>
      <trkpt lat="43.96996" lon="6.48228">
        <ele>1279</ele>
        <time>2021-08-27T12:16:47.351Z</time>
      </trkpt>
      <trkpt lat="43.96991" lon="6.48234">
        <ele>1279</ele>
        <time>2021-08-27T12:16:54.174Z</time>
      </trkpt>
      <trkpt lat="43.96985" lon="6.48241">
        <ele>1279.5</ele>
        <time>2021-08-27T12:17:09.730Z</time>
      </trkpt>
      <trkpt lat="43.96977" lon="6.48247">
        <ele>1278.7</ele>
        <time>2021-08-27T12:17:11.741Z</time>
      </trkpt>
      <trkpt lat="43.96971" lon="6.48251">
        <ele>1277.6</ele>
        <time>2021-08-27T12:17:13.214Z</time>
      </trkpt>
      <trkpt lat="43.96969" lon="6.48253">
        <ele>1277.3</ele>
        <time>2021-08-27T12:17:13.759Z</time>
      </trkpt>
      <trkpt lat="43.96966" lon="6.48258">
        <ele>1277.4</ele>
        <time>2021-08-27T12:17:19.773Z</time>
      </trkpt>
      <trkpt lat="43.96964" lon="6.48262">
        <ele>1277.6</ele>
        <time>2021-08-27T12:17:26.410Z</time>
      </trkpt>
      <trkpt lat="43.96962" lon="6.48266">
        <ele>1278</ele>
        <time>2021-08-27T12:17:37.325Z</time>
      </trkpt>
      <trkpt lat="43.96955" lon="6.48272">
        <ele>1276.8</ele>
        <time>2021-08-27T12:17:39.145Z</time>
      </trkpt>
      <trkpt lat="43.96952" lon="6.48276">
        <ele>1276.3</ele>
        <time>2021-08-27T12:17:40.065Z</time>
      </trkpt>
      <trkpt lat="43.96944" lon="6.48284">
        <ele>1274.4</ele>
        <time>2021-08-27T12:17:42.245Z</time>
      </trkpt>
      <trkpt lat="43.96934" lon="6.48291">
        <ele>1270.9</ele>
        <time>2021-08-27T12:17:44.722Z</time>
      </trkpt>
      <trkpt lat="43.96927" lon="6.48292">
        <ele>1267.6</ele>
        <time>2021-08-27T12:17:46.279Z</time>
      </trkpt>
      <trkpt lat="43.96925" lon="6.48293">
        <ele>1266.8</ele>
        <time>2021-08-27T12:17:46.749Z</time>
      </trkpt>
      <trkpt lat="43.96921" lon="6.48296">
        <ele>1265.2</ele>
        <time>2021-08-27T12:17:47.755Z</time>
      </trkpt>
      <trkpt lat="43.96919" lon="6.48297">
        <ele>1264.1</ele>
        <time>2021-08-27T12:17:48.225Z</time>
      </trkpt>
      <trkpt lat="43.96912" lon="6.48302">
        <ele>1261.9</ele>
        <time>2021-08-27T12:17:49.966Z</time>
      </trkpt>
      <trkpt lat="43.96913" lon="6.48296">
        <ele>1261.2</ele>
        <time>2021-08-27T12:17:50.947Z</time>
      </trkpt>
      <trkpt lat="43.96908" lon="6.483">
        <ele>1259.9</ele>
        <time>2021-08-27T12:17:52.223Z</time>
      </trkpt>
      <trkpt lat="43.969" lon="6.48309">
        <ele>1258</ele>
        <time>2021-08-27T12:17:54.501Z</time>
      </trkpt>
      <trkpt lat="43.96893" lon="6.48313">
        <ele>1255.9</ele>
        <time>2021-08-27T12:17:56.175Z</time>
      </trkpt>
      <trkpt lat="43.96884" lon="6.48318">
        <ele>1252.9</ele>
        <time>2021-08-27T12:17:58.319Z</time>
      </trkpt>
      <trkpt lat="43.96877" lon="6.48324">
        <ele>1250.5</ele>
        <time>2021-08-27T12:18:00.139Z</time>
      </trkpt>
      <trkpt lat="43.96874" lon="6.48327">
        <ele>1249.5</ele>
        <time>2021-08-27T12:18:00.957Z</time>
      </trkpt>
      <trkpt lat="43.9687" lon="6.48333">
        <ele>1248.5</ele>
        <time>2021-08-27T12:18:02.259Z</time>
      </trkpt>
      <trkpt lat="43.96871" lon="6.48333">
        <ele>1248.6</ele>
        <time>2021-08-27T12:18:04.945Z</time>
      </trkpt>
      <trkpt lat="43.9687" lon="6.48332">
        <ele>1248.2</ele>
        <time>2021-08-27T12:18:05.217Z</time>
      </trkpt>
      <trkpt lat="43.96869" lon="6.48328">
        <ele>1247.4</ele>
        <time>2021-08-27T12:18:05.891Z</time>
      </trkpt>
      <trkpt lat="43.96869" lon="6.48318">
        <ele>1246.7</ele>
        <time>2021-08-27T12:18:07.484Z</time>
      </trkpt>
      <trkpt lat="43.9687" lon="6.48315">
        <ele>1246.5</ele>
        <time>2021-08-27T12:18:08.010Z</time>
      </trkpt>
      <trkpt lat="43.96871" lon="6.48307">
        <ele>1246.5</ele>
        <time>2021-08-27T12:18:14.045Z</time>
      </trkpt>
      <trkpt lat="43.96873" lon="6.48297">
        <ele>1246.4</ele>
        <time>2021-08-27T12:18:16.585Z</time>
      </trkpt>
      <trkpt lat="43.96876" lon="6.48288">
        <ele>1246.7</ele>
        <time>2021-08-27T12:18:28.571Z</time>
      </trkpt>
      <trkpt lat="43.96879" lon="6.4828">
        <ele>1246.8</ele>
        <time>2021-08-27T12:18:36.378Z</time>
      </trkpt>
      <trkpt lat="43.9688" lon="6.48267">
        <ele>1245.8</ele>
        <time>2021-08-27T12:18:38.459Z</time>
      </trkpt>
      <trkpt lat="43.96882" lon="6.48256">
        <ele>1245.3</ele>
        <time>2021-08-27T12:18:40.185Z</time>
      </trkpt>
      <trkpt lat="43.96885" lon="6.48245">
        <ele>1244.3</ele>
        <time>2021-08-27T12:18:42.058Z</time>
      </trkpt>
      <trkpt lat="43.96892" lon="6.48232">
        <ele>1242</ele>
        <time>2021-08-27T12:18:44.643Z</time>
      </trkpt>
      <trkpt lat="43.96897" lon="6.48221">
        <ele>1240.2</ele>
        <time>2021-08-27T12:18:46.715Z</time>
      </trkpt>
      <trkpt lat="43.96899" lon="6.48213">
        <ele>1237.9</ele>
        <time>2021-08-27T12:18:48.063Z</time>
      </trkpt>
      <trkpt lat="43.96905" lon="6.48204">
        <ele>1236.7</ele>
        <time>2021-08-27T12:18:50.017Z</time>
      </trkpt>
      <trkpt lat="43.96916" lon="6.48191">
        <ele>1235</ele>
        <time>2021-08-27T12:18:53.211Z</time>
      </trkpt>
      <trkpt lat="43.96912" lon="6.48188">
        <ele>1233.2</ele>
        <time>2021-08-27T12:18:54.217Z</time>
      </trkpt>
      <trkpt lat="43.96902" lon="6.48184">
        <ele>1229.5</ele>
        <time>2021-08-27T12:18:56.519Z</time>
      </trkpt>
      <trkpt lat="43.96902" lon="6.48179">
        <ele>1227.9</ele>
        <time>2021-08-27T12:18:57.315Z</time>
      </trkpt>
      <trkpt lat="43.96906" lon="6.48167">
        <ele>1225.2</ele>
        <time>2021-08-27T12:18:59.421Z</time>
      </trkpt>
      <trkpt lat="43.9691" lon="6.48159">
        <ele>1222.8</ele>
        <time>2021-08-27T12:19:00.972Z</time>
      </trkpt>
      <trkpt lat="43.96913" lon="6.48147">
        <ele>1219.4</ele>
        <time>2021-08-27T12:19:02.995Z</time>
      </trkpt>
      <trkpt lat="43.96914" lon="6.48138">
        <ele>1216.4</ele>
        <time>2021-08-27T12:19:04.444Z</time>
      </trkpt>
      <trkpt lat="43.96916" lon="6.48126">
        <ele>1212.8</ele>
        <time>2021-08-27T12:19:06.406Z</time>
      </trkpt>
      <trkpt lat="43.96909" lon="6.48132">
        <ele>1213.6</ele>
        <time>2021-08-27T12:19:27.922Z</time>
      </trkpt>
      <trkpt lat="43.9691" lon="6.48128">
        <ele>1212.1</ele>
        <time>2021-08-27T12:19:28.596Z</time>
      </trkpt>
      <trkpt lat="43.96913" lon="6.48116">
        <ele>1208.8</ele>
        <time>2021-08-27T12:19:30.619Z</time>
      </trkpt>
      <trkpt lat="43.96909" lon="6.48116">
        <ele>1207.8</ele>
        <time>2021-08-27T12:19:31.504Z</time>
      </trkpt>
      <trkpt lat="43.96901" lon="6.48123">
        <ele>1208.7</ele>
        <time>2021-08-27T12:19:55.759Z</time>
      </trkpt>
      <trkpt lat="43.96892" lon="6.48127">
        <ele>1208.2</ele>
        <time>2021-08-27T12:19:57.897Z</time>
      </trkpt>
      <trkpt lat="43.96883" lon="6.48128">
        <ele>1207.2</ele>
        <time>2021-08-27T12:19:59.894Z</time>
      </trkpt>
      <trkpt lat="43.96877" lon="6.48123">
        <ele>1204.4</ele>
        <time>2021-08-27T12:20:01.442Z</time>
      </trkpt>
      <trkpt lat="43.96881" lon="6.48116">
        <ele>1202.5</ele>
        <time>2021-08-27T12:20:02.865Z</time>
      </trkpt>
      <trkpt lat="43.96885" lon="6.48107">
        <ele>1200.2</ele>
        <time>2021-08-27T12:20:04.549Z</time>
      </trkpt>
      <trkpt lat="43.96889" lon="6.48097">
        <ele>1197.8</ele>
        <time>2021-08-27T12:20:06.371Z</time>
      </trkpt>
      <trkpt lat="43.96891" lon="6.48084">
        <ele>1193.6</ele>
        <time>2021-08-27T12:20:08.488Z</time>
      </trkpt>
      <trkpt lat="43.96898" lon="6.48077">
        <ele>1191.8</ele>
        <time>2021-08-27T12:20:10.396Z</time>
      </trkpt>
      <trkpt lat="43.96892" lon="6.48077">
        <ele>1190.7</ele>
        <time>2021-08-27T12:20:11.723Z</time>
      </trkpt>
      <trkpt lat="43.96882" lon="6.48079">
        <ele>1190</ele>
        <time>2021-08-27T12:20:13.958Z</time>
      </trkpt>
      <trkpt lat="43.96883" lon="6.48074">
        <ele>1188</ele>
        <time>2021-08-27T12:20:14.784Z</time>
      </trkpt>
      <trkpt lat="43.96889" lon="6.48066">
        <ele>1185.6</ele>
        <time>2021-08-27T12:20:16.624Z</time>
      </trkpt>
      <trkpt lat="43.96892" lon="6.48061">
        <ele>1183.6</ele>
        <time>2021-08-27T12:20:17.661Z</time>
      </trkpt>
      <trkpt lat="43.96895" lon="6.48049">
        <ele>1178.8</ele>
        <time>2021-08-27T12:20:19.683Z</time>
      </trkpt>
      <trkpt lat="43.96885" lon="6.48056">
        <ele>1180.6</ele>
        <time>2021-08-27T12:21:04.288Z</time>
      </trkpt>
      <trkpt lat="43.96875" lon="6.48057">
        <ele>1179.7</ele>
        <time>2021-08-27T12:21:06.506Z</time>
      </trkpt>
      <trkpt lat="43.96873" lon="6.48049">
        <ele>1176.6</ele>
        <time>2021-08-27T12:21:07.854Z</time>
      </trkpt>
      <trkpt lat="43.96879" lon="6.4804">
        <ele>1173.5</ele>
        <time>2021-08-27T12:21:09.808Z</time>
      </trkpt>
      <trkpt lat="43.96885" lon="6.48033">
        <ele>1170.9</ele>
        <time>2021-08-27T12:21:11.541Z</time>
      </trkpt>
      <trkpt lat="43.96891" lon="6.48025">
        <ele>1167.9</ele>
        <time>2021-08-27T12:21:13.380Z</time>
      </trkpt>
      <trkpt lat="43.96879" lon="6.48028">
        <ele>1168.7</ele>
        <time>2021-08-27T12:21:37.907Z</time>
      </trkpt>
      <trkpt lat="43.96871" lon="6.48029">
        <ele>1168.2</ele>
        <time>2021-08-27T12:21:39.592Z</time>
      </trkpt>
      <trkpt lat="43.96866" lon="6.48026">
        <ele>1167</ele>
        <time>2021-08-27T12:21:40.797Z</time>
      </trkpt>
      <trkpt lat="43.96874" lon="6.48015">
        <ele>1163</ele>
        <time>2021-08-27T12:21:43.287Z</time>
      </trkpt>
      <trkpt lat="43.96878" lon="6.48006">
        <ele>1159.3</ele>
        <time>2021-08-27T12:21:44.971Z</time>
      </trkpt>
      <trkpt lat="43.9687" lon="6.48005">
        <ele>1159.1</ele>
        <time>2021-08-27T12:21:47.353Z</time>
      </trkpt>
      <trkpt lat="43.96862" lon="6.48007">
        <ele>1159.7</ele>
        <time>2021-08-27T12:22:04.745Z</time>
      </trkpt>
      <trkpt lat="43.96858" lon="6.48001">
        <ele>1157.3</ele>
        <time>2021-08-27T12:22:06.047Z</time>
      </trkpt>
      <trkpt lat="43.96862" lon="6.47991">
        <ele>1153.8</ele>
        <time>2021-08-27T12:22:07.869Z</time>
      </trkpt>
      <trkpt lat="43.96866" lon="6.4798">
        <ele>1150.4</ele>
        <time>2021-08-27T12:22:09.831Z</time>
      </trkpt>
      <trkpt lat="43.96862" lon="6.47977">
        <ele>1149.4</ele>
        <time>2021-08-27T12:22:10.837Z</time>
      </trkpt>
      <trkpt lat="43.96849" lon="6.47975">
        <ele>1148.5</ele>
        <time>2021-08-27T12:22:13.731Z</time>
      </trkpt>
      <trkpt lat="43.96837" lon="6.47976">
        <ele>1148.5</ele>
        <time>2021-08-27T12:22:26.146Z</time>
      </trkpt>
      <trkpt lat="43.96825" lon="6.47972">
        <ele>1146.4</ele>
        <time>2021-08-27T12:22:28.876Z</time>
      </trkpt>
      <trkpt lat="43.96829" lon="6.47964">
        <ele>1143.9</ele>
        <time>2021-08-27T12:22:30.427Z</time>
      </trkpt>
      <trkpt lat="43.96832" lon="6.47953">
        <ele>1140.7</ele>
        <time>2021-08-27T12:22:32.300Z</time>
      </trkpt>
      <trkpt lat="43.9684" lon="6.47944">
        <ele>1137.8</ele>
        <time>2021-08-27T12:22:34.577Z</time>
      </trkpt>
      <trkpt lat="43.96838" lon="6.47935">
        <ele>1134.4</ele>
        <time>2021-08-27T12:22:36.077Z</time>
      </trkpt>
      <trkpt lat="43.96828" lon="6.47926">
        <ele>1130.9</ele>
        <time>2021-08-27T12:22:38.713Z</time>
      </trkpt>
      <trkpt lat="43.96819" lon="6.47918">
        <ele>1127.9</ele>
        <time>2021-08-27T12:22:41.076Z</time>
      </trkpt>
      <trkpt lat="43.96815" lon="6.47919">
        <ele>1128.1</ele>
        <time>2021-08-27T12:22:48.378Z</time>
      </trkpt>
      <trkpt lat="43.96808" lon="6.47921">
        <ele>1128.6</ele>
        <time>2021-08-27T12:23:03.225Z</time>
      </trkpt>
      <trkpt lat="43.96799" lon="6.47919">
        <ele>1127.3</ele>
        <time>2021-08-27T12:23:05.242Z</time>
      </trkpt>
      <trkpt lat="43.96793" lon="6.47906">
        <ele>1123.9</ele>
        <time>2021-08-27T12:23:07.701Z</time>
      </trkpt>
      <trkpt lat="43.96788" lon="6.47899">
        <ele>1121.7</ele>
        <time>2021-08-27T12:23:09.271Z</time>
      </trkpt>
      <trkpt lat="43.9678" lon="6.47891">
        <ele>1119.3</ele>
        <time>2021-08-27T12:23:11.452Z</time>
      </trkpt>
      <trkpt lat="43.96772" lon="6.47879">
        <ele>1115.6</ele>
        <time>2021-08-27T12:23:14.056Z</time>
      </trkpt>
      <trkpt lat="43.96769" lon="6.47869">
        <ele>1112.8</ele>
        <time>2021-08-27T12:23:15.781Z</time>
      </trkpt>
      <trkpt lat="43.96769" lon="6.47862">
        <ele>1110.8</ele>
        <time>2021-08-27T12:23:16.896Z</time>
      </trkpt>
      <trkpt lat="43.96762" lon="6.47858">
        <ele>1109.4</ele>
        <time>2021-08-27T12:23:18.570Z</time>
      </trkpt>
      <trkpt lat="43.96755" lon="6.47853">
        <ele>1107.7</ele>
        <time>2021-08-27T12:23:20.311Z</time>
      </trkpt>
      <trkpt lat="43.96749" lon="6.4784">
        <ele>1103.7</ele>
        <time>2021-08-27T12:23:22.770Z</time>
      </trkpt>
      <trkpt lat="43.96742" lon="6.47837">
        <ele>1101.9</ele>
        <time>2021-08-27T12:23:24.391Z</time>
      </trkpt>
      <trkpt lat="43.96732" lon="6.47834">
        <ele>1099.7</ele>
        <time>2021-08-27T12:23:26.654Z</time>
      </trkpt>
      <trkpt lat="43.96733" lon="6.47829">
        <ele>1098.9</ele>
        <time>2021-08-27T12:23:27.481Z</time>
      </trkpt>
      <trkpt lat="43.96739" lon="6.47829">
        <ele>1099.7</ele>
        <time>2021-08-27T12:23:51.347Z</time>
      </trkpt>
      <trkpt lat="43.96739" lon="6.47831">
        <ele>1100</ele>
        <time>2021-08-27T12:23:57.081Z</time>
      </trkpt>
      <trkpt lat="43.96739" lon="6.4783">
        <ele>1100</ele>
        <time>2021-08-27T12:23:57.824Z</time>
      </trkpt>
      <trkpt lat="43.96735" lon="6.47829">
        <ele>1099.2</ele>
        <time>2021-08-27T12:23:58.723Z</time>
      </trkpt>
      <trkpt lat="43.96728" lon="6.47822">
        <ele>1097.1</ele>
        <time>2021-08-27T12:24:00.631Z</time>
      </trkpt>
      <trkpt lat="43.96724" lon="6.47822">
        <ele>1096.5</ele>
        <time>2021-08-27T12:24:01.516Z</time>
      </trkpt>
      <trkpt lat="43.96719" lon="6.47822">
        <ele>1095.8</ele>
        <time>2021-08-27T12:24:02.622Z</time>
      </trkpt>
      <trkpt lat="43.96713" lon="6.47825">
        <ele>1095.4</ele>
        <time>2021-08-27T12:24:03.954Z</time>
      </trkpt>
      <trkpt lat="43.9671" lon="6.47817">
        <ele>1093.5</ele>
        <time>2021-08-27T12:24:05.391Z</time>
      </trkpt>
      <trkpt lat="43.96704" lon="6.4781">
        <ele>1091.6</ele>
        <time>2021-08-27T12:24:07.124Z</time>
      </trkpt>
      <trkpt lat="43.96698" lon="6.47806">
        <ele>1090</ele>
        <time>2021-08-27T12:24:08.596Z</time>
      </trkpt>
      <trkpt lat="43.96693" lon="6.47799">
        <ele>1088</ele>
        <time>2021-08-27T12:24:10.167Z</time>
      </trkpt>
      <trkpt lat="43.9669" lon="6.47796">
        <ele>1087.1</ele>
        <time>2021-08-27T12:24:10.984Z</time>
      </trkpt>
      <trkpt lat="43.96686" lon="6.47788">
        <ele>1084.9</ele>
        <time>2021-08-27T12:24:12.535Z</time>
      </trkpt>
      <trkpt lat="43.96681" lon="6.47784">
        <ele>1083.5</ele>
        <time>2021-08-27T12:24:13.812Z</time>
      </trkpt>
      <trkpt lat="43.96677" lon="6.47778">
        <ele>1081.8</ele>
        <time>2021-08-27T12:24:15.114Z</time>
      </trkpt>
      <trkpt lat="43.96671" lon="6.47774">
        <ele>1080</ele>
        <time>2021-08-27T12:24:16.586Z</time>
      </trkpt>
      <trkpt lat="43.96664" lon="6.4777">
        <ele>1078.1</ele>
        <time>2021-08-27T12:24:18.261Z</time>
      </trkpt>
      <trkpt lat="43.96661" lon="6.4777">
        <ele>1077.3</ele>
        <time>2021-08-27T12:24:18.925Z</time>
      </trkpt>
      <trkpt lat="43.9666" lon="6.47767">
        <ele>1076.6</ele>
        <time>2021-08-27T12:24:19.451Z</time>
      </trkpt>
      <trkpt lat="43.9666" lon="6.47764">
        <ele>1076.1</ele>
        <time>2021-08-27T12:24:19.929Z</time>
      </trkpt>
      <trkpt lat="43.96661" lon="6.47769">
        <ele>1077.2</ele>
        <time>2021-08-27T12:24:34.807Z</time>
      </trkpt>
      <trkpt lat="43.96659" lon="6.47769">
        <ele>1076.9</ele>
        <time>2021-08-27T12:24:35.250Z</time>
      </trkpt>
      <trkpt lat="43.96652" lon="6.47766">
        <ele>1074.9</ele>
        <time>2021-08-27T12:24:36.870Z</time>
      </trkpt>
      <trkpt lat="43.96651" lon="6.47765">
        <ele>1074.4</ele>
        <time>2021-08-27T12:24:37.143Z</time>
      </trkpt>
      <trkpt lat="43.96648" lon="6.47762">
        <ele>1073.4</ele>
        <time>2021-08-27T12:24:37.961Z</time>
      </trkpt>
      <trkpt lat="43.9664" lon="6.47757">
        <ele>1070.9</ele>
        <time>2021-08-27T12:24:39.901Z</time>
      </trkpt>
      <trkpt lat="43.96633" lon="6.47748">
        <ele>1068.4</ele>
        <time>2021-08-27T12:24:42.011Z</time>
      </trkpt>
      <trkpt lat="43.96628" lon="6.47743">
        <ele>1066.8</ele>
        <time>2021-08-27T12:24:43.374Z</time>
      </trkpt>
      <trkpt lat="43.96626" lon="6.47742">
        <ele>1066.4</ele>
        <time>2021-08-27T12:24:43.844Z</time>
      </trkpt>
      <trkpt lat="43.96621" lon="6.47734">
        <ele>1064.6</ele>
        <time>2021-08-27T12:24:45.531Z</time>
      </trkpt>
      <trkpt lat="43.96617" lon="6.47728">
        <ele>1062.9</ele>
        <time>2021-08-27T12:24:46.834Z</time>
      </trkpt>
      <trkpt lat="43.96613" lon="6.4772">
        <ele>1061.1</ele>
        <time>2021-08-27T12:24:48.385Z</time>
      </trkpt>
      <trkpt lat="43.96612" lon="6.47712">
        <ele>1060</ele>
        <time>2021-08-27T12:24:49.678Z</time>
      </trkpt>
      <trkpt lat="43.9661" lon="6.47704">
        <ele>1058.5</ele>
        <time>2021-08-27T12:24:51.026Z</time>
      </trkpt>
      <trkpt lat="43.96606" lon="6.47697">
        <ele>1056.8</ele>
        <time>2021-08-27T12:24:52.449Z</time>
      </trkpt>
      <trkpt lat="43.966" lon="6.47693">
        <ele>1054.7</ele>
        <time>2021-08-27T12:24:53.922Z</time>
      </trkpt>
      <trkpt lat="43.96594" lon="6.47691">
        <ele>1053.2</ele>
        <time>2021-08-27T12:24:55.287Z</time>
      </trkpt>
      <trkpt lat="43.96587" lon="6.47689">
        <ele>1051.1</ele>
        <time>2021-08-27T12:24:56.868Z</time>
      </trkpt>
      <trkpt lat="43.96581" lon="6.47688">
        <ele>1049.2</ele>
        <time>2021-08-27T12:24:58.204Z</time>
      </trkpt>
      <trkpt lat="43.96576" lon="6.47689">
        <ele>1048</ele>
        <time>2021-08-27T12:24:59.322Z</time>
      </trkpt>
      <trkpt lat="43.96576" lon="6.47688">
        <ele>1047.7</ele>
        <time>2021-08-27T12:24:59.481Z</time>
      </trkpt>
      <trkpt lat="43.96578" lon="6.47687">
        <ele>1048.1</ele>
        <time>2021-08-27T12:25:07.948Z</time>
      </trkpt>
      <trkpt lat="43.96576" lon="6.47687">
        <ele>1047.6</ele>
        <time>2021-08-27T12:25:08.391Z</time>
      </trkpt>
      <trkpt lat="43.96576" lon="6.47686">
        <ele>1047.4</ele>
        <time>2021-08-27T12:25:08.550Z</time>
      </trkpt>
      <trkpt lat="43.96572" lon="6.47677">
        <ele>1044.9</ele>
        <time>2021-08-27T12:25:10.234Z</time>
      </trkpt>
      <trkpt lat="43.96566" lon="6.47669">
        <ele>1042.2</ele>
        <time>2021-08-27T12:25:12.074Z</time>
      </trkpt>
      <trkpt lat="43.96563" lon="6.47664">
        <ele>1040.9</ele>
        <time>2021-08-27T12:25:13.111Z</time>
      </trkpt>
      <trkpt lat="43.96561" lon="6.47665">
        <ele>1040.4</ele>
        <time>2021-08-27T12:25:13.581Z</time>
      </trkpt>
      <trkpt lat="43.9656" lon="6.47666">
        <ele>1040.3</ele>
        <time>2021-08-27T12:25:13.853Z</time>
      </trkpt>
      <trkpt lat="43.96561" lon="6.47666">
        <ele>1040.5</ele>
        <time>2021-08-27T12:25:17.837Z</time>
      </trkpt>
      <trkpt lat="43.96561" lon="6.47667">
        <ele>1040.5</ele>
        <time>2021-08-27T12:25:18.580Z</time>
      </trkpt>
      <trkpt lat="43.96557" lon="6.47672">
        <ele>1040.1</ele>
        <time>2021-08-27T12:25:19.771Z</time>
      </trkpt>
      <trkpt lat="43.96558" lon="6.47671">
        <ele>1040</ele>
        <time>2021-08-27T12:25:20.043Z</time>
      </trkpt>
      <trkpt lat="43.9656" lon="6.47678">
        <ele>1041.6</ele>
        <time>2021-08-27T12:25:41.637Z</time>
      </trkpt>
      <trkpt lat="43.96563" lon="6.47673">
        <ele>1041.8</ele>
        <time>2021-08-27T12:25:49.582Z</time>
      </trkpt>
      <trkpt lat="43.96566" lon="6.47673">
        <ele>1042.7</ele>
        <time>2021-08-27T12:26:01.532Z</time>
      </trkpt>
      <trkpt lat="43.96566" lon="6.47671">
        <ele>1042.5</ele>
        <time>2021-08-27T12:26:01.851Z</time>
      </trkpt>
      <trkpt lat="43.96559" lon="6.47667">
        <ele>1040</ele>
        <time>2021-08-27T12:26:03.525Z</time>
      </trkpt>
      <trkpt lat="43.96559" lon="6.47664">
        <ele>1039.6</ele>
        <time>2021-08-27T12:26:04.003Z</time>
      </trkpt>
      <trkpt lat="43.96556" lon="6.4766">
        <ele>1038.5</ele>
        <time>2021-08-27T12:26:04.923Z</time>
      </trkpt>
      <trkpt lat="43.96556" lon="6.47658">
        <ele>1038.2</ele>
        <time>2021-08-27T12:26:05.241Z</time>
      </trkpt>
      <trkpt lat="43.96553" lon="6.47647">
        <ele>1036.2</ele>
        <time>2021-08-27T12:26:07.114Z</time>
      </trkpt>
      <trkpt lat="43.96553" lon="6.47641">
        <ele>1035.5</ele>
        <time>2021-08-27T12:26:08.070Z</time>
      </trkpt>
      <trkpt lat="43.96553" lon="6.47631">
        <ele>1034.7</ele>
        <time>2021-08-27T12:26:09.662Z</time>
      </trkpt>
      <trkpt lat="43.96557" lon="6.47621">
        <ele>1034.6</ele>
        <time>2021-08-27T12:26:12.506Z</time>
      </trkpt>
      <trkpt lat="43.96559" lon="6.47618">
        <ele>1035</ele>
        <time>2021-08-27T12:26:24.230Z</time>
      </trkpt>
      <trkpt lat="43.96569" lon="6.47617">
        <ele>1037.7</ele>
        <time>2021-08-27T12:27:04.168Z</time>
      </trkpt>
      <trkpt lat="43.96572" lon="6.47608">
        <ele>1037.4</ele>
        <time>2021-08-27T12:27:05.947Z</time>
      </trkpt>
      <trkpt lat="43.9657" lon="6.47601">
        <ele>1036.2</ele>
        <time>2021-08-27T12:27:07.147Z</time>
      </trkpt>
      <trkpt lat="43.96566" lon="6.47592">
        <ele>1034.2</ele>
        <time>2021-08-27T12:27:08.831Z</time>
      </trkpt>
      <trkpt lat="43.96563" lon="6.47583">
        <ele>1032.3</ele>
        <time>2021-08-27T12:27:10.410Z</time>
      </trkpt>
      <trkpt lat="43.96562" lon="6.4758">
        <ele>1031.6</ele>
        <time>2021-08-27T12:27:10.937Z</time>
      </trkpt>
      <trkpt lat="43.9656" lon="6.47572">
        <ele>1029.9</ele>
        <time>2021-08-27T12:27:12.285Z</time>
      </trkpt>
      <trkpt lat="43.96559" lon="6.47567">
        <ele>1029</ele>
        <time>2021-08-27T12:27:13.111Z</time>
      </trkpt>
      <trkpt lat="43.96559" lon="6.47565">
        <ele>1028.6</ele>
        <time>2021-08-27T12:27:13.430Z</time>
      </trkpt>
      <trkpt lat="43.96559" lon="6.47563">
        <ele>1028.3</ele>
        <time>2021-08-27T12:27:13.748Z</time>
      </trkpt>
      <trkpt lat="43.96555" lon="6.47555">
        <ele>1026.1</ele>
        <time>2021-08-27T12:27:15.299Z</time>
      </trkpt>
      <trkpt lat="43.96552" lon="6.47544">
        <ele>1023.7</ele>
        <time>2021-08-27T12:27:17.172Z</time>
      </trkpt>
      <trkpt lat="43.96549" lon="6.47535">
        <ele>1021.5</ele>
        <time>2021-08-27T12:27:18.752Z</time>
      </trkpt>
      <trkpt lat="43.96547" lon="6.47525">
        <ele>1019.7</ele>
        <time>2021-08-27T12:27:20.404Z</time>
      </trkpt>
      <trkpt lat="43.96543" lon="6.47515">
        <ele>1017.4</ele>
        <time>2021-08-27T12:27:22.226Z</time>
      </trkpt>
      <trkpt lat="43.9654" lon="6.47505">
        <ele>1015.3</ele>
        <time>2021-08-27T12:27:23.951Z</time>
      </trkpt>
      <trkpt lat="43.96537" lon="6.4749">
        <ele>1012.9</ele>
        <time>2021-08-27T12:27:26.430Z</time>
      </trkpt>
      <trkpt lat="43.96535" lon="6.47479">
        <ele>1011.3</ele>
        <time>2021-08-27T12:27:28.237Z</time>
      </trkpt>
      <trkpt lat="43.9653" lon="6.47472">
        <ele>1009.7</ele>
        <time>2021-08-27T12:27:29.807Z</time>
      </trkpt>
      <trkpt lat="43.96529" lon="6.4747">
        <ele>1009.3</ele>
        <time>2021-08-27T12:27:30.195Z</time>
      </trkpt>
      <trkpt lat="43.96521" lon="6.47461">
        <ele>1006.7</ele>
        <time>2021-08-27T12:27:32.472Z</time>
      </trkpt>
      <trkpt lat="43.96516" lon="6.4745">
        <ele>1004.7</ele>
        <time>2021-08-27T12:27:34.544Z</time>
      </trkpt>
      <trkpt lat="43.96514" lon="6.47436">
        <ele>1003.2</ele>
        <time>2021-08-27T12:27:36.817Z</time>
      </trkpt>
      <trkpt lat="43.96514" lon="6.47428">
        <ele>1002.5</ele>
        <time>2021-08-27T12:27:38.090Z</time>
      </trkpt>
      <trkpt lat="43.96514" lon="6.47416">
        <ele>1001.2</ele>
        <time>2021-08-27T12:27:40.001Z</time>
      </trkpt>
      <trkpt lat="43.96509" lon="6.47405">
        <ele>999.2</ele>
        <time>2021-08-27T12:27:42.073Z</time>
      </trkpt>
      <trkpt lat="43.96504" lon="6.47398">
        <ele>997.7</ele>
        <time>2021-08-27T12:27:43.643Z</time>
      </trkpt>
      <trkpt lat="43.965" lon="6.47389">
        <ele>995.9</ele>
        <time>2021-08-27T12:27:45.327Z</time>
      </trkpt>
      <trkpt lat="43.96494" lon="6.47379">
        <ele>993.7</ele>
        <time>2021-08-27T12:27:47.400Z</time>
      </trkpt>
      <trkpt lat="43.96488" lon="6.47369">
        <ele>991.5</ele>
        <time>2021-08-27T12:27:49.473Z</time>
      </trkpt>
      <trkpt lat="43.96484" lon="6.47361">
        <ele>989.9</ele>
        <time>2021-08-27T12:27:51.025Z</time>
      </trkpt>
      <trkpt lat="43.96482" lon="6.47359">
        <ele>989.3</ele>
        <time>2021-08-27T12:27:51.570Z</time>
      </trkpt>
      <trkpt lat="43.96473" lon="6.47351">
        <ele>986.7</ele>
        <time>2021-08-27T12:27:53.933Z</time>
      </trkpt>
      <trkpt lat="43.96464" lon="6.47349">
        <ele>984.8</ele>
        <time>2021-08-27T12:27:55.950Z</time>
      </trkpt>
      <trkpt lat="43.96459" lon="6.47348">
        <ele>983.9</ele>
        <time>2021-08-27T12:27:57.067Z</time>
      </trkpt>
      <trkpt lat="43.96458" lon="6.47346">
        <ele>983.4</ele>
        <time>2021-08-27T12:27:57.455Z</time>
      </trkpt>
      <trkpt lat="43.96447" lon="6.47349">
        <ele>981.8</ele>
        <time>2021-08-27T12:27:59.935Z</time>
      </trkpt>
      <trkpt lat="43.96439" lon="6.47345">
        <ele>979.8</ele>
        <time>2021-08-27T12:28:01.816Z</time>
      </trkpt>
      <trkpt lat="43.96434" lon="6.47342">
        <ele>978.7</ele>
        <time>2021-08-27T12:28:03.021Z</time>
      </trkpt>
      <trkpt lat="43.96427" lon="6.47339">
        <ele>977.2</ele>
        <time>2021-08-27T12:28:04.642Z</time>
      </trkpt>
      <trkpt lat="43.96419" lon="6.47338">
        <ele>975.6</ele>
        <time>2021-08-27T12:28:06.419Z</time>
      </trkpt>
      <trkpt lat="43.96415" lon="6.47337">
        <ele>974.7</ele>
        <time>2021-08-27T12:28:07.318Z</time>
      </trkpt>
      <trkpt lat="43.96408" lon="6.47337">
        <ele>973.3</ele>
        <time>2021-08-27T12:28:08.866Z</time>
      </trkpt>
      <trkpt lat="43.96403" lon="6.47334">
        <ele>971.9</ele>
        <time>2021-08-27T12:28:10.071Z</time>
      </trkpt>
      <trkpt lat="43.96398" lon="6.47333">
        <ele>970.7</ele>
        <time>2021-08-27T12:28:11.189Z</time>
      </trkpt>
      <trkpt lat="43.96391" lon="6.47334">
        <ele>969.2</ele>
        <time>2021-08-27T12:28:12.745Z</time>
      </trkpt>
      <trkpt lat="43.96384" lon="6.47334">
        <ele>967.5</ele>
        <time>2021-08-27T12:28:14.294Z</time>
      </trkpt>
      <trkpt lat="43.96378" lon="6.47333">
        <ele>966.2</ele>
        <time>2021-08-27T12:28:15.631Z</time>
      </trkpt>
      <trkpt lat="43.96371" lon="6.47329">
        <ele>964.2</ele>
        <time>2021-08-27T12:28:17.305Z</time>
      </trkpt>
      <trkpt lat="43.9636" lon="6.47333">
        <ele>962</ele>
        <time>2021-08-27T12:28:19.821Z</time>
      </trkpt>
      <trkpt lat="43.96357" lon="6.47335">
        <ele>961.4</ele>
        <time>2021-08-27T12:28:20.557Z</time>
      </trkpt>
      <trkpt lat="43.96355" lon="6.47336">
        <ele>961.1</ele>
        <time>2021-08-27T12:28:21.027Z</time>
      </trkpt>
      <trkpt lat="43.96349" lon="6.47338">
        <ele>959.8</ele>
        <time>2021-08-27T12:28:22.392Z</time>
      </trkpt>
      <trkpt lat="43.96346" lon="6.47332">
        <ele>958.9</ele>
        <time>2021-08-27T12:28:23.556Z</time>
      </trkpt>
      <trkpt lat="43.9634" lon="6.47331">
        <ele>957.3</ele>
        <time>2021-08-27T12:28:24.893Z</time>
      </trkpt>
      <trkpt lat="43.96332" lon="6.47339">
        <ele>956</ele>
        <time>2021-08-27T12:28:27.073Z</time>
      </trkpt>
      <trkpt lat="43.96321" lon="6.47351">
        <ele>954.3</ele>
        <time>2021-08-27T12:28:30.167Z</time>
      </trkpt>
      <trkpt lat="43.96316" lon="6.47356">
        <ele>953.5</ele>
        <time>2021-08-27T12:28:31.530Z</time>
      </trkpt>
      <trkpt lat="43.96309" lon="6.47364">
        <ele>952.4</ele>
        <time>2021-08-27T12:28:33.535Z</time>
      </trkpt>
      <trkpt lat="43.96306" lon="6.47369">
        <ele>952.1</ele>
        <time>2021-08-27T12:28:34.504Z</time>
      </trkpt>
      <trkpt lat="43.96302" lon="6.47377">
        <ele>951.8</ele>
        <time>2021-08-27T12:28:36.239Z</time>
      </trkpt>
      <trkpt lat="43.96302" lon="6.47385">
        <ele>952.1</ele>
        <time>2021-08-27T12:28:46.783Z</time>
      </trkpt>
      <trkpt lat="43.96303" lon="6.47399">
        <ele>953.1</ele>
        <time>2021-08-27T12:29:13.652Z</time>
      </trkpt>
      <trkpt lat="43.96301" lon="6.47408">
        <ele>953.2</ele>
        <time>2021-08-27T12:29:21.748Z</time>
      </trkpt>
      <trkpt lat="43.96299" lon="6.4741">
        <ele>953</ele>
        <time>2021-08-27T12:29:22.293Z</time>
      </trkpt>
      <trkpt lat="43.96298" lon="6.47412">
        <ele>952.9</ele>
        <time>2021-08-27T12:29:22.676Z</time>
      </trkpt>
      <trkpt lat="43.96295" lon="6.47419">
        <ele>952.8</ele>
        <time>2021-08-27T12:29:24.581Z</time>
      </trkpt>
      <trkpt lat="43.96286" lon="6.4743">
        <ele>951.2</ele>
        <time>2021-08-27T12:29:27.233Z</time>
      </trkpt>
      <trkpt lat="43.96285" lon="6.47432">
        <ele>950.9</ele>
        <time>2021-08-27T12:29:27.621Z</time>
      </trkpt>
      <trkpt lat="43.9628" lon="6.47443">
        <ele>950.1</ele>
        <time>2021-08-27T12:29:29.692Z</time>
      </trkpt>
      <trkpt lat="43.96278" lon="6.47455">
        <ele>950</ele>
        <time>2021-08-27T12:29:32.789Z</time>
      </trkpt>
      <trkpt lat="43.96278" lon="6.47456">
        <ele>950</ele>
        <time>2021-08-27T12:29:33.533Z</time>
      </trkpt>
      <trkpt lat="43.96278" lon="6.47465">
        <ele>950.1</ele>
        <time>2021-08-27T12:29:41.325Z</time>
      </trkpt>
      <trkpt lat="43.96278" lon="6.47467">
        <ele>950.1</ele>
        <time>2021-08-27T12:29:42.811Z</time>
      </trkpt>
      <trkpt lat="43.9628" lon="6.47487">
        <ele>950.9</ele>
        <time>2021-08-27T12:30:09.954Z</time>
      </trkpt>
      <trkpt lat="43.96283" lon="6.47499">
        <ele>951.7</ele>
        <time>2021-08-27T12:30:31.843Z</time>
      </trkpt>
      <trkpt lat="43.96284" lon="6.47503">
        <ele>952</ele>
        <time>2021-08-27T12:30:39.905Z</time>
      </trkpt>
      <trkpt lat="43.96284" lon="6.47507">
        <ele>952.3</ele>
        <time>2021-08-27T12:30:47.968Z</time>
      </trkpt>
      <trkpt lat="43.96288" lon="6.47524">
        <ele>953.9</ele>
        <time>2021-08-27T12:31:33.260Z</time>
      </trkpt>
      <trkpt lat="43.96289" lon="6.47532">
        <ele>954.5</ele>
        <time>2021-08-27T12:31:49.374Z</time>
      </trkpt>
      <trkpt lat="43.96286" lon="6.4755">
        <ele>955</ele>
        <time>2021-08-27T12:32:10.323Z</time>
      </trkpt>
      <trkpt lat="43.96283" lon="6.47561">
        <ele>955</ele>
        <time>2021-08-27T12:32:19.068Z</time>
      </trkpt>
      <trkpt lat="43.96278" lon="6.47569">
        <ele>954.5</ele>
        <time>2021-08-27T12:32:20.626Z</time>
      </trkpt>
      <trkpt lat="43.9627" lon="6.4758">
        <ele>954</ele>
        <time>2021-08-27T12:32:23.370Z</time>
      </trkpt>
      <trkpt lat="43.96269" lon="6.47582">
        <ele>953.9</ele>
        <time>2021-08-27T12:32:23.753Z</time>
      </trkpt>
      <trkpt lat="43.96262" lon="6.47597">
        <ele>953.9</ele>
        <time>2021-08-27T12:32:37.042Z</time>
      </trkpt>
      <trkpt lat="43.96256" lon="6.47608">
        <ele>953.7</ele>
        <time>2021-08-27T12:32:40.153Z</time>
      </trkpt>
      <trkpt lat="43.96251" lon="6.47615">
        <ele>953.3</ele>
        <time>2021-08-27T12:32:41.713Z</time>
      </trkpt>
      <trkpt lat="43.96246" lon="6.47626">
        <ele>953.4</ele>
        <time>2021-08-27T12:32:52.433Z</time>
      </trkpt>
      <trkpt lat="43.96244" lon="6.47639">
        <ele>954.1</ele>
        <time>2021-08-27T12:33:12.803Z</time>
      </trkpt>
      <trkpt lat="43.96245" lon="6.47647">
        <ele>954.7</ele>
        <time>2021-08-27T12:33:28.917Z</time>
      </trkpt>
      <trkpt lat="43.96248" lon="6.47663">
        <ele>956.3</ele>
        <time>2021-08-27T12:34:16.324Z</time>
      </trkpt>
      <trkpt lat="43.96248" lon="6.47664">
        <ele>956.4</ele>
        <time>2021-08-27T12:34:19.192Z</time>
      </trkpt>
      <trkpt lat="43.96249" lon="6.47678">
        <ele>957.3</ele>
        <time>2021-08-27T12:34:43.728Z</time>
      </trkpt>
      <trkpt lat="43.96252" lon="6.47692">
        <ele>958.5</ele>
        <time>2021-08-27T12:35:16.475Z</time>
      </trkpt>
      <trkpt lat="43.96253" lon="6.477">
        <ele>959.1</ele>
        <time>2021-08-27T12:35:32.589Z</time>
      </trkpt>
      <trkpt lat="43.96256" lon="6.47711">
        <ele>960.3</ele>
        <time>2021-08-27T12:36:06.318Z</time>
      </trkpt>
      <trkpt lat="43.96259" lon="6.47726">
        <ele>961.5</ele>
        <time>2021-08-27T12:36:38.645Z</time>
      </trkpt>
      <trkpt lat="43.96258" lon="6.47742">
        <ele>962.1</ele>
        <time>2021-08-27T12:36:59.784Z</time>
      </trkpt>
      <trkpt lat="43.96255" lon="6.47754">
        <ele>962.3</ele>
        <time>2021-08-27T12:37:11.593Z</time>
      </trkpt>
      <trkpt lat="43.96255" lon="6.47768">
        <ele>963.2</ele>
        <time>2021-08-27T12:37:36.104Z</time>
      </trkpt>
      <trkpt lat="43.96257" lon="6.47778">
        <ele>964.2</ele>
        <time>2021-08-27T12:38:05.863Z</time>
      </trkpt>
      <trkpt lat="43.96259" lon="6.47791">
        <ele>965.8</ele>
        <time>2021-08-27T12:38:43.980Z</time>
      </trkpt>
      <trkpt lat="43.96262" lon="6.47802">
        <ele>967.1</ele>
        <time>2021-08-27T12:39:17.708Z</time>
      </trkpt>
      <trkpt lat="43.96263" lon="6.47816">
        <ele>968.5</ele>
        <time>2021-08-27T12:39:58.047Z</time>
      </trkpt>
      <trkpt lat="43.96262" lon="6.47825">
        <ele>969</ele>
        <time>2021-08-27T12:40:12.346Z</time>
      </trkpt>
      <trkpt lat="43.96263" lon="6.47836">
        <ele>970</ele>
        <time>2021-08-27T12:40:40.793Z</time>
      </trkpt>
      <trkpt lat="43.96257" lon="6.47849">
        <ele>969.2</ele>
        <time>2021-08-27T12:40:43.253Z</time>
      </trkpt>
      <trkpt lat="43.96248" lon="6.47856">
        <ele>967.4</ele>
        <time>2021-08-27T12:40:45.534Z</time>
      </trkpt>
      <trkpt lat="43.9624" lon="6.47864">
        <ele>966.4</ele>
        <time>2021-08-27T12:40:47.715Z</time>
      </trkpt>
      <trkpt lat="43.96233" lon="6.47871">
        <ele>965.4</ele>
        <time>2021-08-27T12:40:49.623Z</time>
      </trkpt>
      <trkpt lat="43.96229" lon="6.47876">
        <ele>965.1</ele>
        <time>2021-08-27T12:40:50.812Z</time>
      </trkpt>
      <trkpt lat="43.96227" lon="6.47881">
        <ele>965</ele>
        <time>2021-08-27T12:40:52.041Z</time>
      </trkpt>
      <trkpt lat="43.96222" lon="6.47893">
        <ele>965.3</ele>
        <time>2021-08-27T12:41:06.265Z</time>
      </trkpt>
      <trkpt lat="43.96221" lon="6.47895">
        <ele>965.3</ele>
        <time>2021-08-27T12:41:08.075Z</time>
      </trkpt>
      <trkpt lat="43.96217" lon="6.47909">
        <ele>965.8</ele>
        <time>2021-08-27T12:41:27.168Z</time>
      </trkpt>
      <trkpt lat="43.96216" lon="6.47917">
        <ele>966.4</ele>
        <time>2021-08-27T12:41:43.282Z</time>
      </trkpt>
      <trkpt lat="43.96215" lon="6.47918">
        <ele>966.4</ele>
        <time>2021-08-27T12:41:44.555Z</time>
      </trkpt>
      <trkpt lat="43.96215" lon="6.47929">
        <ele>966.8</ele>
        <time>2021-08-27T12:41:58.902Z</time>
      </trkpt>
      <trkpt lat="43.96212" lon="6.47941">
        <ele>966.9</ele>
        <time>2021-08-27T12:42:09.396Z</time>
      </trkpt>
      <trkpt lat="43.96211" lon="6.47949">
        <ele>967</ele>
        <time>2021-08-27T12:42:16.554Z</time>
      </trkpt>
      <trkpt lat="43.96207" lon="6.47958">
        <ele>966.7</ele>
        <time>2021-08-27T12:42:18.499Z</time>
      </trkpt>
      <trkpt lat="43.96195" lon="6.47967">
        <ele>965.3</ele>
        <time>2021-08-27T12:42:21.516Z</time>
      </trkpt>
      <trkpt lat="43.96188" lon="6.47975">
        <ele>964.6</ele>
        <time>2021-08-27T12:42:23.521Z</time>
      </trkpt>
      <trkpt lat="43.96185" lon="6.47983">
        <ele>964.5</ele>
        <time>2021-08-27T12:42:25.673Z</time>
      </trkpt>
      <trkpt lat="43.96178" lon="6.47997">
        <ele>964.5</ele>
        <time>2021-08-27T12:42:38.345Z</time>
      </trkpt>
      <trkpt lat="43.96174" lon="6.48004">
        <ele>964.2</ele>
        <time>2021-08-27T12:42:39.882Z</time>
      </trkpt>
      <trkpt lat="43.96172" lon="6.48017">
        <ele>964.6</ele>
        <time>2021-08-27T12:42:55.896Z</time>
      </trkpt>
      <trkpt lat="43.96168" lon="6.48034">
        <ele>964.9</ele>
        <time>2021-08-27T12:43:12.800Z</time>
      </trkpt>
      <trkpt lat="43.9617" lon="6.48049">
        <ele>965.8</ele>
        <time>2021-08-27T12:43:37.882Z</time>
      </trkpt>
      <trkpt lat="43.96172" lon="6.48066">
        <ele>966.9</ele>
        <time>2021-08-27T12:44:07.883Z</time>
      </trkpt>
      <trkpt lat="43.96175" lon="6.48084">
        <ele>968.1</ele>
        <time>2021-08-27T12:44:40.495Z</time>
      </trkpt>
      <trkpt lat="43.96172" lon="6.4809">
        <ele>968.1</ele>
        <time>2021-08-27T12:44:45.926Z</time>
      </trkpt>
      <trkpt lat="43.96165" lon="6.48103">
        <ele>967.8</ele>
        <time>2021-08-27T12:44:49.362Z</time>
      </trkpt>
      <trkpt lat="43.96163" lon="6.48111">
        <ele>967.8</ele>
        <time>2021-08-27T12:44:55.658Z</time>
      </trkpt>
      <trkpt lat="43.9616" lon="6.48117">
        <ele>967.8</ele>
        <time>2021-08-27T12:45:01.089Z</time>
      </trkpt>
      <trkpt lat="43.96158" lon="6.4812">
        <ele>967.6</ele>
        <time>2021-08-27T12:45:01.740Z</time>
      </trkpt>
      <trkpt lat="43.96154" lon="6.48133">
        <ele>967.7</ele>
        <time>2021-08-27T12:45:13.289Z</time>
      </trkpt>
      <trkpt lat="43.9615" lon="6.48141">
        <ele>967.7</ele>
        <time>2021-08-27T12:45:20.530Z</time>
      </trkpt>
      <trkpt lat="43.96148" lon="6.48149">
        <ele>967.8</ele>
        <time>2021-08-27T12:45:27.939Z</time>
      </trkpt>
      <trkpt lat="43.96145" lon="6.48158">
        <ele>967.9</ele>
        <time>2021-08-27T12:45:36.397Z</time>
      </trkpt>
      <trkpt lat="43.96139" lon="6.48171">
        <ele>968.1</ele>
        <time>2021-08-27T12:45:50.142Z</time>
      </trkpt>
      <trkpt lat="43.96139" lon="6.48172">
        <ele>968.2</ele>
        <time>2021-08-27T12:45:53.010Z</time>
      </trkpt>
      <trkpt lat="43.96137" lon="6.48185">
        <ele>969.1</ele>
        <time>2021-08-27T12:46:17.301Z</time>
      </trkpt>
      <trkpt lat="43.96134" lon="6.48193">
        <ele>969.5</ele>
        <time>2021-08-27T12:46:29.991Z</time>
      </trkpt>
      <trkpt lat="43.96131" lon="6.48207">
        <ele>970.3</ele>
        <time>2021-08-27T12:46:52.893Z</time>
      </trkpt>
      <trkpt lat="43.96129" lon="6.4822">
        <ele>971.3</ele>
        <time>2021-08-27T12:47:19.772Z</time>
      </trkpt>
      <trkpt lat="43.96126" lon="6.48235">
        <ele>972.2</ele>
        <time>2021-08-27T12:47:45.024Z</time>
      </trkpt>
      <trkpt lat="43.96124" lon="6.4825">
        <ele>973.3</ele>
        <time>2021-08-27T12:48:14.565Z</time>
      </trkpt>
      <trkpt lat="43.96122" lon="6.48261">
        <ele>974.2</ele>
        <time>2021-08-27T12:48:38.919Z</time>
      </trkpt>
      <trkpt lat="43.96119" lon="6.48272">
        <ele>974.9</ele>
        <time>2021-08-27T12:48:58.374Z</time>
      </trkpt>
      <trkpt lat="43.96119" lon="6.48278">
        <ele>975.5</ele>
        <time>2021-08-27T12:49:15.578Z</time>
      </trkpt>
      <trkpt lat="43.96116" lon="6.4829">
        <ele>976.3</ele>
        <time>2021-08-27T12:49:37.468Z</time>
      </trkpt>
      <trkpt lat="43.96114" lon="6.48296">
        <ele>976.6</ele>
        <time>2021-08-27T12:49:46.865Z</time>
      </trkpt>
      <trkpt lat="43.96112" lon="6.48314">
        <ele>978.2</ele>
        <time>2021-08-27T12:50:31.706Z</time>
      </trkpt>
      <trkpt lat="43.96112" lon="6.48326">
        <ele>979.4</ele>
        <time>2021-08-27T12:51:06.114Z</time>
      </trkpt>
      <trkpt lat="43.96112" lon="6.48329">
        <ele>979.7</ele>
        <time>2021-08-27T12:51:14.716Z</time>
      </trkpt>
      <trkpt lat="43.96113" lon="6.48335">
        <ele>980.3</ele>
        <time>2021-08-27T12:51:32.376Z</time>
      </trkpt>
      <trkpt lat="43.96115" lon="6.48348">
        <ele>980.6</ele>
        <time>2021-08-27T12:51:46.239Z</time>
      </trkpt>
      <trkpt lat="43.96117" lon="6.48359">
        <ele>981</ele>
        <time>2021-08-27T12:52:00.889Z</time>
      </trkpt>
      <trkpt lat="43.96122" lon="6.48371">
        <ele>981.8</ele>
        <time>2021-08-27T12:52:23.350Z</time>
      </trkpt>
      <trkpt lat="43.96124" lon="6.48381">
        <ele>982.1</ele>
        <time>2021-08-27T12:52:35.554Z</time>
      </trkpt>
      <trkpt lat="43.96127" lon="6.48391">
        <ele>982.6</ele>
        <time>2021-08-27T12:52:51.072Z</time>
      </trkpt>
      <trkpt lat="43.9613" lon="6.48401">
        <ele>983.2</ele>
        <time>2021-08-27T12:53:08.173Z</time>
      </trkpt>
      <trkpt lat="43.96137" lon="6.48407">
        <ele>984.3</ele>
        <time>2021-08-27T12:53:40.937Z</time>
      </trkpt>
      <trkpt lat="43.96146" lon="6.48416">
        <ele>985.8</ele>
        <time>2021-08-27T12:54:25.110Z</time>
      </trkpt>
      <trkpt lat="43.96154" lon="6.48428">
        <ele>987.5</ele>
        <time>2021-08-27T12:55:12.009Z</time>
      </trkpt>
      <trkpt lat="43.96161" lon="6.48439">
        <ele>988.9</ele>
        <time>2021-08-27T12:55:53.529Z</time>
      </trkpt>
      <trkpt lat="43.96156" lon="6.48449">
        <ele>988.4</ele>
        <time>2021-08-27T12:55:55.445Z</time>
      </trkpt>
      <trkpt lat="43.96149" lon="6.48457">
        <ele>987.5</ele>
        <time>2021-08-27T12:55:57.450Z</time>
      </trkpt>
      <trkpt lat="43.96144" lon="6.48463">
        <ele>987</ele>
        <time>2021-08-27T12:55:58.912Z</time>
      </trkpt>
      <trkpt lat="43.96143" lon="6.48463">
        <ele>986.9</ele>
        <time>2021-08-27T12:55:59.133Z</time>
      </trkpt>
      <trkpt lat="43.96144" lon="6.48462">
        <ele>986.9</ele>
        <time>2021-08-27T12:56:00.406Z</time>
      </trkpt>
      <trkpt lat="43.96144" lon="6.48461">
        <ele>986.8</ele>
        <time>2021-08-27T12:56:00.565Z</time>
      </trkpt>
      <trkpt lat="43.96144" lon="6.48462">
        <ele>987</ele>
        <time>2021-08-27T12:56:03.432Z</time>
      </trkpt>
      <trkpt lat="43.96142" lon="6.48462">
        <ele>986.7</ele>
        <time>2021-08-27T12:56:03.875Z</time>
      </trkpt>
      <trkpt lat="43.96141" lon="6.48464">
        <ele>986.5</ele>
        <time>2021-08-27T12:56:04.263Z</time>
      </trkpt>
      <trkpt lat="43.96143" lon="6.48463">
        <ele>986.8</ele>
        <time>2021-08-27T12:56:12.730Z</time>
      </trkpt>
      <trkpt lat="43.96145" lon="6.48462">
        <ele>987.1</ele>
        <time>2021-08-27T12:56:21.197Z</time>
      </trkpt>
      <trkpt lat="43.96146" lon="6.48462">
        <ele>987.2</ele>
        <time>2021-08-27T12:56:23.883Z</time>
      </trkpt>
      <trkpt lat="43.96146" lon="6.4846">
        <ele>987.2</ele>
        <time>2021-08-27T12:56:25.369Z</time>
      </trkpt>
      <trkpt lat="43.96145" lon="6.4846">
        <ele>987</ele>
        <time>2021-08-27T12:56:25.591Z</time>
      </trkpt>
      <trkpt lat="43.96144" lon="6.48461">
        <ele>986.9</ele>
        <time>2021-08-27T12:56:25.863Z</time>
      </trkpt>
      <trkpt lat="43.96143" lon="6.48464">
        <ele>986.9</ele>
        <time>2021-08-27T12:56:28.321Z</time>
      </trkpt>
      <trkpt lat="43.96145" lon="6.48465">
        <ele>987.2</ele>
        <time>2021-08-27T12:56:36.788Z</time>
      </trkpt>
      <trkpt lat="43.96142" lon="6.48462">
        <ele>986.7</ele>
        <time>2021-08-27T12:56:37.606Z</time>
      </trkpt>
      <trkpt lat="43.96141" lon="6.48461">
        <ele>986.5</ele>
        <time>2021-08-27T12:56:37.879Z</time>
      </trkpt>
      <trkpt lat="43.9614" lon="6.48463">
        <ele>986.3</ele>
        <time>2021-08-27T12:56:38.266Z</time>
      </trkpt>
      <trkpt lat="43.96142" lon="6.48463">
        <ele>986.7</ele>
        <time>2021-08-27T12:56:46.233Z</time>
      </trkpt>
      <trkpt lat="43.96143" lon="6.48464">
        <ele>986.9</ele>
        <time>2021-08-27T12:56:51.141Z</time>
      </trkpt>
      <trkpt lat="43.96146" lon="6.48467">
        <ele>987.4</ele>
        <time>2021-08-27T12:57:05.866Z</time>
      </trkpt>
      <trkpt lat="43.96146" lon="6.48466">
        <ele>987.5</ele>
        <time>2021-08-27T12:57:08.733Z</time>
      </trkpt>
      <trkpt lat="43.96146" lon="6.48465">
        <ele>987.3</ele>
        <time>2021-08-27T12:57:08.892Z</time>
      </trkpt>
      <trkpt lat="43.96145" lon="6.48467">
        <ele>987.3</ele>
        <time>2021-08-27T12:57:10.703Z</time>
      </trkpt>
      <trkpt lat="43.96142" lon="6.48471">
        <ele>986.8</ele>
        <time>2021-08-27T12:57:11.622Z</time>
      </trkpt>
      <trkpt lat="43.96138" lon="6.48479">
        <ele>986.5</ele>
        <time>2021-08-27T12:57:13.357Z</time>
      </trkpt>
      <trkpt lat="43.96133" lon="6.4849">
        <ele>986</ele>
        <time>2021-08-27T12:57:15.468Z</time>
      </trkpt>
      <trkpt lat="43.96132" lon="6.48498">
        <ele>986.1</ele>
        <time>2021-08-27T12:57:22.626Z</time>
      </trkpt>
      <trkpt lat="43.96129" lon="6.48508">
        <ele>985.7</ele>
        <time>2021-08-27T12:57:24.414Z</time>
      </trkpt>
      <trkpt lat="43.96129" lon="6.4851">
        <ele>985.6</ele>
        <time>2021-08-27T12:57:24.733Z</time>
      </trkpt>
      <trkpt lat="43.96129" lon="6.48513">
        <ele>985.6</ele>
        <time>2021-08-27T12:57:26.963Z</time>
      </trkpt>
      <trkpt lat="43.96126" lon="6.48523">
        <ele>985.1</ele>
        <time>2021-08-27T12:57:28.575Z</time>
      </trkpt>
      <trkpt lat="43.96125" lon="6.48527">
        <ele>985</ele>
        <time>2021-08-27T12:57:29.406Z</time>
      </trkpt>
      <trkpt lat="43.96125" lon="6.48532">
        <ele>984.9</ele>
        <time>2021-08-27T12:57:30.440Z</time>
      </trkpt>
      <trkpt lat="43.96124" lon="6.48536">
        <ele>984.8</ele>
        <time>2021-08-27T12:57:31.271Z</time>
      </trkpt>
      <trkpt lat="43.96123" lon="6.48546">
        <ele>984.7</ele>
        <time>2021-08-27T12:57:33.730Z</time>
      </trkpt>
      <trkpt lat="43.96122" lon="6.48559">
        <ele>984.5</ele>
        <time>2021-08-27T12:57:36.638Z</time>
      </trkpt>
      <trkpt lat="43.96121" lon="6.48568">
        <ele>984.4</ele>
        <time>2021-08-27T12:57:38.815Z</time>
      </trkpt>
      <trkpt lat="43.96121" lon="6.48575">
        <ele>984.4</ele>
        <time>2021-08-27T12:57:44.018Z</time>
      </trkpt>
      <trkpt lat="43.9612" lon="6.48587">
        <ele>984.3</ele>
        <time>2021-08-27T12:57:47.047Z</time>
      </trkpt>
      <trkpt lat="43.96119" lon="6.48597">
        <ele>984</ele>
        <time>2021-08-27T12:57:48.871Z</time>
      </trkpt>
      <trkpt lat="43.96119" lon="6.48609">
        <ele>983.9</ele>
        <time>2021-08-27T12:57:51.877Z</time>
      </trkpt>
      <trkpt lat="43.96119" lon="6.48621">
        <ele>983.7</ele>
        <time>2021-08-27T12:57:54.489Z</time>
      </trkpt>
      <trkpt lat="43.96118" lon="6.48629">
        <ele>983.5</ele>
        <time>2021-08-27T12:57:56.059Z</time>
      </trkpt>
      <trkpt lat="43.96118" lon="6.48642">
        <ele>983.2</ele>
        <time>2021-08-27T12:57:58.630Z</time>
      </trkpt>
      <trkpt lat="43.96116" lon="6.48653">
        <ele>982.9</ele>
        <time>2021-08-27T12:58:00.771Z</time>
      </trkpt>
      <trkpt lat="43.96115" lon="6.48662">
        <ele>982.7</ele>
        <time>2021-08-27T12:58:02.601Z</time>
      </trkpt>
      <trkpt lat="43.96115" lon="6.48671">
        <ele>982.7</ele>
        <time>2021-08-27T12:58:09.292Z</time>
      </trkpt>
      <trkpt lat="43.96114" lon="6.48682">
        <ele>983</ele>
        <time>2021-08-27T12:58:21.862Z</time>
      </trkpt>
      <trkpt lat="43.96114" lon="6.48689">
        <ele>983.2</ele>
        <time>2021-08-27T12:58:30.038Z</time>
      </trkpt>
      <trkpt lat="43.96114" lon="6.487">
        <ele>983.6</ele>
        <time>2021-08-27T12:58:44.386Z</time>
      </trkpt>
      <trkpt lat="43.96112" lon="6.48713">
        <ele>983.8</ele>
        <time>2021-08-27T12:58:56.608Z</time>
      </trkpt>
      <trkpt lat="43.96111" lon="6.48724">
        <ele>984.1</ele>
        <time>2021-08-27T12:59:09.178Z</time>
      </trkpt>
      <trkpt lat="43.96111" lon="6.48734">
        <ele>984.4</ele>
        <time>2021-08-27T12:59:21.202Z</time>
      </trkpt>
      <trkpt lat="43.96111" lon="6.48747">
        <ele>984.9</ele>
        <time>2021-08-27T12:59:38.489Z</time>
      </trkpt>
      <trkpt lat="43.96111" lon="6.48754">
        <ele>985</ele>
        <time>2021-08-27T12:59:44.849Z</time>
      </trkpt>
      <trkpt lat="43.96108" lon="6.48768">
        <ele>984.7</ele>
        <time>2021-08-27T12:59:47.846Z</time>
      </trkpt>
      <trkpt lat="43.96107" lon="6.48779">
        <ele>984.7</ele>
        <time>2021-08-27T12:59:56.089Z</time>
      </trkpt>
      <trkpt lat="43.96106" lon="6.4879">
        <ele>984.5</ele>
        <time>2021-08-27T12:59:58.451Z</time>
      </trkpt>
      <trkpt lat="43.96104" lon="6.48803">
        <ele>984.3</ele>
        <time>2021-08-27T13:00:01.420Z</time>
      </trkpt>
      <trkpt lat="43.96105" lon="6.48814">
        <ele>984.5</ele>
        <time>2021-08-27T13:00:12.118Z</time>
      </trkpt>
      <trkpt lat="43.96106" lon="6.48823">
        <ele>984.8</ele>
        <time>2021-08-27T13:00:23.636Z</time>
      </trkpt>
      <trkpt lat="43.96105" lon="6.48831">
        <ele>984.7</ele>
        <time>2021-08-27T13:00:25.533Z</time>
      </trkpt>
      <trkpt lat="43.9611" lon="6.48841">
        <ele>985.3</ele>
        <time>2021-08-27T13:00:43.538Z</time>
      </trkpt>
      <trkpt lat="43.96113" lon="6.48848">
        <ele>985.6</ele>
        <time>2021-08-27T13:00:54.208Z</time>
      </trkpt>
      <trkpt lat="43.96114" lon="6.48855">
        <ele>985.5</ele>
        <time>2021-08-27T13:00:55.829Z</time>
      </trkpt>
      <trkpt lat="43.96116" lon="6.48861">
        <ele>985.7</ele>
        <time>2021-08-27T13:01:03.820Z</time>
      </trkpt>
      <trkpt lat="43.96116" lon="6.48869">
        <ele>985.5</ele>
        <time>2021-08-27T13:01:05.360Z</time>
      </trkpt>
      <trkpt lat="43.96118" lon="6.48871">
        <ele>985.7</ele>
        <time>2021-08-27T13:01:10.952Z</time>
      </trkpt>
      <trkpt lat="43.96117" lon="6.4887">
        <ele>985.6</ele>
        <time>2021-08-27T13:01:11.224Z</time>
      </trkpt>
      <trkpt lat="43.96113" lon="6.48873">
        <ele>984.8</ele>
        <time>2021-08-27T13:01:12.230Z</time>
      </trkpt>
      <trkpt lat="43.96111" lon="6.48875">
        <ele>984.5</ele>
        <time>2021-08-27T13:01:12.775Z</time>
      </trkpt>
      <trkpt lat="43.96108" lon="6.48875">
        <ele>984.1</ele>
        <time>2021-08-27T13:01:13.439Z</time>
      </trkpt>
      <trkpt lat="43.96105" lon="6.48883">
        <ele>983.3</ele>
        <time>2021-08-27T13:01:14.875Z</time>
      </trkpt>
      <trkpt lat="43.96106" lon="6.48891">
        <ele>983.3</ele>
        <time>2021-08-27T13:01:20.912Z</time>
      </trkpt>
      <trkpt lat="43.9611" lon="6.489">
        <ele>983.7</ele>
        <time>2021-08-27T13:01:34.893Z</time>
      </trkpt>
      <trkpt lat="43.96114" lon="6.48907">
        <ele>984.1</ele>
        <time>2021-08-27T13:01:47.518Z</time>
      </trkpt>
      <trkpt lat="43.96115" lon="6.48907">
        <ele>984.1</ele>
        <time>2021-08-27T13:01:48.550Z</time>
      </trkpt>
      <trkpt lat="43.96117" lon="6.48911">
        <ele>984.4</ele>
        <time>2021-08-27T13:01:56.805Z</time>
      </trkpt>
      <trkpt lat="43.96122" lon="6.48916">
        <ele>985.1</ele>
        <time>2021-08-27T13:02:15.884Z</time>
      </trkpt>
      <trkpt lat="43.96128" lon="6.48922">
        <ele>986</ele>
        <time>2021-08-27T13:02:41.075Z</time>
      </trkpt>
      <trkpt lat="43.96133" lon="6.48929">
        <ele>986.7</ele>
        <time>2021-08-27T13:02:59.885Z</time>
      </trkpt>
      <trkpt lat="43.96135" lon="6.48939">
        <ele>987</ele>
        <time>2021-08-27T13:03:12.089Z</time>
      </trkpt>
      <trkpt lat="43.96138" lon="6.48945">
        <ele>987.4</ele>
        <time>2021-08-27T13:03:23.541Z</time>
      </trkpt>
      <trkpt lat="43.96138" lon="6.48957">
        <ele>987.4</ele>
        <time>2021-08-27T13:03:32.462Z</time>
      </trkpt>
      <trkpt lat="43.96134" lon="6.48966">
        <ele>986.9</ele>
        <time>2021-08-27T13:03:34.017Z</time>
      </trkpt>
      <trkpt lat="43.96133" lon="6.48967">
        <ele>986.8</ele>
        <time>2021-08-27T13:03:34.289Z</time>
      </trkpt>
      <trkpt lat="43.96132" lon="6.48974">
        <ele>986.6</ele>
        <time>2021-08-27T13:03:35.608Z</time>
      </trkpt>
      <trkpt lat="43.9613" lon="6.48983">
        <ele>986.5</ele>
        <time>2021-08-27T13:03:37.873Z</time>
      </trkpt>
      <trkpt lat="43.96132" lon="6.48989">
        <ele>986.6</ele>
        <time>2021-08-27T13:03:43.960Z</time>
      </trkpt>
      <trkpt lat="43.96129" lon="6.48997">
        <ele>986.4</ele>
        <time>2021-08-27T13:03:45.767Z</time>
      </trkpt>
      <trkpt lat="43.96128" lon="6.49005">
        <ele>986.6</ele>
        <time>2021-08-27T13:03:54.559Z</time>
      </trkpt>
      <trkpt lat="43.96127" lon="6.49013">
        <ele>987.2</ele>
        <time>2021-08-27T13:04:10.673Z</time>
      </trkpt>
      <trkpt lat="43.96126" lon="6.49018">
        <ele>987.4</ele>
        <time>2021-08-27T13:04:17.579Z</time>
      </trkpt>
      <trkpt lat="43.96125" lon="6.49024">
        <ele>987.8</ele>
        <time>2021-08-27T13:04:28.450Z</time>
      </trkpt>
      <trkpt lat="43.96125" lon="6.49029">
        <ele>988.1</ele>
        <time>2021-08-27T13:04:36.767Z</time>
      </trkpt>
      <trkpt lat="43.96128" lon="6.49036">
        <ele>988.8</ele>
        <time>2021-08-27T13:04:56.180Z</time>
      </trkpt>
      <trkpt lat="43.96129" lon="6.49038">
        <ele>989.1</ele>
        <time>2021-08-27T13:05:03.162Z</time>
      </trkpt>
      <trkpt lat="43.96131" lon="6.49045">
        <ele>989.8</ele>
        <time>2021-08-27T13:05:23.491Z</time>
      </trkpt>
      <trkpt lat="43.96132" lon="6.49052">
        <ele>990.4</ele>
        <time>2021-08-27T13:05:39.988Z</time>
      </trkpt>
      <trkpt lat="43.96133" lon="6.49059">
        <ele>991</ele>
        <time>2021-08-27T13:05:56.485Z</time>
      </trkpt>
      <trkpt lat="43.96135" lon="6.49065">
        <ele>991.6</ele>
        <time>2021-08-27T13:06:13.619Z</time>
      </trkpt>
      <trkpt lat="43.96135" lon="6.49072">
        <ele>992.2</ele>
        <time>2021-08-27T13:06:30.242Z</time>
      </trkpt>
      <trkpt lat="43.96136" lon="6.49079">
        <ele>992.7</ele>
        <time>2021-08-27T13:06:43.689Z</time>
      </trkpt>
      <trkpt lat="43.96137" lon="6.49087">
        <ele>993.5</ele>
        <time>2021-08-27T13:07:06.971Z</time>
      </trkpt>
      <trkpt lat="43.96138" lon="6.49095">
        <ele>994.2</ele>
        <time>2021-08-27T13:07:26.413Z</time>
      </trkpt>
      <trkpt lat="43.96139" lon="6.49099">
        <ele>994.6</ele>
        <time>2021-08-27T13:07:38.180Z</time>
      </trkpt>
      <trkpt lat="43.9614" lon="6.49107">
        <ele>995.4</ele>
        <time>2021-08-27T13:08:01.462Z</time>
      </trkpt>
      <trkpt lat="43.96141" lon="6.4911">
        <ele>995.7</ele>
        <time>2021-08-27T13:08:10.029Z</time>
      </trkpt>
      <trkpt lat="43.96144" lon="6.49119">
        <ele>996.8</ele>
        <time>2021-08-27T13:08:38.468Z</time>
      </trkpt>
      <trkpt lat="43.96146" lon="6.49129">
        <ele>997.8</ele>
        <time>2021-08-27T13:09:08.228Z</time>
      </trkpt>
      <trkpt lat="43.96146" lon="6.49136">
        <ele>998.5</ele>
        <time>2021-08-27T13:09:28.299Z</time>
      </trkpt>
      <trkpt lat="43.96147" lon="6.49145">
        <ele>999.4</ele>
        <time>2021-08-27T13:09:54.411Z</time>
      </trkpt>
      <trkpt lat="43.96147" lon="6.49146">
        <ele>999.5</ele>
        <time>2021-08-27T13:09:57.278Z</time>
      </trkpt>
      <trkpt lat="43.96148" lon="6.49153">
        <ele>1000.2</ele>
        <time>2021-08-27T13:10:17.741Z</time>
      </trkpt>
      <trkpt lat="43.96148" lon="6.49158">
        <ele>1000.5</ele>
        <time>2021-08-27T13:10:26.058Z</time>
      </trkpt>
      <trkpt lat="43.96147" lon="6.49158">
        <ele>1000.4</ele>
        <time>2021-08-27T13:10:26.279Z</time>
      </trkpt>
      <trkpt lat="43.96147" lon="6.49163">
        <ele>1000.8</ele>
        <time>2021-08-27T13:10:37.122Z</time>
      </trkpt>
      <trkpt lat="43.96148" lon="6.4917">
        <ele>1001.4</ele>
        <time>2021-08-27T13:10:53.619Z</time>
      </trkpt>
      <trkpt lat="43.96149" lon="6.4918">
        <ele>1001.9</ele>
        <time>2021-08-27T13:11:08.586Z</time>
      </trkpt>
      <trkpt lat="43.96149" lon="6.49183">
        <ele>1002.1</ele>
        <time>2021-08-27T13:11:13.996Z</time>
      </trkpt>
      <trkpt lat="43.9615" lon="6.49194">
        <ele>1002.6</ele>
        <time>2021-08-27T13:11:29.711Z</time>
      </trkpt>
      <trkpt lat="43.9615" lon="6.49206">
        <ele>1003.1</ele>
        <time>2021-08-27T13:11:46.159Z</time>
      </trkpt>
      <trkpt lat="43.9615" lon="6.49208">
        <ele>1003.2</ele>
        <time>2021-08-27T13:11:49.138Z</time>
      </trkpt>
      <trkpt lat="43.96154" lon="6.49223">
        <ele>1004.3</ele>
        <time>2021-08-27T13:12:18.772Z</time>
      </trkpt>
      <trkpt lat="43.96154" lon="6.49234">
        <ele>1004.7</ele>
        <time>2021-08-27T13:12:33.119Z</time>
      </trkpt>
      <trkpt lat="43.96156" lon="6.49245">
        <ele>1005.4</ele>
        <time>2021-08-27T13:12:52.372Z</time>
      </trkpt>
      <trkpt lat="43.96159" lon="6.49256">
        <ele>1005.8</ele>
        <time>2021-08-27T13:13:07.390Z</time>
      </trkpt>
      <trkpt lat="43.9616" lon="6.49269">
        <ele>1005.4</ele>
        <time>2021-08-27T13:13:09.725Z</time>
      </trkpt>
      <trkpt lat="43.9616" lon="6.49273">
        <ele>1005.3</ele>
        <time>2021-08-27T13:13:10.495Z</time>
      </trkpt>
      <trkpt lat="43.96159" lon="6.49287">
        <ele>1004.7</ele>
        <time>2021-08-27T13:13:12.670Z</time>
      </trkpt>
      <trkpt lat="43.9616" lon="6.49302">
        <ele>1004.2</ele>
        <time>2021-08-27T13:13:15.273Z</time>
      </trkpt>
      <trkpt lat="43.96166" lon="6.49304">
        <ele>1004.4</ele>
        <time>2021-08-27T13:13:24.336Z</time>
      </trkpt>
      <trkpt lat="43.96174" lon="6.49307">
        <ele>1006.4</ele>
        <time>2021-08-27T13:13:57.345Z</time>
      </trkpt>
      <trkpt lat="43.96183" lon="6.49318">
        <ele>1008.8</ele>
        <time>2021-08-27T13:14:45.095Z</time>
      </trkpt>
      <trkpt lat="43.96185" lon="6.49334">
        <ele>1009</ele>
        <time>2021-08-27T13:14:59.411Z</time>
      </trkpt>
      <trkpt lat="43.9619" lon="6.49344">
        <ele>1010.2</ele>
        <time>2021-08-27T13:15:34.323Z</time>
      </trkpt>
      <trkpt lat="43.96196" lon="6.49352">
        <ele>1012.2</ele>
        <time>2021-08-27T13:16:07.450Z</time>
      </trkpt>
      <trkpt lat="43.96199" lon="6.49364">
        <ele>1013.3</ele>
        <time>2021-08-27T13:16:38.063Z</time>
      </trkpt>
      <trkpt lat="43.96193" lon="6.49372">
        <ele>1010.7</ele>
        <time>2021-08-27T13:16:39.903Z</time>
      </trkpt>
      <trkpt lat="43.96189" lon="6.49384">
        <ele>1009</ele>
        <time>2021-08-27T13:16:42.009Z</time>
      </trkpt>
      <trkpt lat="43.96191" lon="6.49392">
        <ele>1009.6</ele>
        <time>2021-08-27T13:16:58.133Z</time>
      </trkpt>
      <trkpt lat="43.96195" lon="6.49409">
        <ele>1011.3</ele>
        <time>2021-08-27T13:17:48.411Z</time>
      </trkpt>
      <trkpt lat="43.96197" lon="6.49421">
        <ele>1012</ele>
        <time>2021-08-27T13:18:08.170Z</time>
      </trkpt>
      <trkpt lat="43.96196" lon="6.49432">
        <ele>1010.9</ele>
        <time>2021-08-27T13:18:09.935Z</time>
      </trkpt>
      <trkpt lat="43.96192" lon="6.49443">
        <ele>1008.8</ele>
        <time>2021-08-27T13:18:11.898Z</time>
      </trkpt>
      <trkpt lat="43.96188" lon="6.49448">
        <ele>1006.6</ele>
        <time>2021-08-27T13:18:13.088Z</time>
      </trkpt>
      <trkpt lat="43.96186" lon="6.49457">
        <ele>1005.1</ele>
        <time>2021-08-27T13:18:14.588Z</time>
      </trkpt>
      <trkpt lat="43.96191" lon="6.4946">
        <ele>1007.6</ele>
        <time>2021-08-27T13:18:36.283Z</time>
      </trkpt>
      <trkpt lat="43.96187" lon="6.49469">
        <ele>1005</ele>
        <time>2021-08-27T13:18:37.968Z</time>
      </trkpt>
      <trkpt lat="43.96185" lon="6.49474">
        <ele>1004.1</ele>
        <time>2021-08-27T13:18:38.879Z</time>
      </trkpt>
      <trkpt lat="43.96179" lon="6.49485">
        <ele>1000.4</ele>
        <time>2021-08-27T13:18:41.076Z</time>
      </trkpt>
      <trkpt lat="43.9618" lon="6.49493">
        <ele>1000.5</ele>
        <time>2021-08-27T13:18:48.234Z</time>
      </trkpt>
      <trkpt lat="43.96182" lon="6.49507">
        <ele>1001.3</ele>
        <time>2021-08-27T13:19:10.931Z</time>
      </trkpt>
      <trkpt lat="43.96178" lon="6.49517">
        <ele>999.1</ele>
        <time>2021-08-27T13:19:12.753Z</time>
      </trkpt>
      <trkpt lat="43.96183" lon="6.49528">
        <ele>1001.7</ele>
        <time>2021-08-27T13:19:50.056Z</time>
      </trkpt>
      <trkpt lat="43.96188" lon="6.4954">
        <ele>1004.2</ele>
        <time>2021-08-27T13:20:29.813Z</time>
      </trkpt>
      <trkpt lat="43.96192" lon="6.49553">
        <ele>1006.7</ele>
        <time>2021-08-27T13:21:10.350Z</time>
      </trkpt>
      <trkpt lat="43.96195" lon="6.49566">
        <ele>1008.2</ele>
        <time>2021-08-27T13:21:49.494Z</time>
      </trkpt>
      <trkpt lat="43.96196" lon="6.49578">
        <ele>1008.3</ele>
        <time>2021-08-27T13:21:59.532Z</time>
      </trkpt>
      <trkpt lat="43.96196" lon="6.49588">
        <ele>1007.5</ele>
        <time>2021-08-27T13:22:01.124Z</time>
      </trkpt>
      <trkpt lat="43.96195" lon="6.49592">
        <ele>1006.7</ele>
        <time>2021-08-27T13:22:01.798Z</time>
      </trkpt>
      <trkpt lat="43.962" lon="6.49596">
        <ele>1008.8</ele>
        <time>2021-08-27T13:22:24.782Z</time>
      </trkpt>
      <trkpt lat="43.9621" lon="6.49606">
        <ele>1012</ele>
        <time>2021-08-27T13:23:13.863Z</time>
      </trkpt>
      <trkpt lat="43.96218" lon="6.49621">
        <ele>1014</ele>
        <time>2021-08-27T13:24:07.392Z</time>
      </trkpt>
      <trkpt lat="43.96223" lon="6.49629">
        <ele>1014.5</ele>
        <time>2021-08-27T13:24:22.728Z</time>
      </trkpt>
      <trkpt lat="43.9622" lon="6.49625">
        <ele>1014.2</ele>
        <time>2021-08-27T13:24:23.647Z</time>
      </trkpt>
      <trkpt lat="43.96216" lon="6.49613">
        <ele>1014.2</ele>
        <time>2021-08-27T13:24:33.478Z</time>
      </trkpt>
      <trkpt lat="43.96209" lon="6.49604">
        <ele>1012.2</ele>
        <time>2021-08-27T13:24:35.588Z</time>
      </trkpt>
      <trkpt lat="43.96208" lon="6.49594">
        <ele>1013.2</ele>
        <time>2021-08-27T13:25:04.536Z</time>
      </trkpt>
      <trkpt lat="43.96205" lon="6.49583">
        <ele>1013.8</ele>
        <time>2021-08-27T13:25:22.248Z</time>
      </trkpt>
      <trkpt lat="43.96205" lon="6.49575">
        <ele>1013.4</ele>
        <time>2021-08-27T13:25:23.521Z</time>
      </trkpt>
      <trkpt lat="43.96204" lon="6.49561">
        <ele>1013.1</ele>
        <time>2021-08-27T13:25:26.375Z</time>
      </trkpt>
      <trkpt lat="43.96204" lon="6.49549">
        <ele>1013.1</ele>
        <time>2021-08-27T13:25:35.295Z</time>
      </trkpt>
      <trkpt lat="43.96201" lon="6.49536">
        <ele>1011.4</ele>
        <time>2021-08-27T13:25:37.469Z</time>
      </trkpt>
      <trkpt lat="43.96204" lon="6.49535">
        <ele>1013.2</ele>
        <time>2021-08-27T13:25:49.759Z</time>
      </trkpt>
      <trkpt lat="43.96206" lon="6.49542">
        <ele>1014.3</ele>
        <time>2021-08-27T13:26:11.353Z</time>
      </trkpt>
      <trkpt lat="43.96217" lon="6.49553">
        <ele>1020.3</ele>
        <time>2021-08-27T13:27:05.343Z</time>
      </trkpt>
      <trkpt lat="43.96226" lon="6.49561">
        <ele>1025.3</ele>
        <time>2021-08-27T13:27:47.904Z</time>
      </trkpt>
      <trkpt lat="43.9623" lon="6.49568">
        <ele>1027.6</ele>
        <time>2021-08-27T13:28:13.531Z</time>
      </trkpt>
      <trkpt lat="43.96234" lon="6.4958">
        <ele>1030.1</ele>
        <time>2021-08-27T13:28:51.449Z</time>
      </trkpt>
      <trkpt lat="43.96237" lon="6.49599">
        <ele>1028.4</ele>
        <time>2021-08-27T13:28:54.546Z</time>
      </trkpt>
      <trkpt lat="43.9624" lon="6.49602">
        <ele>1029.6</ele>
        <time>2021-08-27T13:29:09.271Z</time>
      </trkpt>
      <trkpt lat="43.96248" lon="6.49601">
        <ele>1034</ele>
        <time>2021-08-27T13:29:41.267Z</time>
      </trkpt>
      <trkpt lat="43.96254" lon="6.49609">
        <ele>1034.2</ele>
        <time>2021-08-27T13:29:52.282Z</time>
      </trkpt>
      <trkpt lat="43.96254" lon="6.49606">
        <ele>1034.9</ele>
        <time>2021-08-27T13:30:00.884Z</time>
      </trkpt>
      <trkpt lat="43.96248" lon="6.49597">
        <ele>1034.7</ele>
        <time>2021-08-27T13:30:03.569Z</time>
      </trkpt>
      <trkpt lat="43.96245" lon="6.49589">
        <ele>1034.8</ele>
        <time>2021-08-27T13:30:11.376Z</time>
      </trkpt>
      <trkpt lat="43.96243" lon="6.4958">
        <ele>1035.3</ele>
        <time>2021-08-27T13:30:25.876Z</time>
      </trkpt>
      <trkpt lat="43.96242" lon="6.49575">
        <ele>1034.4</ele>
        <time>2021-08-27T13:30:26.702Z</time>
      </trkpt>
      <trkpt lat="43.9624" lon="6.49562">
        <ele>1033.3</ele>
        <time>2021-08-27T13:30:28.819Z</time>
      </trkpt>
      <trkpt lat="43.96239" lon="6.49547">
        <ele>1033</ele>
        <time>2021-08-27T13:30:31.939Z</time>
      </trkpt>
      <trkpt lat="43.96239" lon="6.4954">
        <ele>1032.8</ele>
        <time>2021-08-27T13:30:33.222Z</time>
      </trkpt>
      <trkpt lat="43.9624" lon="6.49528">
        <ele>1033.7</ele>
        <time>2021-08-27T13:30:57.401Z</time>
      </trkpt>
      <trkpt lat="43.96241" lon="6.49517">
        <ele>1033.9</ele>
        <time>2021-08-27T13:31:08.098Z</time>
      </trkpt>
      <trkpt lat="43.96239" lon="6.4951">
        <ele>1032.8</ele>
        <time>2021-08-27T13:31:09.298Z</time>
      </trkpt>
      <trkpt lat="43.96238" lon="6.49504">
        <ele>1032.5</ele>
        <time>2021-08-27T13:31:10.278Z</time>
      </trkpt>
      <trkpt lat="43.96237" lon="6.49503">
        <ele>1031.7</ele>
        <time>2021-08-27T13:31:10.551Z</time>
      </trkpt>
      <trkpt lat="43.96234" lon="6.49505">
        <ele>1030.4</ele>
        <time>2021-08-27T13:31:11.287Z</time>
      </trkpt>
      <trkpt lat="43.96233" lon="6.49506">
        <ele>1029.9</ele>
        <time>2021-08-27T13:31:11.560Z</time>
      </trkpt>
      <trkpt lat="43.96231" lon="6.49505">
        <ele>1028.6</ele>
        <time>2021-08-27T13:31:12.030Z</time>
      </trkpt>
      <trkpt lat="43.96231" lon="6.49502">
        <ele>1028.5</ele>
        <time>2021-08-27T13:31:12.547Z</time>
      </trkpt>
      <trkpt lat="43.9623" lon="6.49502">
        <ele>1028</ele>
        <time>2021-08-27T13:31:12.769Z</time>
      </trkpt>
      <trkpt lat="43.9623" lon="6.495">
        <ele>1028</ele>
        <time>2021-08-27T13:31:14.255Z</time>
      </trkpt>
      <trkpt lat="43.96232" lon="6.49499">
        <ele>1029</ele>
        <time>2021-08-27T13:31:22.722Z</time>
      </trkpt>
      <trkpt lat="43.96231" lon="6.495">
        <ele>1028.3</ele>
        <time>2021-08-27T13:31:22.995Z</time>
      </trkpt>
      <trkpt lat="43.96231" lon="6.49499">
        <ele>1028.4</ele>
        <time>2021-08-27T13:31:25.862Z</time>
      </trkpt>
      <trkpt lat="43.96228" lon="6.49497">
        <ele>1027</ele>
        <time>2021-08-27T13:31:26.598Z</time>
      </trkpt>
      <trkpt lat="43.9623" lon="6.49496">
        <ele>1028.3</ele>
        <time>2021-08-27T13:31:35.066Z</time>
      </trkpt>
      <trkpt lat="43.96232" lon="6.49494">
        <ele>1029.3</ele>
        <time>2021-08-27T13:31:44.882Z</time>
      </trkpt>
      <trkpt lat="43.96235" lon="6.49493">
        <ele>1030.7</ele>
        <time>2021-08-27T13:31:57.171Z</time>
      </trkpt>
      <trkpt lat="43.96241" lon="6.49498">
        <ele>1034</ele>
        <time>2021-08-27T13:32:25.042Z</time>
      </trkpt>
      <trkpt lat="43.96247" lon="6.49508">
        <ele>1037.4</ele>
        <time>2021-08-27T13:33:02.370Z</time>
      </trkpt>
      <trkpt lat="43.96252" lon="6.49517">
        <ele>1039.7</ele>
        <time>2021-08-27T13:33:34.968Z</time>
      </trkpt>
      <trkpt lat="43.96256" lon="6.49525">
        <ele>1041.3</ele>
        <time>2021-08-27T13:34:02.898Z</time>
      </trkpt>
      <trkpt lat="43.96254" lon="6.49532">
        <ele>1040.4</ele>
        <time>2021-08-27T13:34:04.097Z</time>
      </trkpt>
      <trkpt lat="43.96256" lon="6.49537">
        <ele>1041</ele>
        <time>2021-08-27T13:34:20.498Z</time>
      </trkpt>
      <trkpt lat="43.96257" lon="6.49551">
        <ele>1041.3</ele>
        <time>2021-08-27T13:34:34.851Z</time>
      </trkpt>
      <trkpt lat="43.96258" lon="6.4956">
        <ele>1041.4</ele>
        <time>2021-08-27T13:34:42.721Z</time>
      </trkpt>
      <trkpt lat="43.96257" lon="6.49565">
        <ele>1041</ele>
        <time>2021-08-27T13:34:43.547Z</time>
      </trkpt>
      <trkpt lat="43.96257" lon="6.49559">
        <ele>1041.2</ele>
        <time>2021-08-27T13:34:51.162Z</time>
      </trkpt>
      <trkpt lat="43.96262" lon="6.49552">
        <ele>1042.9</ele>
        <time>2021-08-27T13:35:19.438Z</time>
      </trkpt>
      <trkpt lat="43.96271" lon="6.49563">
        <ele>1045.2</ele>
        <time>2021-08-27T13:36:07.188Z</time>
      </trkpt>
      <trkpt lat="43.96275" lon="6.49574">
        <ele>1046.1</ele>
        <time>2021-08-27T13:36:31.355Z</time>
      </trkpt>
      <trkpt lat="43.96278" lon="6.49578">
        <ele>1046.9</ele>
        <time>2021-08-27T13:36:47.919Z</time>
      </trkpt>
      <trkpt lat="43.96284" lon="6.49579">
        <ele>1048.6</ele>
        <time>2021-08-27T13:37:11.991Z</time>
      </trkpt>
      <trkpt lat="43.96291" lon="6.49592">
        <ele>1048</ele>
        <time>2021-08-27T13:37:14.670Z</time>
      </trkpt>
      <trkpt lat="43.96288" lon="6.49608">
        <ele>1043.1</ele>
        <time>2021-08-27T13:37:17.303Z</time>
      </trkpt>
      <trkpt lat="43.96292" lon="6.49623">
        <ele>1040.2</ele>
        <time>2021-08-27T13:37:19.851Z</time>
      </trkpt>
      <trkpt lat="43.96303" lon="6.49631">
        <ele>1040.5</ele>
        <time>2021-08-27T13:37:36.318Z</time>
      </trkpt>
      <trkpt lat="43.9631" lon="6.49632">
        <ele>1042</ele>
        <time>2021-08-27T13:38:04.349Z</time>
      </trkpt>
      <trkpt lat="43.9632" lon="6.49628">
        <ele>1045.5</ele>
        <time>2021-08-27T13:38:45.802Z</time>
      </trkpt>
      <trkpt lat="43.96333" lon="6.49623">
        <ele>1050</ele>
        <time>2021-08-27T13:39:39.535Z</time>
      </trkpt>
      <trkpt lat="43.96344" lon="6.49612">
        <ele>1052.7</ele>
        <time>2021-08-27T13:40:33.524Z</time>
      </trkpt>
      <trkpt lat="43.96352" lon="6.4961">
        <ele>1052.8</ele>
        <time>2021-08-27T13:40:42.985Z</time>
      </trkpt>
      <trkpt lat="43.96354" lon="6.49609">
        <ele>1053.3</ele>
        <time>2021-08-27T13:40:51.452Z</time>
      </trkpt>
      <trkpt lat="43.96357" lon="6.49605">
        <ele>1054</ele>
        <time>2021-08-27T13:41:08.015Z</time>
      </trkpt>
      <trkpt lat="43.96357" lon="6.49607">
        <ele>1053.6</ele>
        <time>2021-08-27T13:41:08.334Z</time>
      </trkpt>
      <trkpt lat="43.96361" lon="6.49612">
        <ele>1051.6</ele>
        <time>2021-08-27T13:41:09.524Z</time>
      </trkpt>
      <trkpt lat="43.96367" lon="6.49615">
        <ele>1050.3</ele>
        <time>2021-08-27T13:41:10.935Z</time>
      </trkpt>
      <trkpt lat="43.96375" lon="6.49615">
        <ele>1050</ele>
        <time>2021-08-27T13:41:13.016Z</time>
      </trkpt>
      <trkpt lat="43.96383" lon="6.49613">
        <ele>1050</ele>
        <time>2021-08-27T13:41:21.411Z</time>
      </trkpt>
      <trkpt lat="43.96393" lon="6.49613">
        <ele>1049.5</ele>
        <time>2021-08-27T13:41:23.731Z</time>
      </trkpt>
      <trkpt lat="43.96391" lon="6.49615">
        <ele>1048.8</ele>
        <time>2021-08-27T13:41:24.276Z</time>
      </trkpt>
      <trkpt lat="43.96384" lon="6.49616">
        <ele>1049.1</ele>
        <time>2021-08-27T13:41:36.199Z</time>
      </trkpt>
      <trkpt lat="43.9638" lon="6.4961">
        <ele>1051.2</ele>
        <time>2021-08-27T13:41:59.648Z</time>
      </trkpt>
      <trkpt lat="43.96386" lon="6.49598">
        <ele>1054.9</ele>
        <time>2021-08-27T13:42:41.542Z</time>
      </trkpt>
      <trkpt lat="43.96393" lon="6.49591">
        <ele>1057.2</ele>
        <time>2021-08-27T13:43:15.898Z</time>
      </trkpt>
      <trkpt lat="43.96404" lon="6.49576">
        <ele>1060.9</ele>
        <time>2021-08-27T13:44:17.296Z</time>
      </trkpt>
      <trkpt lat="43.96408" lon="6.49562">
        <ele>1063.7</ele>
        <time>2021-08-27T13:45:00.484Z</time>
      </trkpt>
      <trkpt lat="43.9641" lon="6.49567">
        <ele>1062.7</ele>
        <time>2021-08-27T13:45:01.395Z</time>
      </trkpt>
      <trkpt lat="43.96419" lon="6.49576">
        <ele>1061</ele>
        <time>2021-08-27T13:45:03.848Z</time>
      </trkpt>
      <trkpt lat="43.96423" lon="6.49588">
        <ele>1058.1</ele>
        <time>2021-08-27T13:45:05.954Z</time>
      </trkpt>
      <trkpt lat="43.96425" lon="6.496">
        <ele>1054.1</ele>
        <time>2021-08-27T13:45:07.915Z</time>
      </trkpt>
      <trkpt lat="43.96426" lon="6.49614">
        <ele>1049.3</ele>
        <time>2021-08-27T13:45:10.155Z</time>
      </trkpt>
      <trkpt lat="43.96434" lon="6.49619">
        <ele>1048.4</ele>
        <time>2021-08-27T13:45:12.096Z</time>
      </trkpt>
      <trkpt lat="43.96442" lon="6.49624">
        <ele>1048.1</ele>
        <time>2021-08-27T13:45:14.454Z</time>
      </trkpt>
      <trkpt lat="43.96456" lon="6.49625">
        <ele>1049.9</ele>
        <time>2021-08-27T13:46:06.510Z</time>
      </trkpt>
      <trkpt lat="43.96465" lon="6.49625">
        <ele>1051.4</ele>
        <time>2021-08-27T13:46:42.362Z</time>
      </trkpt>
      <trkpt lat="43.96478" lon="6.49622">
        <ele>1054.4</ele>
        <time>2021-08-27T13:47:34.856Z</time>
      </trkpt>
      <trkpt lat="43.96488" lon="6.49622">
        <ele>1056.3</ele>
        <time>2021-08-27T13:48:14.691Z</time>
      </trkpt>
      <trkpt lat="43.96502" lon="6.4963">
        <ele>1055.9</ele>
        <time>2021-08-27T13:48:19.105Z</time>
      </trkpt>
      <trkpt lat="43.96512" lon="6.49641">
        <ele>1054.4</ele>
        <time>2021-08-27T13:48:21.927Z</time>
      </trkpt>
      <trkpt lat="43.96518" lon="6.49645">
        <ele>1054.6</ele>
        <time>2021-08-27T13:48:31.411Z</time>
      </trkpt>
      <trkpt lat="43.96531" lon="6.4965">
        <ele>1055.8</ele>
        <time>2021-08-27T13:49:04.119Z</time>
      </trkpt>
      <trkpt lat="43.96535" lon="6.49654">
        <ele>1055.3</ele>
        <time>2021-08-27T13:49:05.210Z</time>
      </trkpt>
      <trkpt lat="43.96545" lon="6.4966">
        <ele>1055</ele>
        <time>2021-08-27T13:49:08.348Z</time>
      </trkpt>
      <trkpt lat="43.96552" lon="6.49674">
        <ele>1052</ele>
        <time>2021-08-27T13:49:11.062Z</time>
      </trkpt>
      <trkpt lat="43.96558" lon="6.49683">
        <ele>1050.5</ele>
        <time>2021-08-27T13:49:13.016Z</time>
      </trkpt>
      <trkpt lat="43.96565" lon="6.49694">
        <ele>1048.6</ele>
        <time>2021-08-27T13:49:15.354Z</time>
      </trkpt>
      <trkpt lat="43.96564" lon="6.49691">
        <ele>1049.3</ele>
        <time>2021-08-27T13:49:24.833Z</time>
      </trkpt>
      <trkpt lat="43.96564" lon="6.49693">
        <ele>1048.7</ele>
        <time>2021-08-27T13:49:25.151Z</time>
      </trkpt>
      <trkpt lat="43.96565" lon="6.49691">
        <ele>1049.7</ele>
        <time>2021-08-27T13:49:32.133Z</time>
      </trkpt>
      <trkpt lat="43.96572" lon="6.49697">
        <ele>1049.1</ele>
        <time>2021-08-27T13:49:33.953Z</time>
      </trkpt>
      <trkpt lat="43.96577" lon="6.49696">
        <ele>1050.5</ele>
        <time>2021-08-27T13:49:54.075Z</time>
      </trkpt>
      <trkpt lat="43.96578" lon="6.49686">
        <ele>1053.6</ele>
        <time>2021-08-27T13:50:23.022Z</time>
      </trkpt>
      <trkpt lat="43.96582" lon="6.49683">
        <ele>1055.4</ele>
        <time>2021-08-27T13:50:41.129Z</time>
      </trkpt>
      <trkpt lat="43.96594" lon="6.49684">
        <ele>1058.7</ele>
        <time>2021-08-27T13:51:29.017Z</time>
      </trkpt>
      <trkpt lat="43.96596" lon="6.49687">
        <ele>1058.4</ele>
        <time>2021-08-27T13:51:29.668Z</time>
      </trkpt>
      <trkpt lat="43.96602" lon="6.49698">
        <ele>1056.3</ele>
        <time>2021-08-27T13:51:31.866Z</time>
      </trkpt>
      <trkpt lat="43.96611" lon="6.49703">
        <ele>1057</ele>
        <time>2021-08-27T13:51:52.352Z</time>
      </trkpt>
      <trkpt lat="43.96615" lon="6.49706">
        <ele>1057.2</ele>
        <time>2021-08-27T13:52:00.215Z</time>
      </trkpt>
      <trkpt lat="43.96624" lon="6.49718">
        <ele>1055.3</ele>
        <time>2021-08-27T13:52:02.975Z</time>
      </trkpt>
      <trkpt lat="43.96633" lon="6.49724">
        <ele>1055.1</ele>
        <time>2021-08-27T13:52:06.104Z</time>
      </trkpt>
      <trkpt lat="43.96642" lon="6.49727">
        <ele>1055.8</ele>
        <time>2021-08-27T13:52:26.191Z</time>
      </trkpt>
      <trkpt lat="43.96651" lon="6.49735">
        <ele>1055</ele>
        <time>2021-08-27T13:52:28.555Z</time>
      </trkpt>
      <trkpt lat="43.9665" lon="6.49734">
        <ele>1055.3</ele>
        <time>2021-08-27T13:52:33.463Z</time>
      </trkpt>
      <trkpt lat="43.96653" lon="6.49734">
        <ele>1055.9</ele>
        <time>2021-08-27T13:52:45.413Z</time>
      </trkpt>
      <trkpt lat="43.96656" lon="6.49739">
        <ele>1054.3</ele>
        <time>2021-08-27T13:52:46.450Z</time>
      </trkpt>
      <trkpt lat="43.96662" lon="6.49736">
        <ele>1057.3</ele>
        <time>2021-08-27T13:53:11.851Z</time>
      </trkpt>
      <trkpt lat="43.96674" lon="6.4974">
        <ele>1059.8</ele>
        <time>2021-08-27T13:54:01.009Z</time>
      </trkpt>
      <trkpt lat="43.96682" lon="6.4975">
        <ele>1058.6</ele>
        <time>2021-08-27T13:54:03.390Z</time>
      </trkpt>
      <trkpt lat="43.96685" lon="6.49761">
        <ele>1055.7</ele>
        <time>2021-08-27T13:54:05.263Z</time>
      </trkpt>
      <trkpt lat="43.96684" lon="6.49765">
        <ele>1053.9</ele>
        <time>2021-08-27T13:54:05.937Z</time>
      </trkpt>
      <trkpt lat="43.96686" lon="6.49775">
        <ele>1051</ele>
        <time>2021-08-27T13:54:07.590Z</time>
      </trkpt>
      <trkpt lat="43.96685" lon="6.49779">
        <ele>1049.6</ele>
        <time>2021-08-27T13:54:08.264Z</time>
      </trkpt>
      <trkpt lat="43.96684" lon="6.49778">
        <ele>1049.2</ele>
        <time>2021-08-27T13:54:08.536Z</time>
      </trkpt>
      <trkpt lat="43.96684" lon="6.4978">
        <ele>1048.6</ele>
        <time>2021-08-27T13:54:08.855Z</time>
      </trkpt>
      <trkpt lat="43.96684" lon="6.49794">
        <ele>1044</ele>
        <time>2021-08-27T13:54:11.084Z</time>
      </trkpt>
      <trkpt lat="43.96685" lon="6.49802">
        <ele>1041.7</ele>
        <time>2021-08-27T13:54:12.377Z</time>
      </trkpt>
      <trkpt lat="43.9669" lon="6.49807">
        <ele>1041.5</ele>
        <time>2021-08-27T13:54:14.062Z</time>
      </trkpt>
      <trkpt lat="43.96698" lon="6.49813">
        <ele>1042.5</ele>
        <time>2021-08-27T13:54:41.113Z</time>
      </trkpt>
      <trkpt lat="43.96709" lon="6.49814">
        <ele>1046.2</ele>
        <time>2021-08-27T13:55:25.025Z</time>
      </trkpt>
      <trkpt lat="43.96718" lon="6.49818">
        <ele>1047.9</ele>
        <time>2021-08-27T13:56:02.666Z</time>
      </trkpt>
      <trkpt lat="43.96729" lon="6.49823">
        <ele>1050.3</ele>
        <time>2021-08-27T13:56:48.770Z</time>
      </trkpt>
      <trkpt lat="43.96742" lon="6.49828">
        <ele>1053</ele>
        <time>2021-08-27T13:57:42.502Z</time>
      </trkpt>
      <trkpt lat="43.96749" lon="6.49832">
        <ele>1054.2</ele>
        <time>2021-08-27T13:58:12.653Z</time>
      </trkpt>
      <trkpt lat="43.96757" lon="6.4983">
        <ele>1056.5</ele>
        <time>2021-08-27T13:58:45.032Z</time>
      </trkpt>
      <trkpt lat="43.96767" lon="6.49826">
        <ele>1059.9</ele>
        <time>2021-08-27T13:59:26.485Z</time>
      </trkpt>
      <trkpt lat="43.96777" lon="6.49821">
        <ele>1063.8</ele>
        <time>2021-08-27T14:00:08.821Z</time>
      </trkpt>
      <trkpt lat="43.96786" lon="6.49816">
        <ele>1067.2</ele>
        <time>2021-08-27T14:00:47.432Z</time>
      </trkpt>
      <trkpt lat="43.968" lon="6.49817">
        <ele>1069.1</ele>
        <time>2021-08-27T14:01:43.274Z</time>
      </trkpt>
      <trkpt lat="43.96809" lon="6.49821">
        <ele>1069.3</ele>
        <time>2021-08-27T14:01:55.380Z</time>
      </trkpt>
      <trkpt lat="43.96823" lon="6.49829">
        <ele>1068.4</ele>
        <time>2021-08-27T14:01:58.625Z</time>
      </trkpt>
      <trkpt lat="43.96826" lon="6.4984">
        <ele>1065</ele>
        <time>2021-08-27T14:02:00.498Z</time>
      </trkpt>
      <trkpt lat="43.96824" lon="6.49852">
        <ele>1061.7</ele>
        <time>2021-08-27T14:02:02.459Z</time>
      </trkpt>
      <trkpt lat="43.96823" lon="6.49863">
        <ele>1058.7</ele>
        <time>2021-08-27T14:02:04.225Z</time>
      </trkpt>
      <trkpt lat="43.96825" lon="6.49879">
        <ele>1055.3</ele>
        <time>2021-08-27T14:02:06.810Z</time>
      </trkpt>
      <trkpt lat="43.96828" lon="6.49893">
        <ele>1052.6</ele>
        <time>2021-08-27T14:02:09.136Z</time>
      </trkpt>
      <trkpt lat="43.96826" lon="6.49907">
        <ele>1048.7</ele>
        <time>2021-08-27T14:02:11.409Z</time>
      </trkpt>
      <trkpt lat="43.96824" lon="6.4992">
        <ele>1044.6</ele>
        <time>2021-08-27T14:02:13.526Z</time>
      </trkpt>
      <trkpt lat="43.96822" lon="6.49931">
        <ele>1041.5</ele>
        <time>2021-08-27T14:02:15.332Z</time>
      </trkpt>
      <trkpt lat="43.96826" lon="6.49939">
        <ele>1041.3</ele>
        <time>2021-08-27T14:02:17.331Z</time>
      </trkpt>
      <trkpt lat="43.96837" lon="6.49945">
        <ele>1043.8</ele>
        <time>2021-08-27T14:03:04.404Z</time>
      </trkpt>
      <trkpt lat="43.96845" lon="6.49954">
        <ele>1044.2</ele>
        <time>2021-08-27T14:03:20.910Z</time>
      </trkpt>
      <trkpt lat="43.96849" lon="6.49958">
        <ele>1044.7</ele>
        <time>2021-08-27T14:03:34.336Z</time>
      </trkpt>
      <trkpt lat="43.96858" lon="6.49968">
        <ele>1044.7</ele>
        <time>2021-08-27T14:03:46.238Z</time>
      </trkpt>
      <trkpt lat="43.96865" lon="6.49974">
        <ele>1045.6</ele>
        <time>2021-08-27T14:04:10.561Z</time>
      </trkpt>
      <trkpt lat="43.96875" lon="6.49986">
        <ele>1044.9</ele>
        <time>2021-08-27T14:04:13.549Z</time>
      </trkpt>
      <trkpt lat="43.96884" lon="6.49992">
        <ele>1045.3</ele>
        <time>2021-08-27T14:04:29.836Z</time>
      </trkpt>
      <trkpt lat="43.96891" lon="6.49994">
        <ele>1046.6</ele>
        <time>2021-08-27T14:04:58.304Z</time>
      </trkpt>
      <trkpt lat="43.96896" lon="6.49994">
        <ele>1047.7</ele>
        <time>2021-08-27T14:05:18.221Z</time>
      </trkpt>
      <trkpt lat="43.96902" lon="6.49997">
        <ele>1048.3</ele>
        <time>2021-08-27T14:05:34.415Z</time>
      </trkpt>
      <trkpt lat="43.96913" lon="6.50003">
        <ele>1048.6</ele>
        <time>2021-08-27T14:05:50.317Z</time>
      </trkpt>
      <trkpt lat="43.96929" lon="6.5001">
        <ele>1046.7</ele>
        <time>2021-08-27T14:05:54.028Z</time>
      </trkpt>
      <trkpt lat="43.96943" lon="6.50015">
        <ele>1044.9</ele>
        <time>2021-08-27T14:05:57.226Z</time>
      </trkpt>
      <trkpt lat="43.96953" lon="6.50018">
        <ele>1043.8</ele>
        <time>2021-08-27T14:05:59.489Z</time>
      </trkpt>
      <trkpt lat="43.96963" lon="6.50018">
        <ele>1044.1</ele>
        <time>2021-08-27T14:06:13.730Z</time>
      </trkpt>
      <trkpt lat="43.96975" lon="6.50018">
        <ele>1045</ele>
        <time>2021-08-27T14:06:39.645Z</time>
      </trkpt>
      <trkpt lat="43.96984" lon="6.50014">
        <ele>1046.9</ele>
        <time>2021-08-27T14:07:17.285Z</time>
      </trkpt>
      <trkpt lat="43.96996" lon="6.50008">
        <ele>1049.5</ele>
        <time>2021-08-27T14:08:08.088Z</time>
      </trkpt>
      <trkpt lat="43.96997" lon="6.50007">
        <ele>1050</ele>
        <time>2021-08-27T14:08:12.996Z</time>
      </trkpt>
      <trkpt lat="43.97005" lon="6.5">
        <ele>1053.1</ele>
        <time>2021-08-27T14:08:50.656Z</time>
      </trkpt>
      <trkpt lat="43.97012" lon="6.49999">
        <ele>1054.3</ele>
        <time>2021-08-27T14:09:18.687Z</time>
      </trkpt>
      <trkpt lat="43.97021" lon="6.50001">
        <ele>1053.5</ele>
        <time>2021-08-27T14:09:20.704Z</time>
      </trkpt>
      <trkpt lat="43.97027" lon="6.50008">
        <ele>1051.3</ele>
        <time>2021-08-27T14:09:22.437Z</time>
      </trkpt>
      <trkpt lat="43.97028" lon="6.50008">
        <ele>1051.1</ele>
        <time>2021-08-27T14:09:22.658Z</time>
      </trkpt>
      <trkpt lat="43.97035" lon="6.50014">
        <ele>1049.3</ele>
        <time>2021-08-27T14:09:24.478Z</time>
      </trkpt>
      <trkpt lat="43.97038" lon="6.50016">
        <ele>1048.9</ele>
        <time>2021-08-27T14:09:25.214Z</time>
      </trkpt>
      <trkpt lat="43.97045" lon="6.50019">
        <ele>1048.2</ele>
        <time>2021-08-27T14:09:26.834Z</time>
      </trkpt>
      <trkpt lat="43.97052" lon="6.50022">
        <ele>1047.5</ele>
        <time>2021-08-27T14:09:28.455Z</time>
      </trkpt>
      <trkpt lat="43.97061" lon="6.50025">
        <ele>1047</ele>
        <time>2021-08-27T14:09:30.529Z</time>
      </trkpt>
      <trkpt lat="43.97071" lon="6.50025">
        <ele>1047.4</ele>
        <time>2021-08-27T14:09:46.829Z</time>
      </trkpt>
      <trkpt lat="43.9708" lon="6.50021">
        <ele>1049.3</ele>
        <time>2021-08-27T14:10:24.470Z</time>
      </trkpt>
      <trkpt lat="43.97087" lon="6.50013">
        <ele>1053.1</ele>
        <time>2021-08-27T14:11:00.574Z</time>
      </trkpt>
      <trkpt lat="43.97096" lon="6.50008">
        <ele>1056.3</ele>
        <time>2021-08-27T14:11:39.185Z</time>
      </trkpt>
      <trkpt lat="43.97113" lon="6.50012">
        <ele>1057.8</ele>
        <time>2021-08-27T14:12:20.284Z</time>
      </trkpt>
      <trkpt lat="43.9712" lon="6.50022">
        <ele>1055.2</ele>
        <time>2021-08-27T14:12:22.505Z</time>
      </trkpt>
      <trkpt lat="43.97121" lon="6.50033">
        <ele>1051.4</ele>
        <time>2021-08-27T14:12:24.270Z</time>
      </trkpt>
      <trkpt lat="43.97121" lon="6.50048">
        <ele>1046.2</ele>
        <time>2021-08-27T14:12:26.658Z</time>
      </trkpt>
      <trkpt lat="43.97121" lon="6.50056">
        <ele>1043.2</ele>
        <time>2021-08-27T14:12:27.932Z</time>
      </trkpt>
      <trkpt lat="43.97121" lon="6.5006">
        <ele>1041.8</ele>
        <time>2021-08-27T14:12:28.569Z</time>
      </trkpt>
      <trkpt lat="43.97122" lon="6.50072">
        <ele>1037.5</ele>
        <time>2021-08-27T14:12:30.492Z</time>
      </trkpt>
      <trkpt lat="43.97123" lon="6.50084">
        <ele>1033.6</ele>
        <time>2021-08-27T14:12:32.416Z</time>
      </trkpt>
      <trkpt lat="43.9712" lon="6.50088">
        <ele>1032</ele>
        <time>2021-08-27T14:12:33.336Z</time>
      </trkpt>
      <trkpt lat="43.97119" lon="6.50086">
        <ele>1032.3</ele>
        <time>2021-08-27T14:12:40.317Z</time>
      </trkpt>
      <trkpt lat="43.97118" lon="6.50086">
        <ele>1032.3</ele>
        <time>2021-08-27T14:12:41.350Z</time>
      </trkpt>
      <trkpt lat="43.97118" lon="6.50085">
        <ele>1032.6</ele>
        <time>2021-08-27T14:12:44.217Z</time>
      </trkpt>
      <trkpt lat="43.97117" lon="6.50085">
        <ele>1032.4</ele>
        <time>2021-08-27T14:12:44.438Z</time>
      </trkpt>
      <trkpt lat="43.97118" lon="6.50085">
        <ele>1032.6</ele>
        <time>2021-08-27T14:12:48.421Z</time>
      </trkpt>
      <trkpt lat="43.97115" lon="6.50084">
        <ele>1032.5</ele>
        <time>2021-08-27T14:12:49.266Z</time>
      </trkpt>
      <trkpt lat="43.97116" lon="6.50082">
        <ele>1033.1</ele>
        <time>2021-08-27T14:12:56.248Z</time>
      </trkpt>
      <trkpt lat="43.97118" lon="6.50083">
        <ele>1033.1</ele>
        <time>2021-08-27T14:12:58.443Z</time>
      </trkpt>
      <trkpt lat="43.97118" lon="6.50086">
        <ele>1032.2</ele>
        <time>2021-08-27T14:12:58.920Z</time>
      </trkpt>
      <trkpt lat="43.97119" lon="6.50087">
        <ele>1032.3</ele>
        <time>2021-08-27T14:13:01.716Z</time>
      </trkpt>
      <trkpt lat="43.97121" lon="6.50087">
        <ele>1032.4</ele>
        <time>2021-08-27T14:13:05.328Z</time>
      </trkpt>
      <trkpt lat="43.97122" lon="6.50088">
        <ele>1032.4</ele>
        <time>2021-08-27T14:13:06.600Z</time>
      </trkpt>
      <trkpt lat="43.97118" lon="6.50089">
        <ele>1031.4</ele>
        <time>2021-08-27T14:13:07.499Z</time>
      </trkpt>
      <trkpt lat="43.97119" lon="6.50087">
        <ele>1032.2</ele>
        <time>2021-08-27T14:13:14.481Z</time>
      </trkpt>
      <trkpt lat="43.97118" lon="6.50086">
        <ele>1032.3</ele>
        <time>2021-08-27T14:13:17.277Z</time>
      </trkpt>
      <trkpt lat="43.97116" lon="6.50085">
        <ele>1032.2</ele>
        <time>2021-08-27T14:13:17.783Z</time>
      </trkpt>
      <trkpt lat="43.97116" lon="6.50084">
        <ele>1032.5</ele>
        <time>2021-08-27T14:13:20.650Z</time>
      </trkpt>
      <trkpt lat="43.97118" lon="6.50085">
        <ele>1032.5</ele>
        <time>2021-08-27T14:13:22.845Z</time>
      </trkpt>
      <trkpt lat="43.97116" lon="6.50087">
        <ele>1031.9</ele>
        <time>2021-08-27T14:13:23.390Z</time>
      </trkpt>
      <trkpt lat="43.97116" lon="6.50085">
        <ele>1032.1</ele>
        <time>2021-08-27T14:13:29.124Z</time>
      </trkpt>
      <trkpt lat="43.97115" lon="6.50086">
        <ele>1031.9</ele>
        <time>2021-08-27T14:13:29.396Z</time>
      </trkpt>
      <trkpt lat="43.97117" lon="6.50085">
        <ele>1032.4</ele>
        <time>2021-08-27T14:13:37.863Z</time>
      </trkpt>
      <trkpt lat="43.97118" lon="6.50085">
        <ele>1032.4</ele>
        <time>2021-08-27T14:13:38.896Z</time>
      </trkpt>
      <trkpt lat="43.97116" lon="6.50087">
        <ele>1031.8</ele>
        <time>2021-08-27T14:13:39.441Z</time>
      </trkpt>
      <trkpt lat="43.97116" lon="6.50085">
        <ele>1032.2</ele>
        <time>2021-08-27T14:13:45.175Z</time>
      </trkpt>
      <trkpt lat="43.97117" lon="6.50085">
        <ele>1032.4</ele>
        <time>2021-08-27T14:13:49.158Z</time>
      </trkpt>
      <trkpt lat="43.97115" lon="6.50087">
        <ele>1031.7</ele>
        <time>2021-08-27T14:13:49.704Z</time>
      </trkpt>
      <trkpt lat="43.97117" lon="6.50087">
        <ele>1031.8</ele>
        <time>2021-08-27T14:13:53.315Z</time>
      </trkpt>
      <trkpt lat="43.97118" lon="6.50087">
        <ele>1031.9</ele>
        <time>2021-08-27T14:13:56.001Z</time>
      </trkpt>
      <trkpt lat="43.97119" lon="6.5009">
        <ele>1031.4</ele>
        <time>2021-08-27T14:13:56.527Z</time>
      </trkpt>
      <trkpt lat="43.97118" lon="6.50088">
        <ele>1031.8</ele>
        <time>2021-08-27T14:14:03.509Z</time>
      </trkpt>
      <trkpt lat="43.97117" lon="6.50084">
        <ele>1032.6</ele>
        <time>2021-08-27T14:14:15.649Z</time>
      </trkpt>
      <trkpt lat="43.97116" lon="6.50086">
        <ele>1032.2</ele>
        <time>2021-08-27T14:14:16.036Z</time>
      </trkpt>
      <trkpt lat="43.97115" lon="6.50089">
        <ele>1031.1</ele>
        <time>2021-08-27T14:14:16.563Z</time>
      </trkpt>
      <trkpt lat="43.97115" lon="6.50091">
        <ele>1030.6</ele>
        <time>2021-08-27T14:14:16.881Z</time>
      </trkpt>
      <trkpt lat="43.97117" lon="6.50086">
        <ele>1032.1</ele>
        <time>2021-08-27T14:14:33.281Z</time>
      </trkpt>
      <trkpt lat="43.97116" lon="6.50085">
        <ele>1032.4</ele>
        <time>2021-08-27T14:14:38.189Z</time>
      </trkpt>
      <trkpt lat="43.97119" lon="6.50087">
        <ele>1032.3</ele>
        <time>2021-08-27T14:14:39.122Z</time>
      </trkpt>
      <trkpt lat="43.97118" lon="6.50087">
        <ele>1031.9</ele>
        <time>2021-08-27T14:14:39.343Z</time>
      </trkpt>
      <trkpt lat="43.97116" lon="6.50087">
        <ele>1031.7</ele>
        <time>2021-08-27T14:14:39.786Z</time>
      </trkpt>
      <trkpt lat="43.97117" lon="6.50086">
        <ele>1032.1</ele>
        <time>2021-08-27T14:14:44.693Z</time>
      </trkpt>
      <trkpt lat="43.97117" lon="6.50087">
        <ele>1031.8</ele>
        <time>2021-08-27T14:14:44.853Z</time>
      </trkpt>
      <trkpt lat="43.97118" lon="6.50086">
        <ele>1032.3</ele>
        <time>2021-08-27T14:14:49.761Z</time>
      </trkpt>
      <trkpt lat="43.97117" lon="6.50086">
        <ele>1032</ele>
        <time>2021-08-27T14:14:49.982Z</time>
      </trkpt>
      <trkpt lat="43.97117" lon="6.50087">
        <ele>1031.9</ele>
        <time>2021-08-27T14:14:50.141Z</time>
      </trkpt>
      <trkpt lat="43.97119" lon="6.50084">
        <ele>1032.8</ele>
        <time>2021-08-27T14:15:01.865Z</time>
      </trkpt>
      <trkpt lat="43.97117" lon="6.50084">
        <ele>1032.8</ele>
        <time>2021-08-27T14:15:03.930Z</time>
      </trkpt>
      <trkpt lat="43.97118" lon="6.50084">
        <ele>1032.7</ele>
        <time>2021-08-27T14:15:04.151Z</time>
      </trkpt>
      <trkpt lat="43.97117" lon="6.50085">
        <ele>1032.4</ele>
        <time>2021-08-27T14:15:04.424Z</time>
      </trkpt>
    </trkseg>
  </trk>
</gpx>